[[{"header":{"parameterUnit":"m.s-1","parameterCategory":1,"la1":30.6,"la2":28.766,"lo1":-90.7593,"lo2":-88.6598,"dy":0.0162,"dx":0.0183,"nx":116,"ny":114,"refTime":"2023-06-17T00:00:00:Z","depth":0,"parameterNumber":2,"parameterNumberName":"U-component_of_WINDS"},"data":[0.0,0.0,0.0,0.0,0.0,0.0,0.0,0.0,0.0,0.0,0.0,0.0,0.0,0.0,0.0,0.0,0.0,0.0,0.0,0.0,0.0,0.0,0.0,0.0,0.0,0.0,0.0,0.0,0.0,0.0,0.0,0.0,0.0,0.0,0.0,0.0,0.0,0.0,0.0,0.0,0.0,0.0,0.0,0.0,0.0,0.0,0.0,0.0,0.0,0.0,0.0,0.0,0.0,0.0,0.0,0.0,0.0,0.0,0.0,0.0,0.0,0.0,0.0,0.0,0.0,0.0,0.0,0.0,0.0,0.0,0.0,0.0,0.0,0.0,0.0,0.0,0.0,0.0,0.0,0.0,0.0,0.0,0.0,0.0,0.0,0.0,0.0,0.0,0.0,0.0,0.0,0.0,0.0,0.0,0.0,0.0,0.0,0.0,0.0,0.0,0.0,0.0,0.0,0.0,0.0,0.0,0.0,0.0,0.0,0.0,0.0,0.0,0.0,0.0,0.0,0.0,0.0,0.0,0.0,0.0,0.0,0.0,0.0,0.0,0.0,0.0,0.0,0.0,0.0,0.0,0.0,0.0,0.0,0.0,0.0,0.0,0.0,0.0,0.0,0.0,0.0,0.0,0.0,0.0,0.0,0.0,0.0,0.0,0.0,0.0,0.0,0.0,0.0,0.0,0.0,0.0,0.0,0.0,0.0,0.0,0.0,0.0,0.0,0.0,0.0,0.0,0.0,0.0,0.0,0.0,0.0,0.0,0.0,0.0,0.0,0.0,0.0,0.0,0.0,0.0,0.0,0.0,0.0,0.0,0.0,0.0,0.0,0.0,0.0,0.0,0.0,0.0,0.0,0.0,0.0,0.0,0.0,0.0,0.0,0.0,0.0,0.0,0.0,0.0,0.0,0.0,0.0,0.0,0.0,0.0,0.0,0.0,0.0,0.0,0.0,0.0,0.0,0.0,0.0,0.0,0.0,0.0,0.0,0.0,0.0,0.0,0.0,0.0,0.0,0.0,0.0,0.0,0.0,0.0,0.0,0.0,0.0,0.0,0.0,0.0,0.0,0.0,0.0,0.0,0.0,0.0,0.0,0.0,0.0,0.0,0.0,0.0,0.0,0.0,0.0,0.0,0.0,0.0,0.0,0.0,0.0,0.0,0.0,0.0,0.0,0.0,0.0,0.0,0.0,0.0,0.0,0.0,0.0,0.0,0.0,0.0,0.0,0.0,0.0,0.0,0.0,0.0,0.0,0.0,0.0,0.0,0.0,0.0,0.0,0.0,0.0,0.0,0.0,0.0,0.0,0.0,0.0,0.0,0.0,0.0,0.0,0.0,0.0,0.0,0.0,0.0,0.0,0.0,0.0,0.0,0.0,0.0,0.0,0.0,0.0,0.0,0.0,0.0,0.0,0.0,0.0,0.0,0.0,0.0,0.0,0.0,0.0,0.0,0.0,0.0,0.0,0.0,0.0,0.0,0.0,0.0,0.0,0.0,0.0,0.0,0.0,0.0,0.0,0.0,0.0,0.0,0.0,0.0,0.0,0.0,0.0,0.0,0.0,0.0,0.0,0.0,0.0,0.0,0.0,0.0,0.0,0.0,0.0,0.0,0.0,0.0,0.0,0.0,0.0,0.0,0.0,0.0,0.0,0.0,0.0,0.0,0.0,0.0,0.0,0.0,0.0,0.0,0.0,0.0,0.0,0.0,0.0,0.0,0.0,0.0,0.0,0.0,0.0,0.0,0.0,0.0,0.0,0.0,0.0,0.0,0.0,0.0,0.0,0.0,0.0,0.0,0.0,0.0,0.0,0.0,0.0,0.0,0.0,0.0,0.0,0.0,0.0,0.0,0.0,0.0,0.0,0.0,0.0,0.0,0.0,0.0,0.0,0.0,0.0,0.0,0.0,0.0,0.0,0.0,0.0,0.0,0.0,0.0,0.0,0.0,0.0,0.0,0.0,0.0,0.0,0.0,0.0,0.0,0.0,0.0,0.0,0.0,0.0,0.0,0.0,0.0,0.0,0.0,0.0,0.0,0.0,0.0,0.0,0.0,0.0,0.0,0.0,0.0,0.0,0.0,0.0,0.0,0.0,0.0,0.0,0.0,0.0,0.0,0.0,0.0,0.0,0.0,0.0,0.0,0.0,0.0,0.0,0.0,0.0,0.0,0.0,0.0,0.0,0.0,0.0,0.0,0.0,0.0,0.0,0.0,0.0,0.0,0.0,0.0,0.0,0.0,0.0,0.0,0.0,0.0,0.0,0.0,0.0,0.0,0.0,0.0,0.0,0.0,0.0,0.0,0.0,0.0,0.0,0.0,0.0,0.0,0.0,0.0,0.0,0.0,0.0,0.0,0.0,0.0,0.0,0.0,0.0,0.0,0.0,0.0,0.0,0.0,0.0,0.0,0.0,0.0,0.0,0.0,0.0,0.0,0.0,0.0,0.0,0.0,0.0,0.0,0.0,0.0,0.0,0.0,0.0,0.0,0.0,0.0,0.0,0.0,0.0,0.0,0.0,0.0,0.0,0.0,0.0,0.0,0.0,0.0,0.0,0.0,0.0,0.0,0.0,0.0,0.0,0.0,0.0,0.0,0.0,0.0,0.0,0.0,0.0,0.0,0.0,0.0,0.0,0.0,0.0,0.0,0.0,0.0,0.0,0.0,0.0,0.0,0.0,0.0,0.0,0.0,0.0,0.0,0.0,0.0,0.0,0.0,0.0,0.0,0.0,0.0,0.0,0.0,0.0,0.0,0.0,0.0,0.0,0.0,0.0,0.0,0.0,0.0,0.0,0.0,0.0,0.0,0.0,0.0,0.0,0.0,0.0,0.0,0.0,0.0,0.0,0.0,0.0,0.0,0.0,0.0,0.0,0.0,0.0,0.0,0.0,0.0,0.0,0.0,0.0,0.0,0.0,0.0,0.0,0.0,0.0,0.0,0.0,0.0,0.0,0.0,0.0,0.0,0.0,0.0,0.0,0.0,0.0,0.0,0.0,0.0,0.0,0.0,0.0,0.0,0.0,0.0,0.0,0.0,0.0,0.0,0.0,0.0,0.0,0.0,0.0,0.0,0.0,0.0,0.0,0.0,0.0,0.0,0.0,0.0,0.0,0.0,0.0,0.0,0.0,0.0,0.0,0.0,0.0,0.0,0.0,0.0,0.0,0.0,0.0,0.0,0.0,0.0,0.0,0.0,0.0,0.0,0.0,0.0,0.0,0.0,0.0,0.0,0.0,0.0,0.0,0.0,0.0,0.0,0.0,0.0,0.0,0.0,0.0,0.0,0.0,0.0,0.0,0.0,0.0,0.0,0.0,0.0,0.0,0.0,0.0,0.0,0.0,0.0,0.0,0.0,0.0,0.0,0.0,0.0,0.0,0.0,0.0,0.0,0.0,0.0,0.0,0.0,0.0,0.0,0.0,0.0,0.0,0.0,0.0,0.0,0.0,0.0,0.0,0.0,0.0,0.0,0.0,0.0,0.0,0.0,0.0,0.0,0.0,0.0,0.0,0.0,0.0,0.0,0.0,0.0,0.0,0.0,0.0,0.0,0.0,0.0,0.0,0.0,0.0,0.0,0.0,0.0,0.0,0.0,0.0,0.0,0.0,0.0,0.0,0.0,0.0,0.0,0.0,0.0,0.0,0.0,0.0,0.0,0.0,0.0,0.0,0.0,0.0,0.0,0.0,0.0,0.0,0.0,0.0,0.0,0.0,0.0,0.0,0.0,0.0,0.0,0.0,0.0,0.0,0.0,0.0,0.0,0.0,0.0,0.0,0.0,0.0,0.0,0.0,0.0,0.0,0.0,0.0,0.0,0.0,0.0,0.0,0.0,0.0,0.0,0.0,0.0,0.0,0.0,0.0,0.0,0.0,0.0,0.0,0.0,0.0,0.0,0.0,0.0,0.0,0.0,0.0,0.0,0.0,0.0,0.0,0.0,0.0,0.0,0.0,0.0,0.0,0.0,0.0,0.0,0.0,0.0,0.0,0.0,0.0,0.0,0.0,0.0,0.0,0.0,0.0,0.0,0.0,0.0,0.0,0.0,0.0,0.0,0.0,0.0,0.0,0.0,0.0,0.0,0.0,0.0,0.0,0.0,0.0,0.0,0.0,0.0,0.0,0.0,0.0,0.0,0.0,0.0,0.0,0.0,0.0,0.0,0.0,0.0,0.0,0.0,0.0,0.0,0.0,0.0,0.0,0.0,0.0,0.0,0.0,0.0,0.0,0.0,0.0,0.0,0.0,0.0,0.0,0.0,0.0,0.0,0.0,0.0,0.0,0.0,0.0,0.0,0.0,0.0,0.0,0.0,0.0,0.0,0.0,0.0,0.0,0.0,0.0,0.0,0.0,0.0,0.0,0.0,0.0,0.0,0.0,0.0,0.0,0.0,0.0,0.0,0.0,0.0,0.0,0.0,0.0,0.0,0.0,0.0,0.0,0.0,0.0,0.0,0.0,0.0,0.0,0.0,0.0,0.0,0.0,0.0,0.0,0.0,0.0,0.0,0.0,0.0,0.0,0.0,0.0,0.0,0.0,0.0,0.0,0.0,0.0,0.0,0.0,0.0,0.0,0.0,0.0,0.0,0.0,0.0,0.0,0.0,0.0,0.0,0.0,0.0,0.0,0.0,0.0,0.0,0.0,0.0,0.0,0.0,0.0,0.0,0.0,0.0,0.0,0.0,0.0,0.0,0.0,0.0,0.0,0.0,0.0,0.0,0.0,0.0,0.0,0.0,0.0,0.0,0.0,0.0,0.0,0.0,0.0,0.0,0.0,0.0,0.0,0.0,0.0,0.0,0.0,0.0,0.0,0.0,0.0,0.0,0.0,0.0,0.0,0.0,0.0,0.0,0.0,0.0,0.0,0.0,0.0,0.0,0.0,0.0,0.0,0.0,0.0,0.0,0.0,0.0,0.0,0.0,0.0,0.0,0.0,0.0,0.0,0.0,0.0,0.0,0.0,0.0,0.0,0.0,0.0,0.0,0.0,0.0,0.0,0.0,0.0,0.0,0.0,0.0,0.0,0.0,0.0,0.0,0.0,0.0,0.0,0.0,0.0,0.0,0.0,0.0,0.0,0.0,0.0,0.0,0.0,0.0,0.0,0.0,0.0,0.0,0.0,0.0,0.0,0.0,0.0,0.0,0.0,0.0,0.0,0.0,0.0,0.0,0.0,0.0,0.0,0.0,0.0,0.0,0.0,0.0,0.0,0.0,0.0,0.0,0.0,0.0,0.0,0.0,0.0,0.0,0.0,0.0,0.0,0.0,0.0,0.0,0.0,0.0,0.0,0.0,0.0,0.0,0.0,0.0,0.0,0.0,0.0,0.0,0.0,0.0,0.0,0.0,0.0,0.0,0.0,0.0,0.0,0.0,0.0,0.0,0.0,0.0,0.0,0.0,0.0,0.0,0.0,0.0,0.0,0.0,0.0,0.0,0.0,0.0,0.0,0.0,0.0,0.0,0.0,0.0,0.0,0.0,0.0,0.0,0.0,0.0,0.0,0.0,0.0,0.0,0.0,0.0,0.0,0.0,0.0,0.0,0.0,0.0,0.0,0.0,0.0,0.0,0.0,0.0,0.0,0.0,0.0,0.0,0.0,0.0,0.0,0.0,0.0,0.0,0.0,0.0,0.0,0.0,0.0,0.0,0.0,0.0,0.0,0.0,0.0,0.0,0.0,0.0,0.0,0.0,0.0,0.0,0.0,0.0,0.0,0.0,0.0,0.0,0.0,0.0,0.0,0.0,0.0,0.0,0.0,0.0,0.0,0.0,0.0,0.0,0.0,0.0,0.0,0.0,0.0,0.0,0.0,0.0,0.0,0.0,0.0,0.0,0.0,0.0,0.0,0.0,0.0,0.0,0.0,0.0,0.0,0.0,0.0,0.0,0.0,0.0,0.0,0.0,0.0,0.0,0.0,0.0,0.0,0.0,0.0,0.0,0.0,0.0,0.0,0.0,0.0,0.0,0.0,0.0,0.0,0.0,0.0,0.0,0.0,0.0,0.0,0.0,0.0,0.0,0.0,0.0,0.0,0.0,0.0,0.0,0.0,0.0,0.0,0.0,0.0,0.0,0.0,0.0,0.0,0.0,0.0,0.0,0.0,0.0,-3.2569,-3.2525,0.0,0.0,0.0,0.0,0.0,0.0,0.0,0.0,0.0,0.0,0.0,0.0,0.0,0.0,0.0,0.0,0.0,0.0,0.0,0.0,0.0,0.0,0.0,0.0,0.0,0.0,0.0,0.0,0.0,0.0,0.0,0.0,0.0,0.0,0.0,0.0,0.0,0.0,0.0,0.0,0.0,0.0,0.0,0.0,0.0,0.0,0.0,0.0,0.0,0.0,0.0,0.0,0.0,0.0,0.0,0.0,0.0,0.0,0.0,0.0,0.0,0.0,0.0,0.0,0.0,0.0,0.0,0.0,0.0,0.0,0.0,0.0,0.0,0.0,0.0,0.0,0.0,0.0,0.0,0.0,0.0,0.0,0.0,0.0,0.0,0.0,0.0,0.0,0.0,0.0,0.0,0.0,0.0,0.0,0.0,0.0,0.0,0.0,0.0,0.0,0.0,0.0,0.0,0.0,0.0,0.0,0.0,0.0,0.0,0.0,0.0,0.0,0.0,0.0,-3.2022,-3.2022,0.0,0.0,0.0,0.0,0.0,0.0,0.0,0.0,0.0,0.0,0.0,0.0,0.0,0.0,0.0,0.0,0.0,0.0,0.0,0.0,0.0,0.0,0.0,0.0,0.0,0.0,0.0,0.0,0.0,0.0,0.0,0.0,0.0,0.0,0.0,0.0,0.0,0.0,0.0,0.0,0.0,0.0,0.0,0.0,0.0,0.0,0.0,0.0,0.0,0.0,0.0,0.0,0.0,0.0,0.0,0.0,0.0,0.0,0.0,0.0,0.0,0.0,0.0,0.0,0.0,0.0,0.0,0.0,0.0,0.0,0.0,0.0,0.0,0.0,0.0,0.0,0.0,0.0,0.0,0.0,0.0,0.0,0.0,0.0,0.0,0.0,0.0,0.0,0.0,0.0,0.0,0.0,0.0,0.0,0.0,0.0,0.0,0.0,0.0,0.0,0.0,0.0,0.0,0.0,0.0,0.0,0.0,0.0,-3.2863,-3.2612,-3.2252,-3.2339,-3.2154,-3.176,-3.1848,-3.1837,-3.176,-3.176,0.0,0.0,0.0,0.0,0.0,0.0,0.0,0.0,0.0,0.0,0.0,0.0,0.0,0.0,0.0,0.0,0.0,0.0,0.0,0.0,0.0,0.0,0.0,0.0,0.0,0.0,0.0,0.0,0.0,0.0,0.0,0.0,0.0,0.0,0.0,0.0,0.0,0.0,0.0,0.0,0.0,0.0,0.0,0.0,0.0,0.0,0.0,0.0,0.0,0.0,0.0,0.0,0.0,0.0,0.0,0.0,0.0,0.0,0.0,0.0,0.0,0.0,0.0,0.0,0.0,0.0,0.0,0.0,0.0,0.0,0.0,0.0,0.0,0.0,0.0,0.0,0.0,0.0,0.0,0.0,0.0,0.0,0.0,0.0,0.0,0.0,-2.4754,-2.61,0.0,0.0,0.0,0.0,0.0,0.0,0.0,0.0,0.0,0.0,0.0,0.0,0.0,-3.1186,-3.2114,-3.1763,-3.1922,-3.247,-3.2022,-3.1782,-3.1738,-3.2186,-3.235,-3.2306,-3.27,0.0,-3.2285,-3.2285,0.0,0.0,0.0,0.0,0.0,0.0,0.0,0.0,0.0,0.0,0.0,0.0,0.0,0.0,0.0,0.0,0.0,0.0,0.0,0.0,0.0,0.0,0.0,0.0,0.0,0.0,0.0,0.0,0.0,0.0,0.0,0.0,0.0,0.0,0.0,0.0,0.0,0.0,0.0,0.0,0.0,0.0,0.0,-1.829,-1.8297,-1.9074,0.0,0.0,0.0,0.0,0.0,0.0,0.0,0.0,0.0,0.0,0.0,0.0,0.0,0.0,0.0,0.0,0.0,0.0,0.0,0.0,0.0,0.0,0.0,0.0,0.0,0.0,0.0,0.0,0.0,0.0,0.0,0.0,0.0,0.0,0.0,0.0,0.0,0.0,0.0,-2.541,-2.61,-2.6699,-2.6986,-2.7081,0.0,0.0,0.0,0.0,0.0,0.0,0.0,0.0,0.0,-2.9984,-3.0191,-3.0705,-3.1434,-3.1116,-3.1219,-3.1761,-3.1793,-3.1804,-3.1826,-3.243,-3.2765,-3.2776,-3.2973,-3.3104,-3.3158,-3.2874,-3.2885,-3.3071,0.0,0.0,0.0,0.0,-3.086,-2.8653,0.0,0.0,0.0,0.0,0.0,0.0,0.0,0.0,0.0,0.0,0.0,0.0,0.0,0.0,0.0,0.0,0.0,0.0,0.0,0.0,0.0,0.0,0.0,0.0,0.0,0.0,0.0,0.0,0.0,0.0,0.0,0.0,0.0,0.0,0.0,0.0,-2.0078,-2.0189,-2.0189,0.0,0.0,0.0,0.0,0.0,0.0,0.0,0.0,0.0,0.0,0.0,0.0,0.0,0.0,0.0,0.0,0.0,0.0,0.0,0.0,0.0,0.0,0.0,0.0,0.0,0.0,0.0,0.0,0.0,0.0,0.0,0.0,0.0,0.0,0.0,0.0,0.0,0.0,-2.6602,-2.69,-2.6986,-2.7167,-2.7303,0.0,0.0,0.0,0.0,0.0,0.0,-2.929,-2.9415,-2.9642,-2.9984,-2.9994,-3.0203,-3.0724,-3.0505,-3.0662,-3.1309,-3.1747,-3.1973,-3.1997,-3.292,-3.3246,-3.3149,-3.3388,-3.365,-3.3945,-3.3453,-3.3322,-3.3442,-3.3442,-3.2878,-3.2211,-3.3106,-3.1881,-2.9986,0.0,0.0,0.0,0.0,0.0,0.0,0.0,0.0,0.0,0.0,0.0,0.0,0.0,0.0,0.0,0.0,0.0,0.0,0.0,0.0,0.0,0.0,0.0,0.0,0.0,0.0,0.0,0.0,0.0,0.0,0.0,0.0,0.0,0.0,0.0,0.0,0.0,-2.0403,-2.0522,-2.0514,0.0,0.0,0.0,0.0,0.0,0.0,0.0,0.0,0.0,0.0,0.0,0.0,0.0,0.0,0.0,0.0,0.0,0.0,0.0,0.0,0.0,0.0,0.0,0.0,0.0,0.0,0.0,0.0,0.0,0.0,0.0,0.0,0.0,0.0,0.0,0.0,0.0,0.0,0.0,-2.7262,-2.7262,0.0,0.0,0.0,0.0,-2.8545,-2.9011,-2.928,-2.9301,-2.9715,-2.9973,-2.9994,-2.9994,-3.0099,-3.0391,-3.0391,-3.0821,-3.1466,-3.1793,-3.204,-3.2189,-3.3323,-3.3639,-3.3332,-3.414,-3.4458,-3.4447,-3.3956,-3.4032,-3.4447,-3.4447,-3.3866,-3.317,-3.4101,-3.3293,-3.1687,0.0,0.0,0.0,0.0,0.0,0.0,0.0,0.0,0.0,0.0,0.0,0.0,0.0,0.0,0.0,0.0,0.0,0.0,0.0,0.0,0.0,0.0,0.0,0.0,0.0,0.0,0.0,0.0,0.0,0.0,0.0,0.0,0.0,0.0,0.0,0.0,0.0,0.0,-2.0719,-2.0719,-2.0822,-2.0822,0.0,0.0,0.0,0.0,0.0,0.0,0.0,0.0,0.0,0.0,0.0,0.0,0.0,0.0,0.0,0.0,0.0,0.0,0.0,0.0,0.0,0.0,0.0,0.0,0.0,0.0,0.0,0.0,0.0,0.0,0.0,0.0,0.0,0.0,0.0,0.0,0.0,-2.7262,-2.751,0.0,-2.7903,-2.8462,-2.8876,-2.9052,-2.9487,-2.9746,-2.9746,-2.9911,-2.9994,-2.9994,-2.9994,-3.0088,-3.0391,-3.0495,-3.0831,-3.1307,-3.1909,-3.2289,-3.2469,-3.3501,-3.3939,-3.3828,-3.4336,-3.4524,-3.4513,-3.4338,-3.4371,-3.4524,-3.4524,-3.4289,-3.4054,-3.4412,-3.3706,-3.255,0.0,0.0,0.0,0.0,0.0,0.0,0.0,0.0,0.0,0.0,0.0,0.0,0.0,0.0,0.0,0.0,0.0,0.0,0.0,0.0,0.0,0.0,0.0,0.0,0.0,0.0,0.0,0.0,0.0,0.0,0.0,0.0,0.0,0.0,0.0,0.0,0.0,0.0,0.0,0.0,-2.0925,-2.0925,-2.0925,0.0,0.0,0.0,0.0,0.0,0.0,0.0,0.0,0.0,0.0,0.0,0.0,0.0,0.0,0.0,0.0,0.0,0.0,0.0,0.0,0.0,0.0,0.0,0.0,0.0,0.0,0.0,0.0,0.0,0.0,0.0,0.0,0.0,0.0,-2.7167,-2.7314,-2.7469,-2.7738,-2.8048,-2.8359,-2.8949,-2.9373,-2.9528,-2.9818,-2.9994,-2.9994,-2.9994,-2.9994,-2.9994,-2.9994,-3.0172,-3.0527,-3.0639,-3.094,-3.1458,-3.2196,-3.2462,-3.2629,-3.3487,-3.3861,-3.3861,-3.4076,-3.43,-3.4423,-3.4423,-3.4412,-3.4524,-3.4524,-3.4524,-3.4524,-3.4524,-3.4054,-3.3356,0.0,0.0,0.0,0.0,0.0,0.0,0.0,0.0,0.0,0.0,0.0,0.0,0.0,0.0,0.0,0.0,0.0,0.0,0.0,0.0,0.0,0.0,0.0,0.0,0.0,0.0,0.0,0.0,0.0,0.0,0.0,0.0,0.0,0.0,0.0,0.0,0.0,0.0,0.0,0.0,0.0,-2.0925,-2.0925,0.0,0.0,0.0,0.0,0.0,0.0,0.0,0.0,0.0,0.0,0.0,0.0,0.0,0.0,0.0,0.0,0.0,0.0,0.0,0.0,0.0,0.0,0.0,0.0,0.0,0.0,0.0,0.0,0.0,0.0,0.0,0.0,0.0,-2.7262,-2.7272,-2.7438,-2.7872,-2.7945,-2.8317,-2.9218,-2.9321,-2.9508,-2.9963,-2.9994,-2.9994,-2.9994,-2.9994,-2.9994,-2.9994,-3.0005,-3.0232,-3.0677,-3.0719,-3.1174,-3.2043,-3.2399,-3.2527,-3.2737,-3.3296,-3.3409,-3.3193,-3.3523,-3.3749,-3.4086,-3.4086,-3.4311,-3.4524,-3.4524,-3.4524,-3.4524,-3.4524,-3.4412,-3.4177,0.0,0.0,0.0,0.0,0.0,0.0,0.0,0.0,0.0,0.0,0.0,0.0,0.0,0.0,0.0,0.0,0.0,0.0,0.0,0.0,0.0,0.0,0.0,0.0,0.0,0.0,0.0,0.0,0.0,0.0,0.0,0.0,0.0,0.0,0.0,0.0,0.0,0.0,0.0,0.0,0.0,0.0,-2.0925,0.0,0.0,0.0,0.0,0.0,0.0,0.0,0.0,0.0,0.0,0.0,0.0,0.0,0.0,0.0,0.0,0.0,0.0,0.0,0.0,0.0,0.0,0.0,0.0,0.0,0.0,0.0,0.0,0.0,0.0,0.0,-2.7262,-2.7262,-2.7262,-2.7541,-2.779,-2.7914,-2.8514,-2.9021,-2.928,-2.9611,-2.986,-2.9984,-2.9994,-2.9994,-2.9994,-2.9994,-2.9994,-2.9994,-3.0325,-3.0553,-3.0688,-3.134,-3.1795,-3.2043,-3.2385,-3.2602,-3.2727,-3.3069,-3.3306,-3.3193,-3.3523,-3.3749,-3.4086,-3.4086,-3.4311,-3.4524,-3.4524,-3.4524,-3.4524,-3.4524,-3.3706,-3.2436,0.0,0.0,0.0,0.0,0.0,0.0,0.0,0.0,0.0,0.0,0.0,0.0,0.0,0.0,0.0,0.0,0.0,0.0,0.0,0.0,0.0,0.0,0.0,0.0,0.0,0.0,0.0,0.0,0.0,0.0,0.0,0.0,0.0,0.0,0.0,0.0,0.0,0.0,0.0,0.0,0.0,0.0,-2.0925,-2.0925,-2.0925,-2.0925,-2.0925,-2.0925,-2.0925,-2.0925,0.0,0.0,0.0,0.0,0.0,0.0,0.0,0.0,0.0,0.0,0.0,0.0,0.0,0.0,0.0,0.0,0.0,0.0,0.0,0.0,0.0,0.0,0.0,0.0,-2.7541,-2.7603,-2.78,-2.7883,-2.8069,-2.8452,-2.898,-2.9384,-2.957,-2.9839,-2.9994,-2.9994,-2.9994,-2.9994,-2.9994,-2.9994,-3.0087,-3.0284,-3.0553,-3.0874,-3.1247,-3.1774,-3.2137,-3.2333,-3.2602,-3.2727,-3.2737,-3.2851,-3.2965,-3.2965,-3.3182,-3.3409,-3.3749,-3.3749,-3.3974,-3.4311,0.0,0.0,0.0,0.0,-3.3016,-3.1747,0.0,0.0,0.0,0.0,0.0,0.0,0.0,0.0,0.0,0.0,0.0,0.0,0.0,0.0,0.0,0.0,0.0,0.0,0.0,0.0,0.0,0.0,0.0,0.0,0.0,0.0,0.0,0.0,0.0,0.0,0.0,0.0,0.0,0.0,0.0,0.0,0.0,0.0,0.0,0.0,0.0,0.0,-2.0609,-2.0712,-2.0719,-2.0814,-2.0917,-2.0925,-2.0925,-2.0925,0.0,0.0,0.0,0.0,0.0,0.0,0.0,0.0,0.0,0.0,0.0,0.0,0.0,0.0,0.0,0.0,0.0,0.0,0.0,0.0,0.0,0.0,0.0,0.0,-2.7966,-2.8162,-2.8628,-2.8338,-2.838,-2.9208,-2.9352,-2.9539,-2.9953,-2.9994,-2.9994,-2.9994,-2.9994,-2.9994,-2.9994,-3.0046,0.0,0.0,0.0,-3.1226,-3.2033,-3.2095,-3.2323,-3.2727,-3.2727,-3.2727,-3.2727,-3.2727,-3.2727,-3.2727,-3.2727,-3.2851,-3.3193,-3.3193,-3.3533,-3.4086,-3.4412,-3.4524,-3.4412,-3.3582,-3.2664,-3.1872,0.0,0.0,0.0,0.0,0.0,0.0,0.0,0.0,0.0,0.0,0.0,0.0,0.0,0.0,0.0,0.0,0.0,0.0,0.0,0.0,0.0,0.0,0.0,0.0,0.0,0.0,0.0,0.0,0.0,0.0,0.0,0.0,0.0,0.0,0.0,0.0,0.0,0.0,0.0,0.0,0.0,0.0,-1.8945,-1.968,-1.9887,-1.999,-2.0719,-2.0925,-2.0925,-2.0925,-2.0925,-2.0925,-2.0925,0.0,0.0,0.0,0.0,0.0,0.0,0.0,0.0,0.0,0.0,0.0,0.0,0.0,0.0,0.0,0.0,0.0,0.0,0.0,0.0,-2.7914,-2.8235,-2.8638,-2.9104,-2.9094,-2.9104,-2.929,-2.9632,-2.9891,-2.9984,-2.9994,-2.9994,-2.9994,-2.9994,-2.9994,-2.9994,-3.0346,-3.0594,-3.0688,-3.1391,-3.1857,-3.2043,-3.2416,-3.2644,-3.2727,-3.2727,0.0,-3.2727,-3.2727,-3.2727,-3.2727,-3.2727,-3.2851,-3.3193,-3.3193,-3.342,-3.3749,-3.43,-3.4524,-3.4524,-3.4289,-3.3593,-3.2716,0.0,0.0,0.0,0.0,0.0,0.0,0.0,0.0,0.0,0.0,0.0,0.0,0.0,0.0,0.0,0.0,0.0,0.0,0.0,0.0,0.0,0.0,0.0,0.0,0.0,0.0,0.0,0.0,0.0,0.0,0.0,0.0,0.0,0.0,0.0,0.0,0.0,0.0,0.0,0.0,0.0,0.0,-1.7891,-1.9257,-1.968,-1.9783,-2.0609,-2.0925,-2.0925,-2.0925,-2.0925,-2.0925,-2.0719,-2.0822,-2.0814,0.0,0.0,0.0,0.0,0.0,0.0,0.0,0.0,0.0,0.0,0.0,0.0,0.0,0.0,-2.7324,-2.7552,0.0,-2.8644,-2.8634,-2.9284,-2.9701,-2.9683,-2.9653,-2.9653,-2.9653,-2.986,-2.9994,-2.9994,-2.9994,-2.9994,-2.9994,-2.9994,-3.0098,-3.0325,-3.0563,-3.0895,-3.135,-3.1805,-3.2147,-3.2385,-3.2613,-3.2727,-3.2727,-3.2727,-3.2727,-3.2727,-3.2727,-3.2727,-3.2727,-3.2727,-3.2851,-3.2955,-3.3296,-3.3409,-3.3523,-3.4188,-3.4412,-3.4332,-3.4221,-3.3601,-3.2731,0.0,0.0,0.0,0.0,0.0,0.0,0.0,0.0,0.0,0.0,0.0,0.0,0.0,0.0,0.0,0.0,0.0,0.0,0.0,0.0,0.0,0.0,0.0,0.0,0.0,0.0,0.0,0.0,0.0,0.0,0.0,0.0,0.0,0.0,0.0,0.0,0.0,0.0,0.0,0.0,0.0,0.0,-1.7147,-1.8833,-1.9576,-1.9783,-2.0609,-2.0925,-2.0917,-2.0822,-2.0822,-2.0822,-2.0514,-2.0712,-2.1011,-2.0285,-2.2089,0.0,0.0,0.0,0.0,0.0,0.0,0.0,0.0,-2.7262,-2.7262,-2.7262,-2.7324,-2.75,-2.7852,-2.8741,-2.9396,-2.9278,-3.0056,-3.0542,-3.0047,-2.9994,-2.9994,-2.9994,-2.9994,-2.9994,-2.9994,-2.9994,-2.9994,-2.9994,-2.9994,-3.0191,-3.0657,-3.077,-3.1195,-3.2012,-3.2126,-3.2354,-3.2727,-3.2727,-3.2727,-3.2727,-3.2727,-3.2727,-3.2727,-3.2727,-3.2727,-3.2727,-3.2727,-3.2727,-3.2727,-3.3172,-3.3296,-3.3203,-3.406,-3.4216,-3.4043,-3.4063,-3.3663,-3.2977,0.0,0.0,0.0,0.0,0.0,0.0,0.0,0.0,0.0,0.0,0.0,0.0,0.0,0.0,0.0,0.0,0.0,0.0,0.0,0.0,0.0,0.0,0.0,0.0,0.0,0.0,0.0,0.0,0.0,0.0,0.0,0.0,0.0,0.0,0.0,0.0,0.0,0.0,0.0,0.0,0.0,0.0,-1.6205,-1.7891,-1.9049,-1.9783,-2.0609,-2.0925,-2.0822,-2.0624,-2.0522,-2.0514,-2.0197,-2.0987,-2.1692,-2.0483,0.0,-2.4992,-2.3989,-2.547,-2.7262,-2.7262,-2.7262,-2.7262,0.0,-2.7262,-2.7262,-2.7262,-2.7572,-2.7862,-2.7914,-2.8686,-2.9278,-2.929,-2.9746,-3.0037,-2.9994,-2.9994,-2.9994,-2.9994,-2.9994,-2.9994,-2.9994,-2.9994,-2.9994,-2.9994,-2.9994,-3.0191,-3.0657,-3.1081,-3.1526,-3.2023,-3.2437,-3.2685,-3.2727,-3.2727,-3.2727,-3.2727,-3.2727,-3.2727,-3.2727,-3.2727,-3.2727,-3.2727,-3.2727,-3.2727,-3.2737,-3.2727,-3.2727,-3.2882,-3.3602,-3.3886,-3.3907,-3.4432,-3.4941,-3.5115,0.0,0.0,0.0,0.0,0.0,0.0,0.0,0.0,0.0,0.0,0.0,0.0,0.0,0.0,0.0,0.0,0.0,0.0,0.0,0.0,0.0,0.0,0.0,0.0,0.0,0.0,0.0,0.0,0.0,0.0,0.0,0.0,0.0,0.0,0.0,0.0,0.0,0.0,0.0,0.0,0.0,0.0,-1.5648,-1.6387,-1.7654,-1.9138,-2.0292,-2.0617,0.0,0.0,-2.03,-2.0197,-1.9983,-2.038,-2.0885,-2.0688,-2.2291,0.0,-2.5294,-2.6284,-2.7081,-2.7262,-2.7262,-2.7262,-2.7262,-2.7262,-2.7334,-2.7593,-2.779,-2.809,-2.8628,-2.9526,-3.0077,-2.9756,-3.0369,-3.0692,-3.0099,-2.9994,-2.9994,-2.9994,-2.9994,-2.9994,-2.9994,-2.9994,-2.9994,-2.9994,-3.0243,-3.0594,-3.106,-3.1516,-3.1971,-3.2426,-3.2633,-3.2727,-3.2727,-3.2727,-3.2727,-3.2727,-3.2727,-3.2727,-3.2727,-3.2727,-3.2727,-3.2727,-3.2727,-3.2727,-3.2737,-3.2955,-3.2851,-3.2778,-3.3676,-3.4011,-3.406,-3.504,-3.5253,-3.4998,0.0,0.0,0.0,0.0,0.0,0.0,0.0,0.0,0.0,0.0,0.0,0.0,0.0,0.0,0.0,0.0,0.0,0.0,0.0,0.0,0.0,0.0,0.0,0.0,0.0,0.0,0.0,0.0,0.0,0.0,0.0,0.0,0.0,0.0,0.0,0.0,0.0,0.0,0.0,0.0,0.0,0.0,-1.5108,-1.5316,-1.648,-1.8185,-1.9457,-2.0094,0.0,0.0,-1.9983,-1.9983,-1.968,-1.9983,-2.0483,-2.0783,-2.219,-2.4088,-2.6197,-2.6805,-2.6996,-2.7262,-2.7262,-2.7262,-2.7262,-2.7355,-2.7531,-2.7852,-2.8121,-2.8504,-2.9177,-3.0088,-3.0483,-3.0037,-3.0692,-3.0888,-3.0099,-2.9994,-2.9994,-2.9994,-2.9994,-2.9994,-2.9994,-2.9994,-3.0046,-3.018,-3.0501,-3.0936,-3.1526,-3.1868,-3.225,-3.2716,-3.2727,-3.2727,-3.2727,-3.2727,-3.2727,-3.2727,-3.2727,-3.2727,-3.2727,-3.2727,-3.2727,-3.2727,-3.2727,-3.2727,-3.2737,-3.2965,-3.2965,-3.2789,-3.3823,-3.4146,-3.4253,-3.5197,-3.5418,-3.5216,0.0,0.0,0.0,0.0,0.0,0.0,0.0,0.0,0.0,0.0,0.0,0.0,0.0,0.0,0.0,0.0,0.0,0.0,0.0,0.0,0.0,0.0,0.0,0.0,0.0,0.0,0.0,0.0,0.0,0.0,0.0,0.0,0.0,0.0,0.0,0.0,0.0,0.0,0.0,0.0,0.0,0.0,-1.4272,-1.5102,-1.6168,-1.7239,-1.8178,0.0,0.0,0.0,-1.968,-1.968,-1.9376,-2.0181,0.0,-2.0987,-2.2584,-2.4786,-2.61,-2.6699,-2.6996,-2.7262,-2.7262,-2.7262,-2.7262,-2.7593,-2.7903,-2.7924,-2.8638,-2.927,-2.9301,-2.9673,-2.9973,-2.9994,-2.9994,-2.9994,-2.9994,-2.9994,-2.9994,-2.9994,-2.9994,-2.9994,-2.9994,-2.9994,-3.018,-3.0626,-3.0677,-3.1081,-3.1971,-3.2033,-3.225,-3.2716,-3.2727,-3.2727,-3.2727,-3.2727,-3.2727,-3.2727,-3.2727,-3.2727,-3.2727,-3.2727,-3.2727,-3.2727,-3.2727,-3.2727,-3.2727,-3.2727,-3.2727,-3.282,-3.3699,-3.4051,-3.4176,-3.5076,-3.5777,-3.6156,0.0,0.0,0.0,0.0,0.0,0.0,0.0,0.0,0.0,0.0,0.0,0.0,0.0,0.0,0.0,0.0,0.0,0.0,0.0,0.0,0.0,0.0,0.0,0.0,0.0,0.0,0.0,0.0,0.0,0.0,0.0,0.0,0.0,0.0,0.0,0.0,0.0,0.0,0.0,0.0,0.0,0.0,-1.3088,-1.3295,-1.4153,-1.5334,0.0,0.0,0.0,0.0,0.0,0.0,-1.9383,-2.0078,-2.1285,-2.2584,-2.4106,-2.5421,-2.61,-2.64,-2.6699,-2.6986,-2.7393,-2.7696,-2.7696,-2.8048,-2.8473,-2.8773,-2.9083,-2.9404,-2.9704,-2.9891,-2.9994,-2.9994,-2.9994,-2.9994,-2.9994,-2.9994,-2.9994,-2.9994,-2.9994,-2.9994,-2.9994,-2.9994,-3.0191,-3.0646,-3.0967,-3.1412,-3.2012,-3.2333,-3.2571,-3.2727,-3.2727,-3.2727,-3.2727,-3.2727,-3.2727,-3.2727,-3.2727,-3.2727,-3.2727,-3.2727,-3.2727,-3.2727,-3.2727,-3.2727,-3.2727,-3.2727,-3.2727,-3.282,-3.372,-3.4072,-3.4176,-3.5086,-3.5675,-3.5921,0.0,0.0,0.0,0.0,0.0,0.0,0.0,0.0,0.0,0.0,0.0,0.0,0.0,0.0,0.0,0.0,0.0,0.0,0.0,0.0,0.0,0.0,0.0,0.0,0.0,0.0,0.0,0.0,0.0,0.0,0.0,0.0,0.0,0.0,0.0,0.0,0.0,0.0,0.0,0.0,0.0,0.0,-1.2441,-1.2441,-1.3197,0.0,0.0,0.0,0.0,0.0,0.0,-1.9279,-1.9279,-2.0285,-2.1785,-2.3592,-2.4815,-2.5732,-2.6004,-2.6197,-2.644,-2.6988,-2.7426,-2.7868,-2.8131,-2.8524,-2.8949,-2.9239,-2.9435,-2.9642,-2.9942,-2.9994,-2.9994,-2.9994,-2.9994,-2.9994,-2.9994,-2.9994,-2.9994,-2.9994,-2.9994,-3.0056,-3.0222,-3.0243,-3.0429,-3.0895,-3.136,-3.1805,-3.2261,-3.2571,-3.2727,-3.2727,-3.2727,-3.2727,-3.2727,-3.2727,-3.2727,-3.2727,-3.2727,-3.2727,-3.2727,-3.2727,-3.2727,-3.2727,-3.2727,-3.2727,-3.2727,-3.2727,-3.282,-3.3037,-3.3772,-3.4165,-3.4403,-3.5148,-3.5552,-3.5675,0.0,0.0,0.0,0.0,0.0,0.0,0.0,0.0,0.0,0.0,0.0,0.0,0.0,0.0,0.0,0.0,0.0,0.0,0.0,0.0,0.0,0.0,0.0,0.0,0.0,0.0,0.0,0.0,0.0,0.0,0.0,0.0,0.0,0.0,0.0,0.0,0.0,0.0,0.0,0.0,0.0,0.0,-1.2441,-1.2441,0.0,0.0,0.0,0.0,0.0,0.0,-1.9279,-1.9272,-1.948,-2.0885,-2.2685,-2.389,-2.4913,-2.5742,-2.6033,-2.613,-2.6336,-2.7364,-2.7594,-2.7815,-2.8445,-2.9011,-2.9342,-2.9342,-2.9684,-2.9994,-2.9994,-2.9994,-2.9994,-2.9994,-2.9994,-2.9994,-2.9994,-2.9994,-2.9994,-2.9994,-3.0015,-3.0201,-3.0646,-3.0729,-3.0936,-3.1381,-3.1795,-3.224,-3.2706,-3.2727,-3.2727,-3.2727,-3.2727,-3.2727,-3.2727,-3.2727,-3.2727,-3.2727,-3.2727,-3.2727,-3.2727,-3.2727,-3.2727,-3.2727,-3.2727,-3.2727,-3.2727,-3.2727,-3.2985,-3.342,-3.3886,-3.4352,-3.4817,-3.5262,-3.5418,-3.5294,0.0,0.0,0.0,0.0,0.0,0.0,0.0,0.0,0.0,0.0,0.0,0.0,0.0,0.0,0.0,0.0,0.0,0.0,0.0,0.0,0.0,0.0,0.0,0.0,0.0,0.0,0.0,0.0,0.0,0.0,0.0,0.0,0.0,0.0,0.0,0.0,0.0,0.0,0.0,0.0,0.0,0.0,-1.2441,0.0,0.0,0.0,0.0,0.0,0.0,0.0,-1.9279,-1.9576,-2.1183,-2.2089,-2.2894,-2.4716,-2.5528,-2.581,-2.6231,-2.6389,-2.6675,-2.7322,-2.7996,-2.8594,-2.8809,-2.9291,-2.9818,-2.9818,-2.9911,-2.9994,-2.9994,-2.9994,-2.9994,-2.9994,-2.9994,-2.9994,-2.9994,-2.9994,-2.9994,-2.9994,-3.0305,-3.0553,-3.0677,-3.1298,-3.1743,-3.1868,-3.1971,-3.224,-3.2706,-3.2727,-3.2727,-3.2727,-3.2727,-3.2727,-3.2727,-3.2727,-3.2727,-3.2727,-3.2727,-3.2727,-3.2727,-3.2727,-3.2727,-3.2727,-3.2727,-3.2727,-3.2727,-3.2727,-3.2985,-3.342,-3.3886,-3.4352,-3.4817,-3.5262,-3.5418,-3.5294,0.0,0.0,0.0,0.0,0.0,0.0,0.0,0.0,0.0,0.0,0.0,0.0,0.0,0.0,0.0,0.0,0.0,0.0,0.0,0.0,0.0,0.0,0.0,0.0,0.0,0.0,0.0,0.0,0.0,0.0,0.0,0.0,0.0,0.0,0.0,0.0,0.0,0.0,0.0,0.0,0.0,0.0,0.0,0.0,0.0,0.0,0.0,0.0,0.0,0.0,-1.9396,-1.9576,-2.1285,-2.2198,-2.3138,-2.479,-2.5746,-2.6357,-2.6592,-2.6751,-2.694,-2.7578,-2.8194,-2.8859,-2.9156,-2.9599,-2.9994,-2.9994,-2.9994,-2.9994,-2.9994,-2.9994,-2.9994,-2.9994,-2.9994,-2.9994,-2.9994,-2.9994,-3.0067,-3.0274,-3.0532,-3.0843,-3.1236,-3.1743,-3.2126,-3.2333,-3.2344,-3.2457,-3.2716,-3.2727,-3.2727,-3.2727,-3.2727,-3.2727,-3.2727,-3.2727,-3.2727,-3.2727,-3.2727,-3.2727,-3.2727,-3.2727,-3.2727,-3.2727,-3.2727,-3.2727,-3.2727,-3.2727,-3.311,-3.3699,-3.3969,-3.4465,-3.5076,-3.5335,-3.5036,-3.4278,0.0,0.0,0.0,0.0,0.0,0.0,0.0,0.0,0.0,0.0,0.0,0.0,0.0,0.0,0.0,0.0,0.0,0.0,0.0,0.0,0.0,0.0,0.0,0.0,0.0,0.0,0.0,0.0,0.0,0.0,0.0,0.0,0.0,0.0,0.0,0.0,0.0,0.0,0.0,0.0,0.0,0.0,0.0,0.0,0.0,0.0,0.0,0.0,0.0,0.0,-1.9714,-1.9546,-2.0703,-2.2039,-2.3427,-2.4497,-2.5888,-2.7021,-2.709,-2.71,-2.73,-2.793,-2.8351,-2.8773,-2.9357,-2.9774,-2.9994,-2.9994,-2.9994,-2.9994,-2.9994,-2.9994,-2.9994,-2.9994,-2.9994,-2.9994,-2.9994,-3.0046,-3.0232,-3.0636,-3.0791,-3.1174,-3.1971,-3.2095,-3.2302,-3.2696,-3.2727,-3.2727,-3.2727,-3.2727,-3.2727,-3.2727,-3.2727,-3.2727,-3.2727,-3.2727,-3.2727,-3.2727,-3.2727,-3.2727,-3.2727,-3.2727,-3.2727,-3.2727,-3.2727,-3.2727,-3.2727,-3.2727,-3.3254,-3.4072,-3.4072,-3.45,-3.517,-3.517,-3.4268,-3.299,0.0,0.0,0.0,0.0,0.0,0.0,0.0,0.0,0.0,0.0,-1.8112,-1.7805,0.0,0.0,0.0,0.0,0.0,0.0,0.0,0.0,0.0,0.0,0.0,0.0,0.0,0.0,0.0,0.0,0.0,0.0,0.0,0.0,0.0,0.0,0.0,0.0,0.0,0.0,0.0,0.0,0.0,0.0,0.0,0.0,0.0,0.0,0.0,0.0,0.0,0.0,-2.016,-1.9931,-2.1238,-2.2519,-2.3721,-2.4765,-2.5994,-2.709,-2.7451,-2.7559,-2.7656,-2.8182,-2.8599,-2.9041,-2.9112,-2.9564,-2.9994,-2.9994,-2.9994,-2.9994,-2.9994,-2.9994,-2.9994,-2.9994,-2.9994,-2.9994,-2.9994,-3.0325,-3.0594,-3.0677,-3.135,-3.1868,-3.2033,-3.2385,-3.2644,-3.2727,-3.2727,-3.2727,-3.2727,-3.2727,-3.2727,-3.2727,-3.2727,-3.2727,-3.2727,-3.2727,-3.2727,-3.2727,-3.2727,-3.2727,-3.2727,-3.2727,-3.2727,-3.2727,-3.2727,-3.2727,-3.2727,-3.2727,-3.3254,-3.4072,-3.4072,-3.3994,-3.3766,-3.3766,-3.2863,-3.1579,0.0,0.0,0.0,0.0,0.0,0.0,0.0,-1.8969,-1.8885,-1.8885,-1.8541,-1.8245,-1.8106,-1.798,-1.7907,0.0,0.0,0.0,0.0,0.0,0.0,0.0,0.0,0.0,0.0,0.0,-1.366,-1.1623,0.0,0.0,0.0,-1.0222,-0.971,-0.8992,0.0,0.0,0.0,0.0,0.0,0.0,0.0,0.0,0.0,0.0,0.0,0.0,0.0,0.0,0.0,0.0,-2.0933,-2.0798,-2.131,-2.2798,-2.4429,-2.4968,-2.6512,-2.8133,-2.8351,-2.841,-2.846,-2.8658,-2.9026,-2.9343,-2.9343,-2.9669,-2.9994,-2.9994,-2.9994,-2.9994,-2.9994,-2.9994,-2.9994,-2.9994,-3.0191,-3.0356,-3.0356,-3.076,-3.1133,-3.136,-3.1774,-3.2137,-3.2375,-3.2602,-3.2727,-3.2727,-3.2727,-3.2727,-3.2727,-3.2727,-3.2727,-3.2727,-3.2727,-3.2727,-3.2727,-3.2727,-3.2727,-3.2727,-3.2727,-3.2727,-3.2727,-3.2727,-3.2727,-3.2727,-3.2727,-3.2727,-3.2727,-3.2727,-3.3022,-3.3585,-3.3585,-3.3516,-3.3398,-3.3398,-3.2502,-3.135,0.0,0.0,0.0,0.0,0.0,0.0,0.0,-1.9078,-1.9078,-1.9078,-1.8897,-1.8692,-1.8481,-1.836,-1.8294,0.0,0.0,0.0,0.0,0.0,0.0,0.0,0.0,0.0,0.0,0.0,0.0,-1.0232,-0.9957,0.0,0.0,0.0,0.0,0.0,-0.9217,-0.9035,-0.8932,0.0,0.0,0.0,0.0,-1.2938,0.0,0.0,0.0,0.0,0.0,0.0,0.0,0.0,-2.1823,-2.1777,-2.1618,-2.3211,-2.5164,-2.5164,-2.7012,-2.9132,-2.9132,-2.9132,-2.9132,-2.9132,-2.9343,-2.9554,-2.9554,-2.9774,-2.9994,-2.9994,-2.9994,-2.9994,-2.9994,-3.0077,-3.0149,-3.0149,-3.0532,-3.0833,-3.0833,-3.1226,-3.165,-3.2002,-3.2126,-3.2333,-3.2696,-3.2727,-3.2727,-3.2727,-3.2727,-3.2727,-3.2727,-3.2727,-3.2727,-3.2727,-3.2727,-3.2727,-3.2727,-3.2727,-3.2727,-3.2727,-3.2727,-3.2727,-3.2727,-3.2727,-3.2498,-3.2258,-3.2487,-3.2373,-3.2143,-3.2248,-3.2545,-3.2864,-3.2864,-3.2903,-3.2912,-3.2912,-3.2138,-3.0991,0.0,0.0,0.0,0.0,0.0,0.0,0.0,-1.9078,-1.9078,-1.9078,-1.9054,-1.903,-1.9006,-1.8577,-1.8294,0.0,0.0,0.0,0.0,0.0,0.0,0.0,0.0,0.0,0.0,0.0,0.0,-1.1868,-1.0494,0.0,0.0,0.0,0.0,0.0,0.0,-0.969,-0.968,-0.968,0.0,0.0,0.0,0.0,0.0,0.0,0.0,0.0,0.0,-1.9611,-1.9963,0.0,-2.2523,-2.2515,-2.271,-2.413,-2.5572,-2.5572,-2.7239,-2.9132,-2.9132,-2.9132,-2.9132,-2.9132,-2.9343,-2.9554,-2.9554,-2.9774,-2.9994,-2.9994,-2.9994,-2.9994,-2.9994,-3.0336,-3.0626,-3.0626,-3.1008,-3.1319,-3.1319,-3.1702,-3.1992,-3.2033,-3.2416,-3.2685,-3.2727,-3.2727,-3.2727,-3.2727,-3.2727,-3.2727,-3.2727,-3.2727,-3.2727,-3.2727,-3.2727,-3.2727,-3.2727,-3.2727,-3.2727,-3.2727,-3.2727,-3.2727,-3.2727,-3.2727,-3.2018,-3.1063,-3.1662,-3.1189,-3.0236,-3.0704,-3.1466,-3.2139,-3.2139,-3.1913,-3.1635,-3.1635,-3.0732,-2.9569,0.0,0.0,0.0,0.0,0.0,0.0,-1.9078,-1.9078,-1.9078,-1.9078,-1.9078,-1.9078,-1.9078,-1.8891,-1.8764,-1.8764,0.0,0.0,0.0,0.0,0.0,0.0,0.0,0.0,0.0,0.0,-1.4399,-1.2291,-1.1724,0.0,0.0,0.0,0.0,0.0,0.0,-0.9907,-0.9822,-0.9822,0.0,0.0,0.0,0.0,0.0,0.0,0.0,0.0,0.0,0.0,-2.027,-2.1524,-2.2328,-2.2909,-2.3014,-2.4428,-2.6164,-2.6164,-2.7257,-2.8678,-2.9448,-2.9669,-2.9669,-2.9669,-2.998,-3.0292,-3.0292,-3.0508,-3.0822,-3.0822,-3.0822,-3.0822,-3.0822,-3.0977,-3.1102,-3.1102,-3.1485,-3.1774,-3.1774,-3.2168,-3.2457,-3.2457,-3.2623,-3.2727,-3.2727,-3.2727,-3.2727,-3.2727,-3.2727,-3.2727,-3.2727,-3.2727,-3.2727,-3.2727,-3.2727,-3.2727,-3.2727,-3.2727,-3.2727,-3.2727,-3.2851,-3.2965,-3.2965,-3.2592,-3.2123,-3.1642,-3.1305,-3.0946,-3.047,-3.0704,-3.0955,-3.1165,-3.1424,-3.1264,-3.1047,-3.1295,-3.0991,-3.0602,0.0,0.0,0.0,0.0,0.0,-1.9078,-1.9078,-1.9078,-1.9078,-1.9078,-1.9078,-1.9078,-1.9078,-1.9078,-1.9078,-1.9078,-1.8909,0.0,0.0,0.0,0.0,0.0,0.0,0.0,0.0,0.0,-1.5623,-1.3739,-1.3304,-1.2276,0.0,0.0,-1.0594,-1.0117,0.0,0.0,0.0,0.0,0.0,0.0,0.0,0.0,0.0,0.0,0.0,0.0,0.0,0.0,0.0,0.0,0.0,-2.3324,0.0,0.0,0.0,0.0,-2.7762,-2.911,-3.0144,-3.0398,-3.0398,-3.0398,-3.0646,-3.0895,-3.0895,-3.1143,-3.1381,-3.1381,-3.1381,-3.1381,-3.1381,-3.1485,-3.1578,-3.1578,-3.195,-3.225,-3.225,-3.252,-3.2727,-3.2727,-3.2727,-3.2727,-3.2727,-3.2727,-3.2727,-3.2727,-3.2727,-3.2727,-3.2727,-3.2727,-3.2727,-3.2727,-3.2727,-3.2727,-3.2727,-3.2727,-3.2727,-3.2851,-3.3079,-3.3193,-3.3296,-3.2581,-3.1988,-3.1632,-3.083,-3.0363,-3.0011,-3.0246,-3.0268,-3.0204,-3.0607,-3.0686,-3.0818,-3.1102,-3.1277,-3.1377,0.0,0.0,0.0,0.0,0.0,0.0,-1.9078,-1.9078,-1.9078,-1.9078,-1.9078,-1.9078,-1.9078,-1.9078,-1.9078,-1.9078,-1.9072,0.0,0.0,0.0,0.0,0.0,0.0,0.0,0.0,0.0,-1.6767,-1.6767,-1.5262,-1.3774,-1.2398,-1.2398,-1.1649,-1.028,0.0,0.0,0.0,0.0,0.0,0.0,0.0,0.0,0.0,0.0,0.0,0.0,0.0,0.0,0.0,0.0,0.0,0.0,0.0,0.0,0.0,0.0,-2.8877,-3.0781,-3.1236,-3.136,-3.136,-3.136,-3.136,-3.1371,-3.1371,-3.1371,-3.1381,-3.1381,-3.1381,-3.1381,-3.1381,-3.1743,-3.2033,-3.2033,-3.2426,-3.2727,-3.2727,-3.2727,-3.2727,-3.2727,-3.2727,-3.2727,-3.2727,-3.2727,-3.2727,-3.2727,-3.2727,-3.2727,-3.2727,-3.2727,-3.2727,-3.2727,-3.2727,-3.2727,-3.2727,-3.2727,-3.2851,-3.3193,-3.3193,-3.3306,-3.3512,-3.2581,-3.1506,-3.0315,-3.002,-2.9213,-2.814,-2.8746,-2.9214,-2.9571,-2.9571,-3.0075,-3.0791,-3.0791,-3.1038,-3.1377,0.0,0.0,0.0,0.0,0.0,0.0,0.0,-1.9078,-1.9078,-1.9078,-1.9078,-1.9078,-1.9078,-1.9078,-1.9078,-1.9078,-1.9078,0.0,0.0,0.0,0.0,0.0,0.0,0.0,0.0,0.0,-1.7913,-1.7,-1.6408,-1.547,-1.4065,-1.316,-1.2451,-1.1826,-1.0809,-1.0874,0.0,0.0,0.0,0.0,0.0,0.0,-1.8161,0.0,0.0,0.0,0.0,0.0,0.0,0.0,0.0,0.0,0.0,0.0,0.0,0.0,0.0,-2.9022,-3.088,-3.1381,-3.1381,-3.1381,-3.1609,-3.1826,-3.1826,-3.2075,-3.2302,-3.2302,-3.2302,-3.2302,-3.2302,-3.2416,-3.2509,-3.2509,-3.2633,-3.2727,-3.2727,-3.2727,-3.2727,-3.2727,-3.2851,-3.3079,-3.3079,-3.3182,-3.3296,-3.3296,-3.3296,-3.3296,-3.3296,-3.3296,-3.3182,-3.2727,-3.2727,-3.2841,-3.3079,-3.3079,-3.3182,-3.3523,-3.3058,-3.2924,-3.2924,-3.1536,-3.0723,-3.0363,-2.9568,-2.9094,-2.8737,-2.8856,-2.9058,-2.9195,-2.9461,-2.9727,-3.003,-3.058,-3.0873,-3.1011,0.0,0.0,0.0,0.0,0.0,0.0,0.0,-1.92,-1.9078,-1.9078,-1.9078,-1.9078,-1.9078,-1.9078,-1.9078,-1.9078,-1.9078,0.0,0.0,0.0,0.0,0.0,0.0,0.0,0.0,-1.9078,-1.8682,-1.7765,-1.7765,-1.7114,-1.5684,-1.4772,-1.4052,-1.3423,-1.2515,-1.2584,0.0,0.0,0.0,0.0,0.0,0.0,-1.8438,0.0,0.0,0.0,0.0,0.0,0.0,0.0,0.0,0.0,0.0,0.0,0.0,0.0,-2.8584,-2.9193,-3.1299,-3.1888,-3.1888,-3.1888,-3.2095,-3.2302,-3.2302,-3.252,0.0,0.0,0.0,0.0,-3.2727,-3.2727,-3.2727,-3.2727,-3.2727,-3.2727,-3.2851,-3.2851,-3.2965,-3.3069,-3.3182,-3.3296,-3.3296,-3.3512,-3.3625,-3.3625,-3.3625,-3.3625,-3.3625,-3.3625,-3.3399,-3.3069,-3.3069,-3.3182,-3.3296,-3.3296,-3.3296,-3.3275,-3.2924,-3.2571,-3.2332,-3.0956,-3.0382,-3.0392,-2.945,-2.8984,0.0,-2.8984,-2.8984,-2.9012,-2.9259,-2.9443,-2.9635,-3.014,-3.0424,-3.0626,0.0,0.0,0.0,0.0,0.0,0.0,0.0,-1.9328,-1.9078,-1.9078,-1.9078,-1.9078,-1.9078,-1.9078,-1.9078,-1.9078,0.0,0.0,0.0,0.0,0.0,0.0,0.0,0.0,0.0,-1.9078,-1.9078,-1.9078,-1.9078,-1.8419,-1.7109,-1.7109,-1.6333,-1.5038,-1.4907,-1.5038,0.0,0.0,0.0,0.0,0.0,0.0,0.0,0.0,0.0,0.0,0.0,0.0,0.0,0.0,0.0,0.0,0.0,0.0,0.0,0.0,0.0,0.0,0.0,-3.2727,-3.2737,-3.2737,-3.2737,-3.2727,-3.2727,0.0,0.0,0.0,0.0,0.0,-3.2727,-3.2737,-3.2737,-3.2737,-3.2727,-3.2841,-3.3193,-3.3193,-3.3306,-3.3512,-3.3625,-3.3625,-3.3625,-3.3625,-3.3625,-3.3625,-3.3625,-3.3625,-3.3625,-3.3625,-3.3625,-3.3625,-3.3625,-3.3625,-3.3625,-3.3512,-3.3275,-3.2685,-3.2571,-3.2217,-3.1632,-3.0723,-3.0274,-3.0265,-2.9331,-2.8984,-2.8984,-2.8984,-2.8984,-2.8984,-2.8984,-2.9204,-2.9534,-2.9562,-2.9819,-3.0213,0.0,0.0,0.0,0.0,0.0,0.0,0.0,0.0,0.0,0.0,-1.9078,-1.9078,-1.9078,-1.9078,-1.9078,0.0,0.0,0.0,0.0,0.0,0.0,0.0,0.0,0.0,0.0,-1.9078,-1.9078,-1.9078,-1.9078,-1.8944,-1.8547,-1.7501,-1.6845,-1.6462,-1.5679,-1.5939,0.0,0.0,0.0,0.0,0.0,0.0,0.0,0.0,0.0,0.0,-1.9826,-2.1468,0.0,0.0,0.0,0.0,0.0,0.0,0.0,0.0,-2.962,-3.0558,-3.1988,0.0,-3.3079,-3.3079,-3.2851,-3.2727,0.0,0.0,0.0,0.0,0.0,0.0,0.0,-3.2955,-3.3079,-3.3079,-3.3296,-3.3399,-3.3523,-3.3523,-3.3512,-3.3625,-3.3861,-3.3974,-3.3974,-3.4188,-3.43,-3.43,-3.43,-3.43,-3.43,-3.43,-3.43,-3.43,-3.43,-3.4188,-3.3974,-3.3275,-3.2913,-3.3006,-3.1642,-3.084,-3.0733,-2.9804,-2.9331,-2.9331,-2.9103,-2.8984,-2.8984,-2.8984,-2.8984,-2.8984,-2.8984,-2.9039,-2.9159,-2.9461,-2.9635,-2.9773,0.0,0.0,0.0,0.0,0.0,0.0,0.0,0.0,0.0,0.0,0.0,0.0,0.0,0.0,0.0,0.0,0.0,0.0,0.0,0.0,0.0,0.0,0.0,0.0,-1.9078,-1.9078,-1.92,-1.9328,-1.9328,-1.9456,-1.959,-1.8804,-1.8407,-1.8407,-1.7759,-1.7956,0.0,0.0,0.0,0.0,-2.0118,0.0,0.0,0.0,0.0,0.0,-2.1239,-2.2659,0.0,-2.503,-2.6419,-2.79,0.0,0.0,0.0,0.0,-2.9874,-3.1149,-3.1862,-3.2696,-3.3409,-3.3409,-3.3296,-3.3058,0.0,0.0,0.0,0.0,0.0,0.0,0.0,-3.3296,-3.3409,-3.3409,-3.3523,-3.3625,-3.3861,-3.3963,-3.3963,-3.3963,-3.4188,-3.4311,-3.4311,-3.4412,-3.4524,-3.4524,-3.4524,-3.4524,-3.4524,-3.4524,-3.4524,-3.4524,-3.4524,-3.4412,-3.4311,-3.3367,-3.2789,-3.2436,-3.1063,-3.0147,-2.9686,-2.9222,-2.8984,-2.8984,-2.8984,-2.8984,-2.8984,-2.8984,-2.8984,-2.8984,-2.8984,-2.8984,-2.9012,-2.9223,-2.9305,-2.936,0.0,0.0,0.0,0.0,0.0,0.0,0.0,0.0,0.0,0.0,0.0,0.0,0.0,0.0,0.0,0.0,0.0,0.0,0.0,0.0,0.0,0.0,0.0,-1.92,-1.92,-1.92,-1.9328,-1.9705,-1.9705,-1.9839,-2.0106,-2.0151,-2.0195,-2.0362,-2.0234,-2.0238,0.0,0.0,-2.0362,-2.0381,-2.0618,0.0,0.0,0.0,0.0,0.0,0.0,0.0,0.0,-2.6894,-2.8071,-2.9168,-2.9168,0.0,0.0,0.0,0.0,0.0,-3.2079,-3.3017,-3.3823,-3.3646,-3.3625,-3.3625,0.0,0.0,0.0,0.0,0.0,0.0,0.0,-3.3625,-3.3625,-3.3625,-3.3738,-3.3861,-3.4086,-3.4311,-3.4524,-3.4524,-3.4524,-3.4524,-3.4524,-3.4524,-3.4524,-3.4524,-3.4524,-3.4524,-3.4524,-3.4524,-3.4412,-3.4289,-3.4289,-3.4177,-3.4065,-3.3243,-3.2436,-3.1516,-3.0606,-2.9804,-2.8984,-2.8984,-2.8984,-2.8984,-2.8984,-2.8984,-2.8984,-2.8984,-2.8984,-2.8984,-2.8984,-2.8984,-2.8984,-2.8984,-2.8984,-2.9039,0.0,0.0,0.0,0.0,0.0,0.0,0.0,0.0,0.0,0.0,0.0,0.0,0.0,0.0,0.0,0.0,0.0,0.0,0.0,0.0,0.0,0.0,-2.0232,-1.9979,-1.9979,-1.9979,-1.9979,-1.9979,-1.9979,-2.0106,-2.0113,-2.0348,-2.0714,-2.1332,-2.0944,-2.097,-2.1266,-2.122,-2.1332,-2.1339,-2.1641,0.0,0.0,0.0,0.0,0.0,0.0,0.0,0.0,-2.7932,-2.8915,-3.002,-3.002,0.0,0.0,0.0,0.0,0.0,-3.3381,-3.4304,-3.4777,-3.4183,-3.3861,-3.3625,-3.3625,0.0,0.0,0.0,0.0,0.0,0.0,-3.3861,-3.3974,-3.3974,-3.4188,-3.4412,-3.4412,-3.4524,-3.4524,-3.4524,-3.4524,-3.4524,-3.4524,-3.4524,-3.4524,-3.4524,-3.4524,-3.4524,-3.4524,-3.4524,-3.4177,-3.3356,-3.3356,-3.3016,-3.2207,-3.2092,-3.1516,-3.0616,-2.9686,-2.9103,-2.8984,-2.8984,-2.8984,-2.8984,-2.8984,-2.8984,-2.8984,-2.8984,-2.8984,-2.8984,-2.8984,-2.8984,-2.8984,-2.8984,-2.8984,-2.9039,0.0,0.0,0.0,0.0,0.0,0.0,0.0,0.0,0.0,0.0,0.0,0.0,0.0,0.0,0.0,0.0,0.0,0.0,0.0,0.0,0.0,-2.1595,-2.1215,-2.0942,-2.0558,-2.0558,-2.0688,-2.0818,-2.0818,-2.0942,-2.1072,-2.1202,-2.1417,-2.1684,-2.1528,-2.1547,-2.1684,-2.1793,-2.1727,-2.174,0.0,0.0,0.0,0.0,0.0,0.0,0.0,0.0,0.0,0.0,-2.986,-3.0204,-3.0204,0.0,0.0,0.0,0.0,0.0,-3.3966,-3.4911,-3.5561,-3.525,-3.4967,-3.4841,-3.4841,0.0,0.0,0.0,0.0,0.0,0.0,-3.435,-3.4311,-3.4311,-3.4412,-3.4524,-3.4524,-3.4524,-3.4524,-3.4524,-3.4524,-3.4524,-3.4524,-3.4524,-3.4524,-3.4524,-3.4524,-3.4524,-3.4524,-3.4524,-3.4054,-3.3119,-3.3119,-3.2436,-3.1073,-3.1073,-3.084,-3.0392,-2.945,-2.8984,-2.8984,-2.8984,-2.8984,-2.8984,-2.8984,-2.8984,-2.8984,-2.8984,-2.8984,-2.8984,-2.8984,-2.8984,-2.8856,-2.8241,-2.7504,-2.6918,0.0,0.0,0.0,0.0,0.0,0.0,0.0,0.0,0.0,0.0,0.0,0.0,0.0,0.0,0.0,0.0,0.0,0.0,0.0,0.0,-2.2191,-2.2191,-2.2191,-2.1866,-2.1204,-2.1204,-2.1337,-2.1595,-2.1595,-2.176,-2.2084,-2.2084,-2.2111,-2.2113,-2.2158,-2.2184,-2.2107,-2.2151,-2.2191,-2.2211,0.0,0.0,0.0,0.0,0.0,0.0,0.0,0.0,0.0,0.0,0.0,0.0,0.0,0.0,0.0,-3.1938,-3.2873,-3.3827,-3.4791,-3.5649,-3.6162,-3.6271,-3.6129,-3.5965,-3.5965,-3.5659,0.0,0.0,0.0,0.0,-3.5321,-3.5004,-3.4676,-3.4676,-3.4589,-3.4524,-3.4524,-3.4524,-3.4524,-3.4524,-3.4524,-3.4524,-3.4524,-3.4524,-3.4524,-3.4524,-3.4524,-3.4401,-3.4177,-3.4177,-3.3593,-3.255,-3.2436,-3.1757,-3.0039,-3.0039,-3.0039,-3.003,-2.9331,-2.8984,-2.8984,-2.8984,-2.8984,-2.8984,-2.8984,-2.8984,-2.8984,-2.8984,-2.8984,-2.8984,-2.8984,-2.8856,-2.837,-2.7021,-2.5668,-2.4564,0.0,0.0,0.0,0.0,0.0,0.0,0.0,0.0,0.0,0.0,0.0,0.0,0.0,0.0,0.0,0.0,0.0,0.0,0.0,0.0,-2.2799,-2.2799,-2.2799,-2.2545,-2.1997,-2.1984,-2.1984,-2.1984,-2.1984,-2.2124,-2.2385,-2.2385,-2.2545,-2.2832,-2.2812,-2.2812,-2.2826,-2.2812,-2.2799,-2.2799,-2.2819,0.0,0.0,0.0,0.0,0.0,0.0,0.0,0.0,0.0,0.0,0.0,0.0,0.0,-3.2845,-3.345,-3.4308,-3.5297,-3.6275,-3.6642,-3.6741,-3.7167,-3.662,0.0,-3.5965,-3.5943,0.0,-3.5954,0.0,-3.5867,-3.5911,-3.5496,-3.5157,-3.5157,-3.4797,-3.4524,-3.4524,-3.4524,-3.4524,-3.4524,-3.4524,-3.4524,-3.4524,-3.4524,-3.4524,-3.4524,-3.4524,-3.4177,-3.3243,-3.3233,-3.2436,-3.0616,-3.0616,-3.0147,-2.9103,-2.9103,-2.9103,-2.9103,-2.8984,-2.8984,-2.8984,-2.8984,-2.8984,-2.8984,-2.8984,-2.8984,-2.8984,-2.8984,-2.8984,-2.8984,-2.8984,-2.8241,-2.7013,-2.5668,-2.4309,-2.345,0.0,0.0,0.0,0.0,0.0,0.0,0.0,0.0,0.0,0.0,0.0,0.0,0.0,0.0,0.0,0.0,0.0,0.0,0.0,0.0,-2.5525,-2.5525,-2.5525,-2.5405,-2.5158,-2.3454,-2.293,-2.3856,-2.293,-2.2585,-2.2692,-2.2692,-2.329,-2.4203,-2.4203,-2.473,-2.5525,-2.5525,-2.5525,-2.5525,-2.5525,-2.6329,0.0,0.0,0.0,0.0,0.0,0.0,0.0,0.0,-3.1882,-3.2374,0.0,0.0,-3.3968,-3.481,-3.5383,-3.5871,-3.6872,-3.7123,-3.7156,-3.7341,0.0,0.0,0.0,-3.662,-3.65,-3.6784,-3.638,-3.5965,-3.5965,-3.5801,-3.5681,-3.5681,-3.5266,-3.4949,-3.4949,-3.4698,-3.4524,-3.4524,-3.4524,-3.4524,-3.4524,-3.4847,-3.5058,-3.5058,-3.4725,-3.4379,-3.4022,-3.3006,-3.1988,-3.0713,-3.0499,-2.9922,-2.8984,-2.8984,-2.8984,-2.8984,-2.8984,-2.8984,-2.8984,-2.8984,-2.8984,-2.8984,-2.8984,-2.8984,-2.8984,-2.8984,-2.8489,-2.7615,-2.679,-2.5748,-2.4499,-2.397,-2.3047,-2.1971,0.0,0.0,0.0,0.0,0.0,0.0,0.0,0.0,0.0,0.0,0.0,0.0,0.0,0.0,0.0,0.0,0.0,0.0,-2.7113,-2.7113,-2.7113,-2.7113,-2.7113,-2.7379,-2.7784,-2.539,-2.473,-2.5667,-2.473,-2.4196,-2.4196,-2.4196,-2.473,-2.5667,-2.5667,-2.6195,-2.7113,-2.7113,-2.7113,-2.7113,-2.7113,-2.7924,0.0,0.0,0.0,0.0,0.0,0.0,0.0,0.0,-3.2374,0.0,0.0,0.0,0.0,0.0,-3.6125,-3.6502,-3.7253,-3.7374,-3.7374,0.0,0.0,0.0,-3.7374,-3.7134,-3.7003,-3.7319,-3.6861,-3.6413,-3.6413,-3.6293,-3.6195,-3.6195,-3.578,-3.5452,-3.5452,-3.515,-3.4966,-3.4966,-3.5057,-3.5069,-3.5069,-3.5046,-3.5146,-3.5146,-3.4368,-3.3808,-3.347,-3.2457,-3.1536,-3.0597,-3.0382,-2.9922,-2.934,-2.9213,-2.9222,-2.9222,-2.9103,-2.8984,-2.8984,-2.8984,-2.8984,-2.8984,-2.8984,-2.8984,-2.8975,-2.8527,-2.7563,-2.6261,-2.4873,-2.3932,-2.3059,-2.2587,-2.1937,-2.1109,0.0,0.0,0.0,0.0,0.0,0.0,0.0,0.0,0.0,0.0,0.0,0.0,0.0,0.0,0.0,0.0,0.0,0.0,-2.7246,-2.7113,-2.7113,-2.7113,-2.7113,-2.7784,-2.9265,-2.7916,-2.7113,-2.7113,-2.7113,-2.7113,-2.7113,-2.7113,-2.7113,-2.7113,-2.7113,-2.7113,-2.7113,-2.7113,-2.7113,-2.7113,-2.7113,-2.8056,-2.9273,0.0,0.0,0.0,0.0,0.0,0.0,0.0,-3.2883,0.0,0.0,0.0,0.0,0.0,-3.6624,-3.7374,-3.7374,-3.7374,-3.7374,0.0,0.0,0.0,-3.7374,-3.7374,-3.7374,-3.7374,-3.7374,-3.7374,-3.7374,-3.7014,-3.6708,-3.6708,-3.6293,-3.5976,-3.5965,-3.6112,-3.6129,-3.6129,-3.6246,-3.6277,-3.6277,-3.5146,-3.448,-3.448,-3.3356,-3.2342,-3.1325,-3.1325,-3.0859,-2.9922,-2.9922,-2.9922,-2.9922,-2.9686,-2.944,-2.944,-2.9213,-2.8984,-2.8984,-2.8984,-2.8984,-2.8984,-2.8984,-2.8984,-2.8838,-2.7481,-2.6181,-2.4909,-2.361,-2.3044,-2.2943,-2.1539,-2.1109,-2.1109,0.0,0.0,0.0,0.0,0.0,0.0,0.0,0.0,0.0,0.0,0.0,0.0,0.0,0.0,0.0,0.0,0.0,0.0,-3.0169,-3.0169,-3.0169,-3.0169,-3.0307,-3.0714,-3.1129,-3.0963,-2.9631,-2.7113,-2.7113,-2.7246,-2.7387,-2.7246,-2.7776,-2.8977,-2.8723,-2.9256,-3.0169,-3.0169,-3.0169,-3.0169,-3.0169,-3.0446,-3.0723,0.0,0.0,0.0,0.0,0.0,0.0,0.0,0.0,0.0,0.0,0.0,0.0,-3.7,-3.7132,-3.7374,-3.7374,-3.7374,0.0,-3.7374,0.0,0.0,0.0,-3.7374,0.0,0.0,-3.7374,-3.7374,-3.7374,-3.7265,-3.7178,-3.7178,-3.6784,-3.6585,-3.7044,-3.6842,-3.6518,-3.6038,-3.5721,-3.5208,-3.429,-3.399,-3.392,-3.392,-3.314,-3.2571,-3.2352,-3.1315,-3.0499,-3.0265,-3.0039,-2.9922,-2.9922,-2.9804,-2.9804,-2.9804,-2.9686,-2.945,-2.8984,-2.8984,-2.8984,-2.8984,-2.8002,-2.7528,-2.737,-2.5125,-2.3983,-2.3564,-2.2245,-2.1644,-2.1658,-2.1215,-2.1109,-2.1149,0.0,0.0,0.0,0.0,0.0,0.0,0.0,0.0,0.0,0.0,0.0,0.0,0.0,0.0,0.0,0.0,0.0,0.0,0.0,-3.1772,-3.1772,-3.1772,-3.2038,-3.2047,-3.2047,-3.2294,-3.1359,-2.923,-2.923,-2.937,-2.95,-2.9239,-2.977,-3.0834,-3.0576,-3.0982,-3.1772,-3.1772,-3.1772,-3.1772,-3.2147,-3.2138,-3.2266,0.0,0.0,0.0,0.0,0.0,0.0,0.0,0.0,0.0,0.0,0.0,0.0,-3.7374,-3.7374,-3.7374,-3.7374,-3.7374,0.0,-3.7374,-3.7374,-3.7374,-3.7374,0.0,-3.7374,-3.7374,-3.7374,-3.7374,-3.7374,-3.7374,-3.7506,-3.7747,-3.7504,-3.7566,-3.8134,-3.7578,-3.7021,-3.6534,-3.5873,-3.5107,-3.4297,-3.378,-3.3517,-3.3517,-3.2559,-3.2018,-3.2018,-3.1092,-3.0635,-3.0635,-3.0401,-3.0284,-3.0284,-3.0157,-3.0157,-3.0157,-2.9922,-2.9695,-2.9331,-2.9222,-2.9094,-2.8984,-2.7633,-2.6428,-2.5287,-2.3718,-2.274,-2.2213,-2.1471,-2.1109,-2.1109,-2.1109,-2.1109,-2.1162,0.0,0.0,0.0,0.0,0.0,0.0,0.0,0.0,0.0,0.0,0.0,0.0,0.0,0.0,0.0,0.0,0.0,0.0,0.0,0.0,-3.2422,-3.2422,-3.2459,-3.2478,-3.2606,-3.2644,-3.2644,-3.2635,-3.245,-3.2422,-3.2422,-3.2422,-3.2422,-3.2422,-3.2412,-3.2441,-3.2478,-3.2478,-3.2497,-3.2781,-3.3408,-3.3662,-3.3895,-3.4503,0.0,0.0,0.0,0.0,0.0,0.0,0.0,0.0,0.0,0.0,0.0,-3.7539,-3.7517,-3.7396,-3.7385,0.0,0.0,-3.7374,-3.7374,0.0,-3.7374,-3.7374,-3.7374,-3.7374,-3.7374,-3.7374,-3.7374,-3.7374,-3.7626,-3.8227,-3.8227,-3.8347,-3.906,-3.8168,-3.7395,-3.7277,-3.6355,-3.5583,-3.5477,-3.4137,-3.3166,-3.3125,-3.1729,-3.0928,-3.0889,-3.0889,-3.0889,-3.0889,-3.0889,-3.0889,-3.0889,-3.0635,-3.0509,-3.0392,-3.003,-2.9804,-2.9804,-2.944,-2.8966,-2.8489,-2.7134,-2.5245,-2.2988,-2.2981,-2.2159,-2.1109,-2.1109,-2.1109,-2.1109,-2.1109,-2.1109,-2.1169,0.0,0.0,0.0,0.0,0.0,0.0,0.0,0.0,0.0,0.0,0.0,0.0,0.0,0.0,0.0,0.0,0.0,0.0,0.0,0.0,-3.2422,-3.2422,-3.2991,-3.3421,-3.3679,-3.3999,-3.4225,-3.4189,-3.3043,-3.2549,-3.2794,-3.2459,-3.2587,-3.2794,-3.2502,-3.2564,-3.2914,-3.2914,-3.3724,-3.5022,-3.528,-3.5901,-3.6897,-3.715,-3.7286,0.0,0.0,0.0,0.0,0.0,0.0,0.0,0.0,-3.8918,-3.8418,-3.8056,-3.7912,-3.789,0.0,-3.7374,0.0,0.0,-3.7374,-3.7374,-3.7374,-3.7374,-3.7374,-3.7374,-3.7374,-3.7374,-3.7374,-3.7374,-3.7626,-3.8227,-3.7506,-3.7253,-3.8313,-3.7374,-3.6453,-3.5956,-3.5302,-3.4548,-3.3486,-3.2863,-3.2236,-3.189,-3.1554,-3.124,-3.0908,-3.0889,-3.0889,-3.0889,-3.0889,-3.0889,-3.0889,-3.0889,-3.0762,-3.0762,-2.9658,-2.8938,-2.8719,-2.8215,-2.6754,-2.4679,-2.4124,-2.3164,-2.188,-2.1594,-2.1342,-2.1109,-2.1109,-2.1109,-2.1109,-2.1109,-2.1109,-2.1203,0.0,0.0,0.0,0.0,0.0,0.0,0.0,0.0,0.0,0.0,0.0,0.0,0.0,0.0,0.0,0.0,0.0,0.0,0.0,0.0,-3.3527,-3.3527,-3.3859,-3.4196,-3.4358,-3.4573,-3.4681,-3.4671,-3.3927,-3.3608,-3.3711,-3.3613,-3.3926,-3.4765,-3.4609,-3.5083,-3.586,-3.586,-3.6366,-3.7329,-3.7583,-3.8226,-3.8854,-3.9239,-3.9375,-3.9657,-4.0028,0.0,0.0,0.0,0.0,0.0,0.0,0.0,-3.9811,-3.9477,-3.9411,-3.9219,0.0,0.0,0.0,-3.7561,0.0,-3.7374,-3.7374,-3.7374,-3.7374,-3.7374,-3.7374,-3.7374,-3.7374,-3.7616,-3.7867,-3.7856,-3.7495,-3.7473,-3.7801,-3.6724,-3.5756,-3.5376,-3.4677,-3.3813,-3.3086,-3.2715,-3.2373,-3.2148,-3.1943,-3.1641,-3.1211,-3.1191,-3.1094,-3.0898,-3.0889,-3.0645,-2.9903,-2.9903,-2.9667,-2.9066,-2.8325,-2.7478,-2.665,-2.6771,-2.579,-2.3822,-2.3536,-2.2695,-2.1515,-2.1242,-2.1109,-2.1109,-2.1109,-2.1109,-2.1109,-2.1109,-2.1229,-2.145,0.0,0.0,0.0,0.0,0.0,0.0,0.0,0.0,0.0,0.0,0.0,0.0,0.0,0.0,0.0,0.0,0.0,0.0,0.0,0.0,0.0,-3.4697,-3.4756,-3.4848,-3.4831,-3.49,-3.4887,-3.4932,-3.4984,-3.5067,-3.5301,-3.4839,-3.5417,-3.6771,-3.6792,-3.7642,-3.8985,-3.8974,-3.9154,-3.9482,-4.0039,-4.0321,-4.0772,-4.1195,-4.1352,-4.1311,-4.1434,-4.1434,-4.1322,-4.1503,0.0,0.0,0.0,0.0,-4.1122,-4.1031,-4.1001,-4.0835,0.0,0.0,-3.8996,-3.7989,-3.7747,0.0,-3.7747,-3.7747,-3.7747,-3.7747,-3.7616,-3.7506,-3.7506,-3.7867,-3.7987,-3.7616,-3.7594,-3.7451,-3.7067,-3.5858,-3.5005,-3.5005,-3.4027,-3.3418,-3.3418,-3.3105,-3.2871,-3.2803,-3.2471,-3.209,-3.165,-3.1562,-3.1357,-3.1006,-3.0684,-3.0058,-2.9021,-2.8783,-2.822,-2.721,-2.6941,-2.5962,-2.4502,-2.5386,-2.5067,-2.3705,-2.3457,-2.2591,-2.1607,-2.1235,-2.1109,-2.1109,-2.1109,-2.1109,-2.1242,-2.1289,-2.1511,-2.1697,0.0,0.0,0.0,0.0,0.0,0.0,0.0,0.0,0.0,0.0,0.0,0.0,0.0,0.0,0.0,0.0,0.0,0.0,-3.4609,0.0,0.0,-3.4697,-3.5122,-3.5318,-3.5254,-3.5615,-3.582,-3.584,-3.5869,-3.643,-3.7639,-3.5661,-3.5481,-3.6746,-3.676,-3.782,-3.9373,-3.9467,-4.0367,-4.1787,-4.1456,-4.2308,-4.37,-4.3345,-4.3085,-4.3114,-4.3624,-4.35,-4.3114,-4.3636,-4.3512,0.0,0.0,0.0,-4.2017,-4.1605,-4.1547,-4.1363,0.0,0.0,-3.9819,0.0,-3.906,-3.906,-3.906,-3.906,-3.906,-3.906,-3.8585,-3.8227,-3.8227,-3.7867,-3.7605,-3.8074,-3.6369,-3.5149,-3.5623,-3.4518,-3.367,-3.367,-3.3544,-3.3418,-3.3418,-3.3369,-3.3193,-3.2822,-3.2744,-3.2529,-3.21,-3.1728,-3.1494,-3.1435,-2.9964,-2.9214,-2.9322,-2.821,-2.7761,-2.7847,-2.6722,-2.5467,-2.4205,-2.4334,-2.364,-2.2355,-2.1978,-2.1734,-2.1607,-2.1235,-2.1109,-2.1109,-2.1109,-2.1235,-2.1515,-2.1908,-2.2038,-2.2162,0.0,0.0,0.0,0.0,0.0,0.0,0.0,0.0,0.0,0.0,0.0,0.0,0.0,0.0,0.0,-3.4404,-3.4834,-3.5185,-3.542,-3.5439,-3.5439,-3.5439,-3.5586,-3.5693,-3.5742,-3.5928,-3.643,-3.7116,-3.7135,-3.785,-3.926,-3.8251,-3.8488,-3.9933,-3.9926,-4.0729,-4.2177,-4.1854,-4.2424,-4.3392,-4.285,-4.3338,-4.4323,-4.407,-4.3883,-4.3962,-4.4211,-4.4087,-4.3962,-4.4223,-4.4087,-4.3838,-4.3838,0.0,0.0,0.0,-4.3121,-4.2879,-4.2105,-4.1225,-4.0474,0.0,-3.9721,-3.9652,-3.9365,-3.9308,-3.906,-3.8347,-3.8324,-3.8205,-3.7856,-3.7242,-3.6624,-3.6247,-3.551,-3.4777,-3.4403,-3.3786,-3.3418,-3.3418,-3.3418,-3.3418,-3.3418,-3.3418,-3.335,-3.3164,-3.3144,-3.2959,-3.2549,-3.2334,-3.1745,-3.0757,-2.9943,-2.8948,-2.7503,-2.7001,-2.6326,-2.5848,-2.5221,-2.459,-2.4086,-2.4086,-2.3796,-2.3142,-2.2886,-2.2757,-2.2629,-2.2378,-2.2249,-2.2249,-2.2249,-2.2371,-2.2392,-2.2394,-2.2421,-2.2606,0.0,0.0,0.0,0.0,0.0,0.0,0.0,0.0,0.0,0.0,0.0,0.0,0.0,0.0,0.0,0.0,-3.5293,-3.5684,-3.5996,-3.6278,-3.6413,-3.6025,-3.6724,-3.6984,-3.6664,-3.7092,-3.785,-3.8927,-3.8869,-3.9563,-4.0994,-4.0994,-4.1719,-4.3044,-4.2556,-4.3015,-4.4323,-4.3902,-4.3962,-4.4299,-4.3746,-4.3842,-4.4335,-4.419,-4.4227,-4.4347,-4.4347,-4.4347,-4.4347,-4.4347,-4.4347,-4.4347,-4.4347,-4.4347,0.0,0.0,0.0,-4.4103,0.0,0.0,-4.1481,-4.0979,-4.0627,-4.0429,-3.9679,-3.9377,-3.8919,-3.7594,-3.7462,-3.7462,-3.6989,-3.6502,-3.5767,-3.4787,-3.4767,-3.4518,-3.3544,-3.3418,-3.3418,-3.3418,-3.3418,-3.3418,-3.3418,-3.3418,-3.3418,-3.3418,-3.3418,-3.3146,-3.245,-3.2334,-3.1492,-2.9788,-2.9306,-2.8169,-2.6118,-2.5955,-2.5352,-2.4327,-2.4327,-2.4327,-2.4327,-2.4327,-2.4327,-2.432,-2.376,-2.3565,-2.3434,-2.3173,-2.3042,-2.3042,-2.3042,-2.3042,-2.3049,-2.2856,-2.2896,-2.2969,0.0,0.0,0.0,0.0,0.0,0.0,0.0,0.0,0.0,0.0,0.0,0.0,-3.4072,-3.4824,-3.5332,-3.5351,-3.5742,-3.5996,-3.6016,-3.7193,-3.7461,-3.6016,-3.8839,0.0,-3.8486,-4.0067,-4.0938,-4.1019,-4.103,-4.1681,-4.3083,-4.3083,-4.3855,-4.5025,-4.3191,-4.3015,-4.4347,-4.4323,-4.4323,-4.4299,-4.3746,-4.3842,-4.4287,-4.3758,-4.389,-4.4347,-4.4347,-4.4347,-4.4347,-4.4347,-4.4347,-4.4347,-4.4347,-4.4347,-4.4347,0.0,0.0,0.0,0.0,-4.3371,0.0,-4.2724,-4.222,-4.159,-4.031,-3.9572,-3.8862,-3.755,-3.6338,-3.55,-3.55,-3.55,-3.5376,-3.5376,-3.4278,-3.3418,-3.3418,-3.3418,-3.3418,-3.3418,-3.3418,-3.3418,-3.3418,-3.3418,-3.3418,-3.3418,-3.3418,-3.2756,-3.1414,-3.1064,-3.0203,-2.8768,-2.7041,-2.6271,-2.6482,-2.5635,-2.5135,-2.5008,-2.5008,-2.5008,-2.5008,-2.5008,-2.5008,-2.4971,-2.3954,-2.3434,-2.3173,-2.3173,-2.3042,-2.3042,-2.3042,-2.3035,-2.3063,-2.3357,-2.3209,-2.2989,0.0,0.0,0.0,0.0,0.0,0.0,0.0,0.0,0.0,0.0,0.0,0.0,0.0,-3.5019,-3.5498,-3.5771,-3.6968,-3.8098,-3.9014,-3.9733,-3.9821,-3.9314,-4.0456,-4.0784,-4.0312,-4.0923,-4.1556,-4.2466,-4.2466,-4.3244,-4.4546,-4.4546,-4.4804,-4.5318,-4.4523,-4.4413,-4.457,-4.4451,-4.4378,-4.4299,-4.3977,-4.3964,-4.4323,-4.413,-4.4166,-4.4347,-4.4347,-4.4347,-4.4347,-4.4347,-4.4347,-4.4347,-4.4347,-4.4347,-4.4347,-4.4347,-4.4347,-4.4299,-4.4106,0.0,0.0,-4.2374,-4.1848,-4.1248,-3.9534,-3.8709,-3.7989,-3.6774,-3.5934,-3.5129,-3.4278,-3.4153,-3.4153,-3.4153,-3.366,-3.3418,-3.3418,-3.3418,-3.3418,-3.3418,-3.3418,-3.3418,-3.3418,-3.3418,-3.3029,-3.21,-3.21,-3.1451,-3.003,-2.9769,-2.9042,-2.7736,-2.6966,-2.6324,-2.5672,-2.5263,-2.5059,-2.5059,-2.5059,-2.5059,-2.5059,-2.5059,-2.5059,-2.5044,-2.4676,-2.4441,-2.4441,-2.4441,-2.4166,-2.4032,-2.4307,-2.4032,-2.3637,-2.4019,-2.3926,-2.3669,0.0,0.0,0.0,0.0,0.0,0.0,0.0,0.0,-3.3418,-3.3418,0.0,0.0,0.0,0.0,-3.5713,-3.6112,-3.7173,-3.8353,-3.9398,-4.0138,-4.0486,-4.0456,-4.1501,-4.2073,-4.2073,-4.2579,-4.3357,-4.4263,-4.4263,-4.478,-4.5696,-4.5696,-4.5696,-4.5696,-4.5696,-4.5331,-4.4939,-4.4804,-4.4744,-4.4558,-4.4427,-4.4378,-4.4594,-4.447,-4.447,-4.447,-4.447,-4.4347,-4.4347,-4.4347,-4.4347,-4.4347,-4.447,-4.447,-4.447,-4.4347,-4.4347,-4.4223,-4.3701,-4.3576,-4.3232,-4.1456,-4.0977,-4.0386,-3.8676,-3.7856,-3.7085,-3.5701,-3.5194,-3.4574,-3.3573,-3.3418,-3.3418,-3.3418,-3.3418,-3.3418,-3.3418,-3.3418,-3.3418,-3.3418,-3.3418,-3.3165,-3.2756,-3.2765,-3.211,-3.0669,-3.054,-3.0021,-2.8592,-2.8468,-2.7808,-2.6494,-2.6368,-2.5973,-2.5059,-2.5059,-2.5059,-2.5059,-2.5059,-2.5059,-2.5059,-2.5059,-2.5059,-2.5059,-2.5059,-2.5059,-2.5059,-2.5059,-2.4916,-2.4774,-2.5052,-2.4781,-2.4231,-2.4367,-2.4231,-2.3959,0.0,0.0,0.0,0.0,0.0,0.0,0.0,0.0,-3.3418,-3.3418,0.0,0.0,0.0,0.0,0.0,-3.6519,-3.6509,-3.6789,-3.7213,-3.8517,-3.9277,-3.9224,-4.2201,-4.3743,-4.3731,-4.5403,-4.6313,-4.6313,-4.6313,-4.6313,-4.6313,-4.6313,-4.6313,-4.6313,-4.6313,-4.5939,-4.5331,-4.5331,-4.5331,-4.5331,-4.4963,-4.4963,-4.5208,-4.4963,-4.484,-4.484,-4.484,-4.4594,-4.4347,-4.4347,-4.4347,-4.4347,-4.4717,-4.484,-4.4717,-4.447,-4.4347,-4.4087,0.0,0.0,0.0,-4.0592,-3.9831,-3.9087,-3.7718,-3.7094,-3.6254,-3.4447,-3.4101,-3.3955,-3.3525,-3.3437,-3.3437,-3.3418,-3.3418,-3.3418,-3.3418,-3.3418,-3.3418,-3.3418,-3.3418,-3.2892,-3.1442,-3.1313,-3.0669,-2.9248,-2.9125,-2.846,-2.7145,-2.702,-2.6494,-2.5187,-2.5059,-2.5059,-2.5059,-2.5059,-2.5059,-2.5059,-2.5059,-2.5059,-2.5059,-2.5059,-2.5059,-2.5059,-2.5059,-2.5059,-2.5059,-2.5059,-2.5052,-2.5059,-2.5059,-2.4916,-2.4503,-2.4503,-2.4367,-2.4095,0.0,0.0,0.0,0.0,0.0,-3.3418,-3.3418,-3.3418,-3.3418,0.0,0.0,0.0,-3.4697,-3.5488,-3.6539,-3.7955,-3.82,-3.8982,-4.03,-4.1064,-4.132,-4.1298,-4.3095,-4.4127,-4.4115,-4.5537,-4.6313,-4.6313,0.0,0.0,0.0,-4.6313,-4.6313,-4.6313,-4.6313,-4.6193,-4.6059,-4.6059,-4.5696,-4.5331,-4.5453,-4.5453,-4.5331,-4.5208,-4.4963,-4.484,-4.484,-4.4717,-4.4717,-4.4717,-4.484,-4.5086,-4.5086,-4.5208,-4.5086,-4.5086,-4.4963,-4.4705,-4.3416,0.0,0.0,0.0,0.0,0.0,-3.7545,-3.68,-3.6315,-3.5547,-3.5149,-3.4793,-3.4103,-3.3896,-3.3789,-3.3476,-3.3418,-3.3418,-3.3418,-3.3418,-3.3418,-3.3418,-3.3418,-3.2892,-3.1442,-3.1313,-3.0272,-2.78,-2.7676,-2.7153,-2.5712,-2.5712,-2.545,-2.5052,-2.5059,-2.5059,-2.5059,-2.5059,-2.5059,-2.5059,-2.5059,-2.5059,-2.5059,-2.5059,-2.5059,-2.5059,-2.5059,-2.5059,-2.5059,-2.5059,-2.4916,-2.4645,-2.5052,-2.4645,-2.4231,-2.4781,-2.4645,-2.4367,0.0,0.0,0.0,0.0,0.0,-3.3418,-3.3418,-3.3418,-3.3418,0.0,0.0,0.0,-3.4951,-3.573,-3.6664,-3.7842,-3.8221,-3.9256,-4.0957,-4.1203,-4.1831,-4.2969,-4.3867,-4.4509,-4.5147,-4.5926,-4.6313,-4.6313,-4.6313,0.0,0.0,-4.6313,-4.6313,-4.6313,-4.6313,-4.6313,-4.6313,-4.6313,-4.6059,-4.5696,-4.5817,-4.5817,-4.5696,-4.5574,-4.5331,-4.5208,-4.5208,-4.5086,-4.4963,-4.4963,-4.5208,-4.5453,-4.5331,-4.5453,-4.5318,-4.4681,-4.4434,-4.4039,-4.212,-4.161,-4.1086,-3.8904,0.0,0.0,-3.7069,-3.6743,-3.6503,-3.6047,-3.5808,-3.55,-3.4943,-3.4734,-3.4457,-3.4015,-3.3819,-3.3633,-3.3447,-3.3418,-3.3155,-3.2629,-3.2502,-3.1717,-2.9752,-2.9492,-2.8583,-2.6494,-2.6234,-2.5973,-2.5187,-2.5059,-2.5059,-2.5059,-2.5059,-2.5059,-2.5059,-2.5059,-2.5059,-2.5059,-2.5059,-2.5059,-2.5059,-2.5059,-2.5059,-2.5059,-2.5059,-2.5059,-2.5059,-2.5059,-2.4916,-2.4781,-2.5052,-2.4781,-2.4503,-2.4916,-2.4916,-2.4781,0.0,0.0,-3.3418,-3.3418,-3.3418,-3.3418,-3.3418,-3.3418,-3.3418,0.0,-3.3838,-3.4463,-3.5303,-3.6012,-3.6654,-3.7079,-3.7348,-3.8273,-3.9823,-4.0073,-4.1343,-4.3743,-4.4127,-4.489,-4.6047,-4.618,-4.6313,-4.6313,-4.6313,-4.6313,-4.6313,-4.6313,-4.6313,-4.6313,0.0,0.0,-4.6313,-4.6313,-4.6313,-4.6313,-4.5951,-4.6059,-4.6313,-4.5939,-4.5817,-4.5817,-4.5817,-4.5574,-4.5331,-4.5453,-4.5562,-4.5562,-4.5453,-4.544,-4.5172,-4.3778,-4.3267,-4.2627,-4.0073,-3.9299,-3.8904,-3.7606,-3.7213,0.0,-3.6799,-3.6934,-3.6968,-3.63,-3.6353,-3.6354,-3.5912,-3.5571,-3.5301,-3.4853,-3.4527,-3.4103,-3.3486,-3.3418,-3.2892,-3.1707,-3.1442,-3.0272,-2.7543,-2.7153,-2.6494,-2.5187,-2.5059,-2.5059,-2.5059,-2.5059,-2.5059,-2.5059,-2.5059,-2.5059,-2.5059,-2.5059,-2.5059,-2.5059,-2.5059,-2.5059,-2.5059,-2.5059,-2.5059,-2.5059,-2.5059,-2.5059,-2.5059,-2.5059,-2.5059,-2.5059,-2.5059,-2.5059,-2.5059,-2.5059,-2.5059,-2.5059,-3.3418,-3.3418,-3.3418,-3.3418,-3.3418,-3.3418,-3.3418,-3.3418,-3.3418,-3.3418,-3.4092,-3.4785,-3.5332,-3.6012,-3.6654,-3.7079,-3.7348,-3.7883,-3.8559,-3.9572,-4.0452,-4.0957,-4.3107,-4.4374,-4.4632,-4.5793,-4.6313,-4.6313,-4.6313,-4.6313,-4.6313,-4.6313,-4.6313,-4.6313,-4.6313,-4.6313,-4.6313,-4.6313,-4.6313,-4.6301,-4.6193,-4.6193,-4.6313,-4.6193,-4.6059,-4.5817,-4.5817,-4.5817,-4.5696,-4.6059,-4.5416,-4.4767,-4.5805,-4.4645,-4.3107,-4.3867,-4.3357,-4.2086,-4.0452,-3.9942,-3.9692,-3.8293,-3.8048,0.0,-3.7904,-3.7914,-3.7883,-3.737,-3.735,-3.7084,-3.6364,-3.6284,-3.6012,-3.5571,-3.5501,-3.4963,-3.3662,-3.3418,-3.3292,-3.3029,-3.1973,-3.0669,-2.8986,-2.7808,-2.6494,-2.5187,-2.5059,-2.5059,-2.5059,-2.5059,-2.5059,-2.5059,-2.5059,-2.5059,-2.5059,-2.5059,-2.5059,-2.5059,-2.5059,-2.5059,-2.5059,-2.5059,-2.5059,-2.5059,-2.5059,-2.5059,-2.5059,-2.5059,-2.5059,-2.5059,-2.5059,-2.5059,-2.5059,-2.5059,-2.5059,-2.5059,-3.3418,-3.3418,-3.3418,-3.3418,-3.3418,-3.3418,-3.3418,-3.3418,-3.3418,-3.3418,-3.3984,-3.456,-3.5,-3.5944,-3.6693,-3.7059,-3.7626,-3.8293,-3.9199,-3.9823,-4.0452,-4.1203,-4.3232,-4.4251,-4.4251,-4.5659,-4.6313,-4.6313,-4.6313,-4.6313,-4.6313,-4.6313,-4.5926,-4.5281,-4.6047,-4.5926,-4.5403,-4.6047,-4.6313,-4.6313,-4.6313,-4.6313,-4.618,-4.5537,-4.5159,-4.4902,-4.4275,-4.4015,-4.4015,-4.4251,-4.4263,-4.4251,-4.4251,-4.3743,-4.3107,-4.2477,-4.1715,-4.0957,-3.9572,-3.9199,-3.9067,-3.8304,-3.8181,0.0,0.0,-3.8048,-3.8048,-3.7626,-3.776,-3.7832,-3.733,-3.7146,-3.6871,-3.6436,-3.6093,-3.5511,-3.4378,-3.4122,-3.374,-3.2834,-3.1847,-3.0531,-2.8328,-2.7543,-2.6494,-2.5187,-2.5059,-2.5059,-2.5059,-2.5059,-2.5059,-2.5059,-2.5059,-2.5059,-2.5059,-2.5059,-2.5059,-2.5059,-2.5059,-2.5059,-2.5059,-2.5059,-2.5059,-2.5059,-2.5059,-2.5059,-2.5059,-2.5059,-2.5059,-2.5059,-2.5059,-2.5059,-2.5059,-2.5059,-2.5059,-2.5059,-3.3408,-3.3418,-3.3418,-3.3418,-3.3418,-3.3418,-3.3418,-3.3418,-3.3418,-3.3418,-3.3799,-3.4199,-3.4541,-3.5488,-3.6333,-3.6774,-3.7503,-3.8322,-3.9681,-3.9942,-4.057,-4.1704,-4.3107,-4.3867,-4.3867,-4.4902,-4.5659,-4.5926,-4.5951,-4.5951,-4.5926,-4.5951,-4.5318,-4.4374,-4.5147,-4.5025,-4.4374,-4.5159,-4.5537,-4.5537,-4.5537,-4.5793,-4.618,-4.4767,-4.4251,-4.4127,-4.2718,-4.2213,-4.2213,-4.2213,-4.2718,-4.3369,-4.2466,-4.2603,-4.273,-4.0839,-4.0084,-3.9572,-3.8437,-3.8181,-3.8181,-3.8181,-3.8181,-3.8048,0.0,0.0,0.0,-3.776,-3.7904,-3.8181,-3.8181,-3.7904,-3.7647,-3.7289,-3.6688,-3.603,-3.558,-3.5071,-3.4121,-3.2515,-3.1866,-3.0361,-2.7808,-2.702,-2.6234,-2.5187,-2.5059,-2.5059,-2.5059,-2.5059,-2.5059,-2.5059,-2.5059,-2.5059,-2.5059,-2.5059,-2.5059,-2.5059,-2.5059,-2.5059,-2.5059,-2.5059,-2.5059,-2.5059,-2.5059,-2.5059,-2.5059,-2.5059,-2.5059,-2.5059,-2.5059,-2.5059,-2.5059,-2.5059,-2.5096,-2.5147,-3.335,-3.3418,-3.3418,-3.3418,-3.3418,-3.3418,-3.3418,-3.3418,-3.3418,-3.3418,-3.3799,-3.4092,-3.4141,-3.4922,-3.5619,-3.6047,-3.6353,-3.6922,-3.7852,-3.9025,-3.9932,-4.0452,-4.1715,-4.2466,-4.2466,-4.2592,-4.3232,-4.4509,-4.4531,-4.4531,-4.4509,-4.4531,-4.4395,-4.4251,-4.3095,-4.3232,-4.4251,-4.3107,-4.2718,-4.2718,-4.2718,-4.4127,-4.618,-4.4767,-4.4251,-4.4127,-4.2718,-4.2213,-4.2213,-4.2213,-4.146,-4.0828,-4.1831,-4.071,-3.9078,-3.9942,-3.932,-3.8437,-3.8181,-3.8181,-3.8181,-3.8181,-3.8181,-3.8191,-3.8181,0.0,-3.8191,-3.8181,0.0,-3.8181,-3.8181,0.0,0.0,-3.8109,-3.7688,-3.7236,-3.6867,-3.592,-3.4873,-3.3837,-3.2605,-3.1082,-2.9151,-2.6761,-2.5322,-2.5052,-2.5059,-2.5059,-2.5059,-2.5059,-2.5059,-2.5059,-2.5059,-2.5059,-2.5059,-2.5059,-2.5059,-2.5059,-2.5059,-2.5059,-2.5059,-2.5059,-2.5059,-2.5059,-2.5059,-2.5059,-2.5059,-2.5059,-2.5059,-2.5059,-2.5059,-2.5059,-2.5059,-2.5059,-2.5235,-2.5476,-3.334,-3.3418,-3.3418,-3.3418,-3.3418,-3.3418,-3.3418,-3.3418,-3.3418,-3.3418,-3.3584,-3.3917,-3.43,-3.4873,-3.5401,-3.608,-3.6689,-3.7146,-3.7595,-3.8406,-3.8935,-3.9067,-4.0322,-4.1075,-4.1075,-4.1831,-4.2466,-4.3095,-4.304,-4.304,-4.3095,-4.304,-4.2661,-4.197,-4.2086,-4.2086,-4.197,-4.2086,-4.2213,-4.2213,-4.2213,-4.2844,-4.3743,-4.2477,-4.1471,-4.0721,-4.0073,-3.9823,-3.9823,-3.9823,-4.0073,-4.0203,-3.9953,-3.9703,-3.932,-3.9067,-3.8692,-3.8181,-3.8181,-3.8181,-3.8181,-3.8181,-3.8181,-3.8181,-3.8181,-3.8181,-3.8181,-3.8181,0.0,0.0,0.0,0.0,0.0,0.0,-3.777,-3.7256,-3.6993,-3.5987,-3.5136,-3.4497,-3.269,-3.0997,-2.9395,-2.7419,-2.6234,-2.6234,-2.5584,-2.5059,-2.5059,-2.5059,-2.5059,-2.5059,-2.5059,-2.5059,-2.5059,-2.5059,-2.5059,-2.5059,-2.5059,-2.5059,-2.5059,-2.5059,-2.5059,-2.5059,-2.5059,-2.5059,-2.5059,-2.5059,-2.5059,-2.5059,-2.5059,-2.5059,-2.5081,-2.5264,-2.5418,-2.5557,-3.3144,-3.334,-3.3418,-3.3418,-3.3418,-3.3418,-3.3418,-3.3418,-3.3418,-3.3418,-3.3418,-3.3672,-3.4368,-3.4525,-3.4962,-3.5851,-3.6567,-3.6963,-3.7268,-3.7698,-3.8048,-3.8181,-3.9067,-3.9703,-3.9703,-4.0581,-4.1332,-4.1704,-4.1712,-4.1701,-4.1715,-4.1712,-4.1069,-4.0203,-4.0828,-4.0806,-4.0267,-4.0817,-4.1075,-4.1075,-4.1075,-4.1075,-4.1075,-4.0452,-3.932,-3.8181,-3.8181,-3.8181,-3.8181,-3.8181,-3.8814,-3.9441,-3.857,-3.8814,-3.9441,-3.8437,-3.8181,-3.8181,-3.8181,-3.8181,-3.8181,-3.8181,-3.8181,-3.8181,-3.8181,-3.8181,-3.8181,-3.8181,-3.8181,0.0,0.0,0.0,-3.8181,-3.8181,0.0,-3.7236,-3.7034,-3.6107,-3.5299,-3.472,-3.2671,-3.0798,-2.9378,-2.7941,-2.6886,-2.6627,-2.5712,-2.5059,-2.5059,-2.5059,-2.5059,-2.5059,-2.5059,-2.5059,-2.5059,-2.5059,-2.5059,-2.5059,-2.5059,-2.5059,-2.5059,-2.5059,-2.5059,-2.5059,-2.5059,-2.5059,-2.5059,-2.5059,-2.5059,-2.5059,-2.5059,-2.511,-2.5213,-2.5447,-2.5586,-2.571,-3.2646,-3.3144,-3.3418,-3.3418,-3.3418,-3.3418,-3.3418,-3.3418,-3.3418,-3.3418,-3.3418,-3.3554,-3.3942,-3.369,-3.375,-3.4586,-3.5142,-3.5711,-3.6405,-3.7238,-3.776,-3.8181,-3.8181,-3.8314,-3.8314,-3.8314,-3.8946,-4.0192,-4.0255,-4.0244,-4.0203,-4.0266,-4.0234,-4.0203,-3.8946,-3.8993,-4.0125,-3.8882,-3.8314,-3.8314,-3.8314,-3.8314,-3.8437,-3.9692,-3.932,-3.8181,-3.8181,-3.8181,-3.8181,-3.8181,-3.8181,-3.8314,-3.8181,-3.8181,-3.8314,-3.8181,-3.8181,-3.8181,-3.8181,-3.8181,-3.8181,-3.8181,-3.8181,-3.8181,-3.8181,-3.8181,-3.8181,-3.8181,-3.8181,-3.8181,-3.8181,-3.8181,-3.8181,-3.8181,-3.7893,0.0,0.0,-3.642,-3.5567,-3.4705,-3.262,-3.0798,-2.9378,-2.7941,-2.6494,-2.5322,-2.5059,-2.5059,-2.5059,-2.5059,-2.5059,-2.5059,-2.5059,-2.5059,-2.5059,-2.5059,-2.5059,-2.5059,-2.5059,-2.5059,-2.5059,-2.5059,-2.5059,-2.5059,-2.5059,-2.5059,-2.5059,-2.5059,-2.5059,-2.5059,-2.5059,-2.5249,-2.5513,-2.5527,-2.5732,-2.6047,-3.1894,-3.2519,-3.3096,-3.3369,-3.3418,-3.3418,-3.3418,-3.3418,-3.3418,-3.3418,-3.3418,-3.3544,-3.3922,-3.4047,-3.4352,-3.4929,-3.5493,-3.6146,-3.6628,-3.7227,-3.7728,-3.8171,-3.8181,-3.8181,-3.8181,-3.8181,-3.8437,-3.8946,-3.8839,-3.8839,-3.8814,-3.8839,-3.8828,-3.8814,-3.8437,-3.8406,-3.8872,-3.8416,-3.8181,-3.8181,-3.8181,-3.8181,-3.8314,-3.8692,-3.8559,-3.8181,-3.8181,-3.8181,-3.8181,-3.8181,-3.8181,-3.8181,-3.8181,-3.8181,-3.8181,-3.8181,-3.8181,-3.8181,-3.8181,-3.8181,-3.8181,-3.8181,-3.8181,-3.8181,-3.8181,-3.8181,-3.8181,-3.8181,-3.8181,-3.8181,-3.8181,-3.8181,-3.8181,-3.8181,-3.7904,-3.7482,0.0,-3.5904,-3.4838,-3.4398,-3.3289,-3.1717,-2.9387,-2.9631,-2.937,-2.7941,-2.6894,-2.6368,-2.6368,-2.5584,-2.5059,-2.5059,-2.5059,-2.5059,-2.5059,-2.5059,-2.5059,-2.5059,-2.5059,-2.5059,-2.5059,-2.5059,-2.5059,-2.5059,-2.5059,-2.5584,-2.6368,-2.545,-2.5577,-2.6368,-2.545,-2.5249,-2.5557,-2.5776,-2.6054,-2.6383,-3.1484,-3.209,-3.2705,-3.3125,-3.332,-3.3418,-3.3418,-3.3418,-3.3418,-3.3418,-3.3418,-3.3544,-3.3922,-3.4047,-3.4167,-3.4699,-3.525,-3.5784,-3.6526,-3.7002,-3.7563,-3.816,-3.8181,-3.8181,-3.8181,-3.8181,-3.8181,-3.8181,-3.8181,-3.8181,-3.8181,-3.8181,-3.8181,-3.8181,-3.8181,-3.8181,-3.8181,-3.8181,-3.8181,-3.8181,-3.8181,-3.8181,-3.8181,-3.8181,-3.8181,-3.8181,-3.8181,-3.8181,-3.8181,-3.8181,-3.8181,-3.8181,-3.8181,-3.8181,-3.8181,-3.8181,-3.8181,-3.8181,-3.8181,-3.8181,-3.8181,-3.8181,-3.8181,-3.8181,-3.8181,-3.8181,-3.8181,-3.8181,-3.8181,-3.8181,-3.8181,-3.8181,-3.8181,-3.8181,-3.8037,-3.7626,0.0,-3.5924,-3.4844,-3.457,-3.3877,-3.2502,-3.016,-3.0281,-3.0151,-2.9248,-2.7941,-2.7153,-2.7153,-2.6234,-2.5577,-2.5059,-2.5059,-2.5059,-2.5059,-2.5059,-2.5059,-2.5059,-2.5059,-2.5059,-2.5059,-2.5059,-2.5059,-2.5059,-2.5059,-2.5577,-2.6368,-2.5973,-2.6368,-2.7028,-2.6237,-2.6224,-2.6403,-2.607,-2.6296,-2.6705,-3.1475,-3.1904,-3.2334,-3.2754,-3.3154,-3.3418,-3.3418,-3.3418,-3.3418,-3.3418,-3.3418,-3.3544,-3.3796,-3.3544,-3.3544,-3.3922,-3.4308,-3.4863,-3.5701,-3.6526,-3.7248,-3.8129,-3.815,-3.816,-3.8181,-3.8181,-3.8181,-3.8181,-3.8181,-3.8181,-3.8181,-3.8181,-3.8181,-3.8181,-3.8181,-3.8181,-3.8181,-3.8181,-3.8181,-3.8181,-3.8181,-3.8181,-3.8181,-3.8181,-3.8181,-3.8181,-3.8181,-3.8181,-3.8181,-3.8181,-3.8181,-3.8181,-3.8181,-3.8181,-3.8181,-3.8181,-3.8181,-3.8181,-3.8181,-3.8181,-3.8181,-3.8181,-3.8181,-3.8181,-3.8181,-3.8181,-3.8181,-3.8181,-3.8181,-3.8181,-3.8181,-3.8181,-3.8181,-3.8181,-3.8181,-3.7904,-3.7213,-3.6058,-3.5391,-3.5391,-3.4258,-3.2823,-3.135,-3.0169,-2.9387,-2.9248,-2.7941,-2.7278,-2.7278,-2.7145,-2.6501,-2.5187,-2.5187,-2.5059,-2.5059,-2.5059,-2.5059,-2.5059,-2.5059,-2.5059,-2.5059,-2.5059,-2.5059,-2.5059,-2.5059,-2.5187,-2.545,-2.6627,-2.7161,-2.7208,-2.7542,-2.7771,-2.7956,-2.6601,-2.6457,-2.6991,-3.1982,-3.2344,-3.2764,-3.3193,-3.335,-3.3418,-3.3418,-3.3418,-3.3418,-3.3418,-3.3418,-3.3418,-3.3544,-3.367,-3.3796,-3.3922,-3.4283,-3.4659,-3.5238,-3.5497,-3.5911,-3.6821,-3.6851,-3.7013,-3.7348,-3.7626,-3.776,-3.776,-3.8037,-3.8181,-3.8181,-3.8181,-3.8181,-3.8181,-3.8181,-3.8181,-3.8181,-3.8181,-3.8181,-3.8181,-3.8181,-3.8181,-3.8181,-3.8181,-3.8181,-3.8181,-3.8181,-3.8181,-3.8181,-3.8181,-3.8181,-3.8181,-3.8181,-3.8181,-3.8181,-3.8181,-3.8181,-3.8181,-3.8181,-3.8181,-3.8181,-3.8181,-3.8181,-3.8181,-3.8181,-3.8181,-3.8181,-3.8181,-3.8181,-3.8181,-3.8181,-3.8181,-3.8181,-3.8181,-3.777,-3.7213,-3.6664,-3.5904,-3.5391,-3.5391,-3.4795,-3.331,-3.0487,-3.1506,-3.146,-2.9378,-2.8863,-2.9117,-3.0142,-2.7278,-2.5973,-2.6627,-2.5577,-2.5059,-2.5059,-2.5059,-2.5059,-2.5059,-2.5059,-2.5059,-2.5059,-2.5059,-2.5059,-2.5059,-2.5059,-2.6241,-2.8073,-2.7419,-2.783,-2.8885,-2.8043,-2.8058,-2.863,-2.8459,-2.7825,-2.7129,-3.2168,-3.25,-3.293,-3.335,-3.3418,-3.3418,-3.3418,-3.3418,-3.3418,-3.3418,-3.3418,-3.3418,-3.3418,-3.3544,-3.367,-3.367,-3.3796,-3.4236,-3.4812,-3.4842,-3.536,-3.6374,-3.6405,-3.6626,-3.7069,-3.7213,-3.7482,-3.7616,-3.777,-3.8048,-3.8181,-3.8181,-3.8181,-3.8181,-3.8181,-3.8181,-3.8191,-3.8037,-3.7914,-3.7914,-3.8006,-3.7893,0.0,-3.8068,-3.8181,-3.8181,-3.8181,-3.8181,-3.8181,-3.8181,-3.8181,-3.8181,-3.8181,-3.8181,-3.8181,-3.8181,-3.8181,-3.8181,-3.8181,-3.8181,-3.8181,-3.8181,-3.8181,-3.8181,-3.8181,-3.8181,-3.8181,-3.8181,-3.8181,-3.8181,-3.7904,-3.8048,-3.8181,-3.7904,-3.7492,-3.6944,-3.6519,-3.6061,-3.5664,-3.5664,-3.472,-3.2994,-3.0597,-3.1815,-3.1801,-2.9395,-2.9248,-2.9248,-2.9492,-2.7808,-2.6627,-2.6234,-2.6107,-2.5712,-2.5059,-2.5059,-2.5059,-2.5059,-2.5059,-2.5059,-2.5059,-2.5059,-2.5059,-2.5187,-2.5712,-2.6886,-2.8345,-2.9032,-2.9359,-2.9588,-2.8422,-2.8471,-2.898,-2.9171,-2.8676,-2.8122,-3.2334,-3.2627,-3.2998,-3.3359,-3.3418,-3.3418,-3.3418,-3.3418,-3.3418,-3.3418,-3.3418,-3.3418,-3.3418,-3.3418,-3.3447,-3.3506,-3.3506,-3.3819,-3.4507,-3.4665,-3.5162,-3.6242,-3.6222,-3.6423,-3.6934,-3.6884,-3.7153,-3.7482,-3.7616,-3.777,-3.8181,-3.8181,0.0,0.0,0.0,0.0,0.0,-3.7626,-3.7502,-3.7522,-3.7554,-3.7472,-3.7604,-3.7945,-3.8181,-3.8181,-3.8181,-3.8181,-3.8181,-3.8181,-3.8181,-3.8181,-3.8181,-3.8181,-3.8181,-3.8181,-3.8181,-3.8181,-3.8181,-3.8181,-3.8181,-3.8181,-3.8181,-3.8181,-3.8181,-3.8181,-3.8181,-3.8181,-3.8181,-3.8037,-3.7626,-3.7904,-3.7904,-3.7616,-3.7213,-3.6934,-3.6519,-3.6132,-3.6016,-3.6016,-3.4299,0.0,-3.1081,-3.1479,-3.0882,-2.9087,-2.8888,-2.8592,-2.7668,-2.8328,-2.7684,-2.5719,-2.6368,-2.6234,-2.5052,-2.5059,-2.5059,-2.5059,-2.5059,-2.5059,-2.5059,-2.5059,-2.5187,-2.545,-2.6627,-2.731,-2.7898,-3.0882,-3.1219,-3.0035,-2.9232,-2.9264,-2.9806,-2.9528,-2.9528,-2.9528,-3.3203,-3.3262,-3.334,-3.3408,-3.3418,-3.3418,-3.3418,-3.3418,-3.3418,-3.3418,-3.3418,-3.3418,-3.3418,-3.3418,-3.3564,-3.3926,-3.3965,-3.4141,-3.4691,-3.472,-3.4956,-3.5495,-3.5152,-3.5318,-3.6132,-3.6182,-3.644,-3.7213,-3.7482,-3.777,-3.8181,-3.8181,-3.8037,0.0,0.0,0.0,-3.7358,-3.7213,-3.7243,-3.7159,-3.7139,-3.7149,-3.7169,-3.7543,-3.7646,-3.776,-3.8048,-3.8181,-3.8181,-3.8181,-3.8181,-3.8181,-3.8181,-3.8181,-3.8181,-3.8181,-3.8181,-3.8181,-3.8181,-3.8181,-3.8181,-3.8181,-3.8181,-3.8181,-3.8181,-3.8181,-3.8181,-3.8181,-3.7904,-3.7626,-3.7616,-3.7492,-3.7223,-3.7213,-3.6799,-3.6529,-3.6142,-3.6016,-3.6016,-3.6016,-3.469,-3.2972,-3.1107,-3.0402,-2.952,-2.7987,-2.7579,-2.832,-3.0401,-2.7543,-2.6635,-2.8468,-2.6501,-2.5322,-2.5059,-2.5059,-2.5059,-2.5059,-2.5059,-2.5059,-2.5059,-2.5059,-2.5712,-2.6753,-2.702,-2.8635,-3.1199,-3.1797,-3.2217,-3.2449,-3.1374,-3.1869,-3.2779,-3.1508,-3.1084,-3.0943,-3.3418,-3.3418,-3.3418,-3.3418,-3.3418,-3.3418,-3.3418,-3.3418,-3.3418,-3.3418,-3.3418,-3.3506,-3.374,-3.376,-3.3935,-3.4365,-3.4394,-3.4482,-3.4687,-3.4697,-3.4912,-3.5371,-3.5176,-3.5361,-3.6006,-3.5946,-3.6196,-3.6799,-3.6934,-3.7213,-3.7636,-3.7636,-3.7492,-3.7348,0.0,-3.7213,0.0,0.0,-3.6809,-3.6839,-3.6839,-3.6744,-3.6793,-3.7264,-3.7378,-3.7388,-3.777,-3.7904,-3.7904,-3.8181,-3.8181,-3.8181,-3.8181,-3.8181,-3.8181,-3.8181,-3.8181,-3.8181,-3.8181,-3.8181,-3.8181,-3.8181,-3.8181,-3.8181,-3.8181,-3.8181,-3.8181,-3.8181,-3.7904,-3.7482,-3.7348,-3.7069,-3.6799,-3.6799,-3.6654,-3.6393,-3.6016,-3.6016,-3.6016,-3.6016,-3.4756,-3.3125,-3.1391,-3.004,-2.8826,-2.7963,-2.7455,-2.8147,-3.0451,-2.8436,-2.7551,-2.8073,-2.7551,-2.6501,-2.5052,0.0,-2.5059,-2.5059,-2.5059,-2.5059,-2.5059,-2.5846,-2.6501,-2.7153,-2.8933,-3.0584,-3.2001,-3.2414,-3.2936,-3.3358,-3.2001,-3.193,-3.236,-3.0943,-3.0376,-3.0233,-3.3418,-3.3418,-3.3418,-3.3418,-3.3418,-3.3418,-3.3418,-3.3496,-3.3525,-3.3428,-3.3506,-3.3691,-3.4033,-3.415,-3.4385,-3.4805,-3.4853,-3.4883,-3.4971,-3.498,-3.5146,-3.5508,-3.5439,-3.5596,-3.6006,-3.5937,-3.6054,-3.6519,-3.6519,-3.6664,-3.7079,-3.7079,-3.7079,-3.6944,0.0,0.0,0.0,0.0,-3.6393,-3.6393,-3.6393,-3.6443,-3.6386,-3.6839,-3.6964,-3.7004,-3.7368,-3.7482,-3.7482,-3.7904,-3.8181,-3.8181,-3.8181,-3.8181,-3.8181,-3.8181,-3.8181,-3.8181,-3.8181,-3.8181,-3.8181,-3.8181,-3.8181,-3.8181,-3.8181,-3.8181,-3.8037,-3.8037,-3.776,-3.7348,-3.7069,-3.6664,-3.6393,-3.6519,-3.6384,-3.6268,-3.6016,-3.6016,-3.6016,-3.6016,-3.4756,-3.3345,-3.207,-3.0054,-2.8787,-2.8988,-2.7908,-2.8158,-2.9924,-2.9317,-2.8577,0.0,-2.8114,-2.7286,-2.5059,0.0,-2.5059,-2.5059,-2.5059,-2.5187,-2.5584,-2.6627,-2.7451,-2.8337,-3.0891,-3.2328,-3.2814,-3.3406,-3.3898,-3.4186,-3.2919,-3.2211,-3.1789,-3.0233,-2.9528,-2.9099,-3.3418,-3.3418,-3.3418,-3.3418,-3.3418,-3.3418,-3.3418,-3.376,-3.3867,-3.3476,-3.3769,-3.4023,-3.4072,-3.4414,-3.4824,-3.5293,-3.5332,-3.5488,-3.5869,-3.5898,-3.5918,-3.5957,-3.5596,-3.5596,-3.6006,-3.5644,-3.5769,-3.6539,-3.6519,-3.6664,-3.7079,-3.7079,-3.6944,-3.6519,0.0,0.0,0.0,-3.6016,-3.6016,-3.6016,-3.6016,-3.6025,-3.6025,-3.6393,-3.6519,-3.6664,-3.6944,-3.7213,-3.7213,-3.7482,-3.7904,-3.8181,-3.8181,-3.8181,-3.8181,-3.8181,-3.8181,-3.8181,-3.8181,-3.8181,-3.8181,-3.8181,-3.8181,-3.8181,-3.8181,-3.7904,-3.7626,-3.7626,-3.7069,-3.6654,-3.6519,-3.6268,-3.6142,-3.6384,-3.6268,-3.6016,-3.6016,-3.6016,-3.6016,-3.6016,-3.4756,-3.3771,-3.3632,-3.0615,-2.9401,-3.1098,-2.9322,-2.8801,-3.0335,-2.8763,0.0,-2.9637,-2.6925,-2.5322,-2.5059,-2.5059,-2.5059,-2.5059,-2.5059,-2.5712,-2.6886,-2.702,-2.8776,-3.1507,-3.1815,-3.319,-3.5169,-3.5491,-3.5704,-3.5743,-3.5597,-3.4746,-3.3345,-3.1789,-3.0376,-2.8963,-3.3418,-3.3418,-3.3418,-3.3418,-3.3418,-3.3506,-3.3769,-3.3965,-3.4101,-3.418,-3.4336,-3.4551,-3.4834,-3.501,-3.5293,-3.5732,-3.5771,-3.584,-3.6006,-3.6016,-3.6016,-3.6016,-3.5859,-3.585,-3.6016,-3.585,-3.5985,-3.6287,-3.6278,-3.6278,-3.6413,-3.6413,-3.6413,-3.6132,0.0,-3.6016,-3.6016,-3.6016,-3.6016,-3.6016,-3.6016,-3.6016,-3.6016,-3.6142,-3.6132,-3.6268,-3.6664,-3.6799,-3.6799,-3.7213,-3.7492,-3.7904,-3.8181,-3.8181,-3.8181,-3.8181,-3.8181,-3.8181,-3.8181,-3.8181,-3.8191,-3.7924,-3.7791,-3.7791,-3.7636,-3.7358,-3.7348,-3.7348,-3.6924,-3.6384,-3.6268,-3.6152,-3.6016,-3.6142,-3.6152,-3.6016,-3.6016,-3.6016,-3.6016,-3.6016,-3.546,-3.4756,-3.3909,-3.1791,-3.036,-3.0075,-2.8178,-2.7933,-3.025,-2.8889,0.0,-2.817,0.0,-2.6345,-2.5344,-2.5337,-2.5337,-2.5337,-2.5147,-2.5418,-2.6133,-2.8,-3.0724,-3.406,-3.406,-3.4662,-3.5781,-3.5947,-3.6016,-3.6016,-3.6016,-3.4471,-3.236,-3.1789,-2.9957,-2.784,-3.3418,-3.3418,-3.3418,-3.3418,-3.3525,-3.3721,-3.4023,-3.4297,-3.456,-3.4863,-3.501,-3.5166,-3.5371,-3.5508,-3.5693,-3.5996,-3.6016,-3.6016,-3.6016,-3.6016,-3.6016,-3.6016,-3.6016,-3.6016,-3.6016,-3.6016,-3.6016,-3.6016,-3.6016,-3.6016,-3.6016,-3.6016,-3.6016,-3.6016,-3.6016,-3.6016,-3.6016,-3.6016,-3.6016,-3.6016,-3.6016,-3.6016,-3.6016,-3.6016,-3.6016,-3.6016,-3.6268,-3.6393,-3.6393,-3.6799,-3.7069,-3.7348,-3.777,-3.7914,-3.7914,-3.7914,-3.7914,-3.7904,-3.7883,-3.7883,-3.775,-3.7512,-3.7398,-3.7398,-3.7109,-3.6954,-3.6944,-3.6819,-3.6539,-3.6268,-3.6016,-3.6016,-3.6016,-3.6016,-3.6016,-3.6016,-3.6016,-3.6016,-3.6016,-3.6016,-3.6016,-3.5597,-3.4618,-3.3058,-3.1482,-3.0009,-2.8036,-2.7788,-2.9893,-2.8964,0.0,0.0,0.0,0.0,-2.5674,-2.5674,-2.5674,-2.5666,-2.5844,-2.6398,-2.7023,-3.0095,-3.2901,-3.54,-3.5527,-3.5462,-3.5314,-3.5314,-3.503,-3.4746,-3.5177,-3.3475,-3.0943,-3.1367,-2.9528,-2.6991,-3.3418,-3.3418,-3.3418,-3.3418,-3.3779,-3.4062,-3.4072,-3.4814,-3.5381,-3.5381,-3.5752,-3.585,-3.5439,-3.5762,-3.6016,-3.6016,-3.6016,-3.6016,-3.6016,-3.6016,-3.6016,-3.6016,-3.6016,-3.6016,-3.6016,-3.6016,-3.6016,-3.6016,-3.6016,-3.6016,-3.6016,0.0,-3.6016,-3.6016,-3.6016,-3.6016,-3.6016,-3.6016,-3.6016,-3.6016,-3.6016,-3.6016,-3.6016,-3.6016,-3.6016,-3.6016,-3.6016,-3.6025,-3.6016,-3.6393,-3.6509,-3.6519,-3.6944,-3.7079,-3.7079,-3.7079,-3.7079,-3.7069,-3.7143,-3.7132,-3.7143,-3.7069,-3.7129,-3.7034,-3.7034,-3.6839,-3.6384,-3.6016,-3.6016,-3.6016,-3.6016,-3.6016,-3.6016,-3.6016,-3.6016,-3.6016,-3.6016,-3.6016,-3.6016,-3.6016,-3.6016,-3.6016,-3.6016,-3.4618,-3.3116,-3.1635,-3.002,-2.9131,-2.9226,-2.8908,-2.8726,-2.871,-2.7009,0.0,-2.601,-2.601,-2.601,-2.601,-2.7509,-2.9012,-3.0395,-3.3801,-3.5381,-3.542,-3.583,-3.5177,-3.3771,-3.3771,-3.2919,-3.1649,-3.3206,-3.193,-2.9385,-3.0943,-2.9528,-2.6991,-3.3418,-3.3418,-3.3418,-3.3418,-3.3779,-3.417,-3.4453,-3.501,-3.5498,-3.5781,-3.5937,-3.5967,-3.584,-3.5937,-3.6016,-3.6016,-3.6016,-3.6016,-3.6016,-3.6016,-3.6016,-3.6016,-3.6016,-3.6016,-3.6016,-3.6016,-3.6016,-3.6016,-3.6016,-3.6016,-3.6016,-3.6016,-3.6016,-3.6016,-3.6016,-3.6016,-3.6016,-3.6016,-3.6016,-3.6016,-3.6016,-3.6016,-3.6016,-3.6016,-3.6016,-3.6016,-3.6016,-3.6016,-3.6025,-3.6142,-3.6142,-3.6142,-3.6287,-3.6684,-3.7079,-3.7079,-3.7079,-3.7079,-3.7059,-3.7059,-3.7048,-3.6789,-3.6674,-3.6694,-3.6443,-3.6297,-3.6142,-3.6016,-3.6016,-3.6016,-3.6016,-3.6016,-3.6016,-3.6016,-3.6016,-3.6016,-3.6016,-3.6016,-3.6016,-3.6016,-3.6016,-3.6016,-3.6016,-3.4618,-3.3179,-3.1554,-3.0026,-2.8629,-2.7498,-2.7438,-2.7387,-2.6922,-2.671,0.0,-2.6393,-2.6365,-2.6344,-2.6337,-2.6638,-2.8098,-3.0897,-3.3221,-3.4897,-3.583,-3.5957,-3.5177,-3.3771,-3.3771,-3.2919,-3.1508,-3.207,-3.0935,-2.9242,-2.9814,-2.8683,-2.6991,-3.3418,-3.3418,-3.3418,-3.3418,-3.3916,-3.4394,-3.4658,-3.5234,-3.5723,-3.5986,-3.6016,-3.6016,-3.6016,-3.6016,-3.6016,-3.6016,-3.6016,-3.6016,-3.6016,-3.6016,-3.6016,-3.6016,-3.6016,-3.6016,-3.6016,-3.6016,0.0,-3.6016,-3.6016,-3.6016,-3.6016,-3.6016,-3.6016,-3.6016,-3.6016,-3.6016,-3.6016,-3.6016,-3.6016,-3.6016,-3.6016,-3.6016,-3.6016,-3.6016,-3.6016,-3.6016,-3.6016,-3.6016,-3.6016,-3.6016,-3.6016,-3.6016,-3.6016,-3.6287,-3.6684,-3.6684,-3.6684,-3.6684,-3.6684,-3.6684,-3.6684,-3.6403,-3.6258,-3.6268,-3.6016,-3.6016,-3.6016,-3.6016,-3.6016,-3.6016,-3.6016,-3.6016,-3.6016,-3.6016,-3.6016,-3.6016,-3.6016,-3.6016,-3.6016,-3.6016,-3.6016,-3.6016,-3.6016,-3.5177,-3.4001,-3.248,-3.1474,-3.0107,-2.8493,-2.7535,-2.7119,-2.7199,-2.7097,-2.6866,-2.6746,-2.6685,-2.6655,-2.6648,-2.7613,-2.9806,-3.2965,-3.4037,-3.5087,-3.6016,-3.6016,-3.4893,-3.2919,-3.2919,-3.1649,-2.9814,-3.0376,-2.9671,-2.8395,-2.8963,-2.8259,-2.6991,-3.3418,-3.3418,-3.3418,-3.3418,-3.4131,-3.4697,-3.4697,-3.5449,-3.6016,-3.6016,-3.6016,-3.6016,-3.6016,-3.6016,-3.6016,-3.6016,-3.6016,-3.6016,-3.6016,-3.6016,-3.6016,-3.6016,-3.6016,-3.6016,-3.6016,-3.6016,-3.6016,-3.6016,-3.6016,-3.6016,-3.6016,-3.6016,-3.6016,-3.6016,-3.6016,-3.6016,-3.6016,-3.6016,-3.6016,-3.6016,-3.6016,-3.6016,-3.6016,-3.6016,-3.6016,-3.6016,-3.6016,-3.6016,-3.6016,-3.6016,-3.6016,-3.6016,-3.6016,-3.6016,-3.6016,-3.6016,-3.6016,-3.6016,-3.6016,-3.6016,-3.6016,-3.6016,-3.6016,-3.6016,-3.6016,-3.6016,-3.6016,-3.6016,-3.6016,-3.6016,-3.6016,-3.6016,-3.6016,-3.6016,-3.6016,-3.6016,-3.6016,-3.6016,-3.6016,-3.6016,-3.6016,-3.6016,-3.6016,-3.6016,-3.5335,-3.3914,-3.3826,-3.3148,0.0,0.0,-2.7924,-2.925,-2.797,-2.7319,-2.7158,-2.7158,-2.7151,-2.6998,-3.0171,-3.3012,-3.5587,-3.5879,-3.5879,-3.5879,-3.5879,-3.4186,-3.1508,-3.1367,-2.9679,-2.7129,-2.8539,-2.8259,-2.7129,-2.8539,-2.8114,-2.6991,0.0,0.0,-3.3418,-3.3418,-3.4131,-3.4697,-3.4697,-3.5449,-3.6016,-3.6016,-3.6016,-3.6016,-3.6016,-3.6016,-3.6016,-3.6016,-3.6016,-3.6016,-3.6016,-3.6016,-3.6016,-3.6016,-3.6016,-3.6016,-3.6016,-3.6016,-3.6016,-3.6016,-3.6016,-3.6016,-3.6016,-3.6016,-3.6016,-3.6016,-3.6016,-3.6016,-3.6016,-3.6016,-3.6016,-3.6016,-3.6016,-3.6016,-3.6016,-3.6016,-3.6016,-3.6016,-3.6016,-3.6016,-3.6016,-3.6016,-3.6016,-3.6016,-3.6016,-3.6016,-3.6016,-3.6016,-3.6016,-3.6016,-3.6016,-3.6016,-3.6016,-3.6016,-3.6016,-3.6016,-3.6016,-3.6016,-3.6016,-3.6016,-3.6016,-3.6016,-3.6016,-3.6016,-3.6016,-3.6016,-3.6016,-3.6016,-3.6016,-3.6016,-3.6016,-3.6016,-3.6016,-3.6016,-3.6016,-3.6016,-3.5422,-3.3946,-3.3752,-3.365,-3.3345,-3.1494,-3.0626,-3.0901,-3.0636,-2.9912,-2.8696,-2.8696,-2.8175,-2.6991,-3.129,-3.2367,-3.0958,-3.4424,-3.546,-3.4333,-3.4333,-3.3206,-3.1367,-3.0233,-2.8683,-2.6991,-2.7412,-2.7274,-2.6991,-2.7412,-2.7274,-2.6991,-3.3418,-3.3418,-3.3418,-3.3418,-3.4131,-3.4697,-3.4697,-3.5449,-3.6016,-3.6016,-3.6016,-3.6016,-3.6016,-3.6016,-3.6016,-3.6016,-3.6016,-3.6016,-3.6016,-3.6016,-3.6016,-3.6016,-3.6016,-3.6016,-3.6016,-3.6016,-3.6016,-3.6016,-3.6016,-3.6016,-3.6016,-3.6016,-3.6016,-3.6016,-3.6016,-3.6016,-3.6016,-3.6016,-3.6016,-3.6016,-3.6016,-3.6016,-3.6016,-3.6016,-3.6016,-3.6016,-3.6016,-3.6016,-3.6016,-3.6016,-3.6016,-3.6016,-3.6016,-3.6016,-3.6016,-3.6016,-3.6016,-3.6016,-3.6016,-3.6016,-3.6016,-3.6016,-3.6016,-3.6016,-3.6016,-3.6016,-3.6016,-3.6016,-3.6016,-3.6016,-3.6016,-3.6016,-3.6016,-3.6016,-3.6016,-3.6016,-3.6016,-3.6016,-3.6016,-3.6016,-3.6016,-3.6016,-3.6016,-3.6016,-3.5606,-3.4893,-3.4756,-3.4756,-3.4756,-3.4065,-3.3284,-3.2574,-3.1913,-3.1084,-3.0219,-3.0189,-3.0181,-3.0194,-3.1841,-3.257,-3.2402,-3.34,-3.3872,-3.3826,-3.3076,-3.193,-3.0376,-2.952,-2.8395,-2.6991,-2.6991,-2.6991,-2.6991,-2.6991,-2.6991,-2.6991,-3.3418,-3.3418,-3.3418,-3.3418,-3.4131,-3.4697,-3.4697,-3.5449,-3.6016,-3.6016,-3.6016,-3.6016,-3.6016,-3.6016,-3.6016,-3.6016,-3.6016,-3.6016,-3.6016,-3.6016,-3.6016,-3.6016,-3.6016,-3.6016,-3.6016,-3.6016,-3.6016,-3.6016,-3.6016,-3.6016,-3.6016,-3.6016,-3.6016,-3.6016,-3.6016,-3.6016,-3.6016,-3.6016,-3.6016,-3.6016,-3.6016,-3.6016,-3.6016,-3.6016,-3.6016,-3.6016,-3.6016,-3.6016,-3.6016,-3.6016,-3.6016,-3.6016,-3.6016,-3.6016,-3.6016,-3.6016,-3.6016,-3.6016,-3.6016,-3.6016,-3.6016,-3.6016,-3.6016,-3.6016,-3.6016,-3.6016,-3.6016,-3.6016,-3.6016,-3.6016,-3.6016,-3.6016,-3.6016,-3.6016,-3.6016,-3.6016,-3.6016,-3.6016,-3.6016,-3.6016,-3.6016,-3.6016,-3.6016,-3.6016,-3.6016,-3.6016,-3.6016,-3.6016,-3.6016,-3.6016,-3.5471,-3.4223,-3.2838,-3.2123,-3.1806,-3.18,-3.2349,-3.3476,-3.2587,-3.3269,-3.5177,-3.2948,-3.2403,-3.3305,-3.1815,-3.0376,-2.9242,-2.8963,-2.8122,-2.6991,-2.6991,-2.6991,-2.6991,-2.6991,-2.6991,-2.6991,-3.3418,-3.3418,-3.3418,-3.3418,-3.4131,-3.4697,-3.4697,-3.5449,-3.6016,-3.6016,-3.6016,-3.6016,-3.6016,-3.6016,-3.6016,-3.6016,-3.6016,-3.6016,-3.6016,-3.6016,-3.6016,-3.6016,-3.6016,-3.6016,-3.6016,-3.6016,-3.6016,-3.6016,-3.6016,-3.6016,-3.6016,-3.6016,-3.6016,-3.6016,-3.6016,-3.6016,-3.6016,-3.6016,-3.6016,-3.6016,-3.6016,-3.6016,-3.6016,-3.6016,-3.6016,-3.6016,-3.6016,-3.6016,-3.6016,-3.6016,-3.6016,-3.6016,-3.6016,-3.6016,-3.6016,-3.6016,-3.6016,-3.6016,-3.6016,-3.6016,-3.6016,-3.6016,-3.6016,-3.6016,-3.6016,-3.6016,-3.6016,-3.6016,-3.6016,-3.6016,-3.6016,-3.6016,-3.6016,-3.6016,-3.6016,-3.6016,-3.6016,-3.6016,-3.6016,-3.6016,-3.6016,-3.6016,-3.6016,-3.6016,-3.6016,-3.6016,-3.6016,-3.6016,-3.6016,-3.6016,-3.586,-3.5665,-3.5471,-3.4755,-3.3511,-3.3449,-3.2941,-3.1878,-3.4167,-3.4278,-3.2211,-3.3094,-3.2815,-3.1807,-3.0242,-2.9385,-2.9099,-2.7833,-2.7274,-2.6991,-2.6991,-2.6991,-2.6991,-2.6991,-2.6991,-2.6991,-3.3418,-3.3418,-3.3418,-3.3418,-3.3945,-3.4434,-3.4668,-3.5264,-3.5762,-3.5986,-3.6016,-3.6016,-3.6016,-3.6016,-3.6016,-3.6016,-3.6016,-3.6016,-3.6016,-3.6016,-3.6016,-3.6016,-3.6016,-3.6016,-3.6016,-3.6016,-3.6016,-3.6016,-3.6016,-3.6016,-3.6016,-3.6016,-3.6016,-3.6016,-3.6016,-3.6016,-3.6016,-3.6016,-3.6016,-3.6016,-3.6016,-3.6016,-3.6016,-3.6016,-3.6016,-3.6016,-3.6016,-3.6016,-3.6016,-3.6016,-3.6016,-3.6016,-3.6016,-3.6016,-3.6016,-3.6016,-3.6016,-3.6016,-3.6016,-3.6016,-3.6016,-3.6016,-3.6016,-3.6016,-3.6016,-3.6016,-3.6016,-3.6016,-3.6016,-3.6016,-3.6016,-3.6016,-3.6016,-3.6016,-3.6016,-3.6016,-3.6016,-3.6016,-3.6016,-3.6016,-3.6016,-3.6016,-3.6016,-3.6016,-3.6016,-3.6016,-3.6016,-3.6016,-3.6016,-3.6016,-3.6016,-3.6016,-3.6016,-3.5665,-3.4957,-3.4964,-3.4699,-3.389,-3.4562,-3.4048,-3.2779,-3.1789,-3.0943,-3.0233,-2.8683,-2.7977,-2.7977,-2.7274,-2.6991,-2.6991,-2.6991,-2.6991,-2.6991,-2.6991,-2.6991,-2.6991,-3.3418,-3.3418,-3.3418,-3.3418,-3.3779,-3.418,-3.4502,-3.5029,-3.5508,-3.583,-3.5957,-3.6016,-3.6016,-3.6016,-3.6016,-3.6016,-3.6016,-3.6016,-3.6016,-3.6016,-3.6016,-3.6016,-3.6016,-3.6016,-3.6016,-3.6016,-3.6016,-3.6016,-3.6016,-3.6016,-3.6016,-3.6016,-3.6016,-3.6016,-3.6016,-3.6016,-3.6016,-3.6016,-3.6016,-3.6016,-3.6016,-3.6016,-3.6016,-3.6016,-3.6016,-3.6016,-3.6016,-3.6016,-3.6016,-3.6016,-3.6016,-3.6016,-3.6016,-3.6016,-3.6016,-3.6016,-3.6016,-3.6016,-3.6016,-3.6016,-3.6016,-3.6016,-3.6016,-3.6016,-3.6016,-3.6016,-3.6016,-3.6016,-3.6016,-3.6016,-3.6016,-3.6016,-3.6016,-3.6016,-3.6016,-3.6016,-3.6016,-3.6016,-3.6016,-3.6016,-3.6016,-3.6016,-3.6016,-3.6016,-3.6016,-3.6016,-3.6016,-3.6016,-3.6016,-3.6016,-3.6016,-3.6016,-3.6016,-3.6016,-3.6016,-3.6016,-3.6016,-3.6016,-3.4471,-3.3771,-3.3632,-3.066,-2.9242,-2.9099,-2.7695,-2.6991,-2.6991,-2.6991,-2.6991,-2.6991,-2.6991,-2.6991,-2.6991,-2.6991,-2.6991,-2.6991,-3.3418,-3.3418,-3.3418,-3.3418,-3.3779,-3.4082,-3.4111,-3.4844,-3.54,-3.543,-3.5781,-3.6016,-3.6016,-3.6016,-3.6016,-3.6016,-3.6016,-3.6016,-3.6016,-3.6016,-3.6016,-3.6016,-3.6016,-3.6016,-3.6016,-3.6016,-3.6016,-3.6016,-3.6016,-3.6016,-3.6016,-3.6016,-3.6016,-3.6016,-3.6016,-3.6016,-3.6016,-3.6016,-3.6016,-3.6016,-3.6016,-3.6016,-3.6016,-3.6016,-3.6016,-3.6016,-3.6016,-3.6016,-3.6016,-3.6016,-3.6016,-3.6016,-3.6016,-3.6016,-3.6016,-3.6016,-3.6016,-3.6016,-3.6016,-3.6016,-3.6016,-3.6016,-3.6016,-3.6016,-3.6016,-3.6016,-3.6016,-3.6016,-3.6016,-3.6016,-3.6016,-3.6016,-3.6016,-3.6016,-3.6016,-3.6016,-3.6016,-3.6016,-3.6016,-3.6016,-3.6016,-3.6016,-3.6016,-3.6016,-3.6016,-3.6016,-3.6016,-3.6016,-3.6016,-3.6016,-3.6016,-3.6016,-3.6016,-3.6016,-3.6016,-3.6016,-3.6016,-3.6016,-3.4471,-3.3771,-3.3632,-3.066,-2.9242,-2.9099,-2.7695,-2.6991,-2.6991,-2.6991,-2.6991,-2.6991,-2.6991,-2.6991,-2.6991,-2.6991,-2.6991,-2.6991,-3.3418,-3.3418,-3.3418,-3.3418,-3.3555,-3.376,-3.4033,-3.4355,-3.4668,-3.4932,-3.5351,-3.5635,-3.5635,-3.5869,-3.6016,-3.6016,-3.6016,-3.6016,-3.6016,-3.6016,-3.6016,-3.6016,-3.6016,-3.6016,-3.6016,-3.6016,-3.6016,-3.6016,-3.6016,-3.6016,-3.6016,-3.6016,-3.6016,-3.6016,-3.6016,-3.6016,-3.6016,-3.6016,-3.6016,-3.6016,-3.6016,-3.6016,-3.6016,-3.6016,-3.6016,-3.6016,-3.6016,-3.6016,-3.6016,-3.6016,-3.6016,-3.6016,-3.6016,-3.6016,-3.6016,-3.6016,-3.6016,-3.6016,-3.6016,-3.6016,-3.6016,-3.6016,-3.6016,-3.6016,-3.6016,-3.6016,-3.6016,-3.6016,-3.6016,-3.6016,-3.6016,-3.6016,-3.6016,-3.6016,-3.6016,-3.6016,-3.6016,-3.6016,-3.6016,-3.6016,-3.6016,-3.6016,-3.6016,-3.6016,-3.6016,-3.6016,-3.6016,-3.6016,-3.6016,-3.6016,-3.6016,-3.6016,-3.6016,-3.6016,-3.6016,-3.6016,-3.6016,-3.6016,-3.4471,-3.3345,-3.236,-3.0233,-2.8683,-2.784,-2.7274,-2.6991,-2.6991,-2.6991,-2.6991,-2.6991,-2.6991,-2.6991,-2.6991,-2.6991,-2.6991,-2.6991,-3.3418,-3.3418,-3.3418,-3.3418,-3.3418,-3.3525,-3.3828,-3.3984,-3.418,-3.4463,-3.4892,-3.5234,-3.5371,-3.5654,-3.5879,-3.6006,-3.6016,-3.6016,-3.6016,-3.6016,-3.6016,-3.6016,-3.6016,-3.6016,-3.6016,-3.6016,-3.6016,-3.6016,-3.6016,-3.6016,-3.6016,-3.6016,-3.6016,-3.6016,-3.6016,-3.6016,-3.6016,-3.6016,-3.6016,-3.6016,-3.6016,-3.6016,-3.6016,-3.6016,-3.6016,-3.6016,-3.6016,-3.6016,-3.6016,-3.6016,-3.6016,-3.6016,-3.6016,-3.6016,-3.6016,-3.6016,-3.6016,-3.6016,-3.6016,-3.6016,-3.6016,-3.6016,-3.6016,-3.6016,-3.6016,-3.6016,-3.6016,-3.6016,-3.6016,-3.6016,-3.6016,-3.6016,-3.6016,-3.6016,-3.6016,-3.6016,-3.6016,-3.6016,-3.6016,-3.6016,-3.6016,-3.6016,-3.6016,-3.6016,-3.6016,-3.6016,-3.6016,-3.6016,-3.6016,-3.6016,-3.6016,-3.6016,-3.6016,-3.6016,-3.6016,-3.6016,-3.6016,-3.6016,-3.4471,-3.2927,-3.1508,-2.9949,-2.8395,-2.6991,-2.6991,-2.6991,-2.6991,-2.6991,-2.6991,-2.6991,-2.6991,-2.6991,-2.6991,-2.6991,-2.6991,-2.6991,-3.3418,-3.3418,-3.3418,-3.3418,-3.3418,-3.3418,-3.3418,-3.3789,-3.4062,-3.4062,-3.4434,-3.4873,-3.5332,-3.5391,-3.5557,-3.5976,-3.6016,-3.6016,-3.6016,-3.6016,-3.6016,-3.6016,-3.6016,-3.6016,-3.6016,-3.6016,-3.6016,-3.6016,-3.6016,-3.6016,-3.6016,-3.6016,-3.6016,-3.6016,-3.6016,-3.6016,-3.6016,-3.6016,-3.6016,-3.6016,-3.6016,-3.6016,-3.6016,-3.6016,-3.6016,-3.6016,-3.6016,-3.6016,-3.6016,-3.6016,-3.6016,-3.6016,-3.6016,-3.6016,-3.6016,-3.6016,-3.6016,-3.6016,-3.6016,-3.6016,-3.6016,-3.6016,-3.6016,-3.6016,-3.6016,-3.6016,-3.6016,-3.6016,-3.6016,-3.6016,-3.6016,-3.6016,-3.6016,-3.6016,-3.6016,-3.6016,-3.6016,-3.6016,-3.6016,-3.6016,-3.6016,-3.6016,-3.6016,-3.6016,-3.6016,-3.6016,-3.6016,-3.6016,-3.6016,-3.6016,-3.6016,-3.6016,-3.6016,-3.6016,-3.6016,-3.6016,-3.6016,-3.6016,-3.4471,-3.2919,-3.1508,-2.9949,-2.8403,-2.6991,-2.6991,-2.6991,-2.6991,-2.6991,-2.6991,-2.6991,-2.6991,-2.6991,-2.6991,-2.6991,-2.6991,-2.6991,-3.3418,-3.3418,-3.3418,-3.3418,-3.3418,-3.3418,-3.3418,-3.3535,-3.3613,-3.3613,-3.3994,-3.4316,-3.4453,-3.5019,-3.5449,-3.5566,-3.585,-3.6016,-3.6016,-3.6016,-3.6016,-3.6016,-3.6016,-3.6016,-3.6016,-3.6016,-3.6016,-3.6016,-3.6016,-3.6016,-3.6016,-3.6016,-3.6016,-3.6016,-3.6016,-3.6016,-3.6016,-3.6016,-3.6016,-3.6016,-3.6016,-3.6016,-3.6016,-3.6016,-3.6016,-3.6016,-3.6016,-3.6016,-3.6016,-3.6016,-3.6016,-3.6016,-3.6016,-3.6016,-3.6016,-3.6016,-3.6016,-3.6016,-3.6016,-3.6016,-3.6016,-3.6016,-3.6016,-3.6016,-3.6016,-3.6016,-3.6016,-3.6016,-3.6016,-3.6016,-3.6016,-3.6016,-3.6016,-3.6016,-3.6016,-3.6016,-3.6016,-3.6016,-3.6016,-3.6016,-3.6016,-3.6016,-3.6016,-3.6016,-3.6016,-3.6016,-3.6016,-3.6016,-3.6016,-3.6016,-3.6016,-3.6016,-3.6016,-3.6016,-3.6016,-3.6016,-3.6016,-3.6025,-3.3475,-3.193,-3.1367,-2.8827,-2.7412,-2.6991,-2.6991,-2.6991,-2.6991,-2.6991,-2.6991,-2.6991,-2.6991,-2.6991,-2.6991,-2.6991,-2.6991,-2.6991,-3.3418,-3.3418,-3.3418,-3.3418,-3.3418,-3.3418,-3.3418,-3.3418,-3.3418,-3.3418,-3.3652,-3.3877,-3.4053,-3.4551,-3.501,-3.5361,-3.5771,-3.6016,-3.6016,-3.6016,-3.6016,-3.6016,-3.6016,-3.6016,-3.6016,-3.6016,-3.6016,-3.6016,-3.6016,-3.6016,-3.6016,-3.6016,-3.6016,-3.6016,-3.6016,-3.6016,-3.6016,-3.6016,-3.6016,-3.6016,-3.6016,-3.6016,-3.6016,-3.6016,-3.6016,-3.6016,-3.6016,-3.6016,-3.6016,-3.6016,-3.6016,-3.6016,-3.6016,-3.6016,-3.6016,-3.6016,-3.6016,-3.6016,-3.6016,-3.6016,-3.6016,-3.6016,-3.6016,-3.6016,-3.6016,-3.6016,-3.6016,-3.6016,-3.6016,-3.6016,-3.6016,-3.6016,-3.6016,-3.6016,-3.6016,-3.6016,-3.6016,-3.6016,-3.6016,-3.6016,-3.6016,-3.6016,-3.6016,-3.6016,-3.6016,-3.6016,-3.6016,-3.6016,-3.6016,-3.6016,-3.6016,-3.6016,-3.6016,-3.6016,-3.6016,-3.6016,-3.6016,-3.6016,-3.4186,-3.263,-3.1508,-2.9671,-2.8122,-2.6991,-2.6991,-2.6991,-2.6991,-2.6991,-2.6991,-2.6991,-2.6991,-2.6991,-2.6991,-2.6991,-2.6991,-2.6991,-3.3418,-3.3418,-3.3418,-3.3418,-3.3418,-3.3418,-3.3418,-3.3418,-3.3418,-3.3418,-3.3418,-3.3574,-3.3975,-3.4053,-3.4404,-3.5205,-3.5693,-3.5967,-3.5967,-3.5996,-3.6016,-3.6016,-3.6016,-3.6016,-3.6016,-3.6016,-3.6016,-3.6016,-3.6016,-3.6016,-3.6016,-3.6016,-3.6016,-3.6016,-3.6016,-3.6016,-3.6016,-3.6016,-3.6016,-3.6016,-3.6016,-3.6016,-3.6016,-3.6016,-3.6016,-3.6016,-3.6016,-3.6016,-3.6016,-3.6016,-3.6016,-3.6016,-3.6016,-3.6016,-3.6016,-3.6016,-3.6016,-3.6016,-3.6016,-3.6016,-3.6016,-3.6016,-3.6016,-3.6016,-3.6016,-3.6016,-3.6016,-3.6016,-3.6016,-3.6016,-3.6016,-3.6016,-3.6016,-3.6016,-3.6016,-3.6016,-3.6016,-3.6016,-3.6016,-3.6016,-3.6016,-3.6016,-3.6016,-3.6016,-3.6016,-3.6016,-3.6016,-3.6016,-3.6016,-3.6016,-3.6016,-3.6016,-3.6016,-3.6016,-3.6016,-3.6016,-3.6016,-3.6016,-3.5879,-3.4324,-3.1649,-3.1367,-2.9814,-2.7129,-2.6991,-2.6991,-2.6991,-2.6991,-2.6991,-2.6991,-2.6991,-2.6991,-2.6991,-2.6991,-2.6991,-2.6991,-3.3418,-3.3418,-3.3418,-3.3418,-3.3418,-3.3418,-3.3418,-3.3418,-3.3418,-3.3418,-3.3418,-3.3457,-3.3555,-3.3867,-3.415,-3.4346,-3.5078,-3.5527,-3.5527,-3.584,-3.6016,-3.6016,-3.6016,-3.6016,-3.6016,-3.6016,-3.6016,-3.6016,-3.6016,-3.6016,-3.6016,-3.6016,-3.6016,-3.6016,-3.6016,-3.6016,-3.6016,-3.6016,-3.6016,-3.6016,-3.6016,-3.6016,-3.6016,-3.6016,-3.6016,-3.6016,-3.6016,-3.6016,-3.6016,-3.6016,-3.6016,-3.6016,-3.6016,-3.6016,-3.6016,-3.6016,-3.6016,-3.6016,-3.6016,-3.6016,-3.6016,-3.6016,-3.6016,-3.6016,-3.6016,-3.6016,-3.6016,-3.6016,-3.6016,-3.6016,-3.6016,-3.6016,-3.6016,-3.6016,-3.6016,-3.6016,-3.6016,-3.6016,-3.6016,-3.6016,-3.6016,-3.6016,-3.6016,-3.6016,-3.6016,-3.6016,-3.6016,-3.6016,-3.6016,-3.6016,-3.6016,-3.6016,-3.6016,-3.6016,-3.6016,-3.6016,-3.6016,-3.6025,-3.4893,-3.3909,-3.3206,-3.0793,-2.9385,-2.8683,-2.7558,-2.6991,-2.6991,-2.6991,-2.6991,-2.6991,-2.6991,-2.6991,-2.6991,-2.6991,-2.6991,-2.6991,-3.3418,-3.3418,-3.3418,-3.3418,-3.3418,-3.3418,-3.3418,-3.3418,-3.3418,-3.3418,-3.3418,-3.3418,-3.3418,-3.3623,-3.3848,-3.4053,-3.4678,-3.5068,-3.5068,-3.5264,-3.5391,-3.5391,-3.5391,-3.5488,-3.5723,-3.5723,-3.582,-3.6016,-3.6016,-3.6016,-3.6016,-3.6016,-3.6016,-3.6016,-3.6016,-3.6016,-3.6016,-3.6016,-3.6016,-3.6016,-3.6016,-3.6016,-3.6016,-3.6016,-3.6016,-3.6016,-3.6016,-3.6016,-3.6016,-3.6016,-3.6016,-3.6016,-3.6016,-3.6016,-3.6016,-3.6016,-3.6016,-3.6016,-3.6016,-3.6016,-3.6016,-3.6016,-3.6016,-3.6016,-3.6016,-3.6016,-3.6016,-3.6016,-3.6016,-3.6016,-3.6016,-3.6016,-3.6016,-3.6016,-3.6016,-3.6016,-3.6016,-3.6016,-3.6016,-3.6016,-3.6016,-3.6016,-3.6016,-3.6016,-3.6016,-3.6016,-3.6016,-3.6016,-3.6016,-3.6016,-3.6016,-3.6016,-3.6016,-3.6016,-3.6016,-3.6016,-3.6016,-3.6016,-3.5177,-3.4471,-3.3771,-3.1367,-2.9949,-2.9099,-2.7695,-2.6991,-2.6991,-2.6991,-2.6991,-2.6991,-2.6991,-2.6991,-2.6991,-2.6991,-2.6991,-2.6991,-3.3418,-3.3418,-3.3418,-3.3418,-3.3418,-3.3418,-3.3418,-3.3418,-3.3418,-3.3418,-3.3418,-3.3418,-3.3418,-3.3418,-3.3574,-3.3935,-3.4346,-3.459,-3.459,-3.4658,-3.4697,-3.4697,-3.4697,-3.4883,-3.5264,-3.5273,-3.5517,-3.6016,-3.6016,-3.6016,-3.6016,-3.5947,-3.5908,-3.5908,-3.583,-3.5801,-3.5801,-3.5801,-3.5801,-3.5801,-3.5801,-3.5801,-3.5801,-3.5801,-3.5801,-3.5801,-3.5801,-3.585,-3.5928,-3.5996,-3.6016,-3.6016,-3.6016,-3.6016,-3.6016,-3.6016,-3.6016,-3.6016,-3.6016,-3.6016,-3.6016,-3.6016,-3.6016,-3.6016,-3.6016,-3.6016,-3.6016,-3.6016,-3.6016,-3.6016,-3.6016,-3.6016,-3.6016,-3.6016,-3.6016,-3.6016,-3.6016,-3.6016,-3.6016,-3.6016,-3.6016,-3.6016,-3.6016,-3.6016,-3.6016,-3.6016,-3.6016,-3.6016,-3.6016,-3.6016,-3.6016,-3.6016,-3.6016,-3.6016,-3.6016,-3.6016,-3.6016,-3.6016,-3.6016,-3.5314,-3.4057,-3.2639,-3.1076,-2.9528,-2.7977,-2.7274,-2.6991,-2.6991,-2.6991,-2.6991,-2.6991,-2.6991,-2.6991,-2.6991,-2.6991,-2.6991,-3.3418,-3.3418,-3.3418,-3.3418,-3.3418,-3.3418,-3.3418,-3.3418,-3.3418,-3.3418,-3.3418,-3.3418,-3.3418,-3.3418,-3.3447,-3.3506,-3.3906,-3.416,-3.416,-3.4502,-3.4697,-3.4697,-3.4697,-3.4726,-3.4795,-3.4795,-3.5195,-3.6016,-3.6016,-3.6016,-3.6016,-3.5644,-3.5478,-3.5459,-3.5059,-3.4883,-3.4883,-3.4883,-3.4883,-3.4883,-3.4883,-3.4883,-3.4883,-3.4883,-3.4883,-3.4883,-3.4883,-3.5137,-3.5537,-3.5898,-3.6016,-3.6016,-3.6016,-3.6016,-3.6016,-3.6016,-3.6016,-3.6016,-3.6016,-3.6016,-3.6016,-3.6016,-3.6016,-3.6016,-3.6016,-3.6016,-3.6016,-3.6016,-3.6016,-3.6016,-3.6016,-3.6016,-3.6016,-3.6016,-3.6016,-3.6016,-3.6016,-3.6016,-3.6016,-3.6016,-3.6016,-3.6016,-3.6016,-3.6016,-3.6016,-3.6016,-3.6016,-3.6016,-3.6016,-3.6016,-3.6016,-3.6016,-3.6016,-3.6016,-3.6016,-3.6016,-3.6016,-3.6016,-3.6016,-3.5879,-3.5597,-3.4186,-3.2639,-3.1084,-2.9528,-2.8114,-2.6991,-2.6991,-2.6991,-2.6991,-2.6991,-2.6991,-2.6991,-2.6991,-2.6991,-2.6991,-3.3418,-3.3418,-3.3418,-3.3418,-3.3418,-3.3418,-3.3418,-3.3418,-3.3418,-3.3418,-3.3418,-3.3418,-3.3418,-3.3418,-3.3418,-3.3418,-3.3603,-3.3711,-3.3711,-3.3887,-3.3984,-3.3984,-3.3984,-3.4101,-3.4346,-3.4346,-3.4658,-3.5283,-3.5283,-3.5283,-3.5283,-3.5088,-3.501,-3.499,-3.4795,-3.4697,-3.4697,-3.4697,-3.4697,-3.4697,-3.4697,-3.4697,-3.4697,-3.4697,-3.4697,-3.4736,-3.499,-3.5215,-3.5459,-3.5879,-3.6016,-3.6016,-3.6016,-3.6016,-3.6016,-3.6016,-3.585,-3.5674,-3.5674,-3.5674,-3.5674,-3.5674,-3.585,-3.6016,-3.6016,-3.6016,-3.6016,-3.6016,-3.6016,-3.6016,-3.6016,-3.6016,-3.6016,-3.6016,-3.6016,-3.6016,-3.6016,-3.6016,-3.6016,-3.6016,-3.6016,-3.6016,-3.6016,-3.6016,-3.6016,-3.6016,-3.6016,-3.6016,-3.6016,-3.6016,-3.6016,-3.6016,-3.6016,-3.6016,-3.6016,-3.6016,-3.6016,-3.6016,-3.6016,-3.6016,-3.5879,-3.4471,-3.2919,-3.1367,-2.9806,-2.8403,-2.6991,-2.6991,-2.6991,-2.6991,-2.6991,-2.6991,-2.6991,-2.6991,-2.6991,-2.6991]},{"header":{"parameterUnit":"m.s-1","parameterCategory":1,"la1":30.6,"la2":28.766,"lo1":-90.7593,"lo2":-88.6598,"dy":0.0162,"dx":0.0183,"nx":116,"ny":114,"refTime":"2023-06-17T00:00:00:Z","depth":0,"parameterNumber":3,"parameterNumberName":"V-component_of_WINDS"},"data":[0.0,0.0,0.0,0.0,0.0,0.0,0.0,0.0,0.0,0.0,0.0,0.0,0.0,0.0,0.0,0.0,0.0,0.0,0.0,0.0,0.0,0.0,0.0,0.0,0.0,0.0,0.0,0.0,0.0,0.0,0.0,0.0,0.0,0.0,0.0,0.0,0.0,0.0,0.0,0.0,0.0,0.0,0.0,0.0,0.0,0.0,0.0,0.0,0.0,0.0,0.0,0.0,0.0,0.0,0.0,0.0,0.0,0.0,0.0,0.0,0.0,0.0,0.0,0.0,0.0,0.0,0.0,0.0,0.0,0.0,0.0,0.0,0.0,0.0,0.0,0.0,0.0,0.0,0.0,0.0,0.0,0.0,0.0,0.0,0.0,0.0,0.0,0.0,0.0,0.0,0.0,0.0,0.0,0.0,0.0,0.0,0.0,0.0,0.0,0.0,0.0,0.0,0.0,0.0,0.0,0.0,0.0,0.0,0.0,0.0,0.0,0.0,0.0,0.0,0.0,0.0,0.0,0.0,0.0,0.0,0.0,0.0,0.0,0.0,0.0,0.0,0.0,0.0,0.0,0.0,0.0,0.0,0.0,0.0,0.0,0.0,0.0,0.0,0.0,0.0,0.0,0.0,0.0,0.0,0.0,0.0,0.0,0.0,0.0,0.0,0.0,0.0,0.0,0.0,0.0,0.0,0.0,0.0,0.0,0.0,0.0,0.0,0.0,0.0,0.0,0.0,0.0,0.0,0.0,0.0,0.0,0.0,0.0,0.0,0.0,0.0,0.0,0.0,0.0,0.0,0.0,0.0,0.0,0.0,0.0,0.0,0.0,0.0,0.0,0.0,0.0,0.0,0.0,0.0,0.0,0.0,0.0,0.0,0.0,0.0,0.0,0.0,0.0,0.0,0.0,0.0,0.0,0.0,0.0,0.0,0.0,0.0,0.0,0.0,0.0,0.0,0.0,0.0,0.0,0.0,0.0,0.0,0.0,0.0,0.0,0.0,0.0,0.0,0.0,0.0,0.0,0.0,0.0,0.0,0.0,0.0,0.0,0.0,0.0,0.0,0.0,0.0,0.0,0.0,0.0,0.0,0.0,0.0,0.0,0.0,0.0,0.0,0.0,0.0,0.0,0.0,0.0,0.0,0.0,0.0,0.0,0.0,0.0,0.0,0.0,0.0,0.0,0.0,0.0,0.0,0.0,0.0,0.0,0.0,0.0,0.0,0.0,0.0,0.0,0.0,0.0,0.0,0.0,0.0,0.0,0.0,0.0,0.0,0.0,0.0,0.0,0.0,0.0,0.0,0.0,0.0,0.0,0.0,0.0,0.0,0.0,0.0,0.0,0.0,0.0,0.0,0.0,0.0,0.0,0.0,0.0,0.0,0.0,0.0,0.0,0.0,0.0,0.0,0.0,0.0,0.0,0.0,0.0,0.0,0.0,0.0,0.0,0.0,0.0,0.0,0.0,0.0,0.0,0.0,0.0,0.0,0.0,0.0,0.0,0.0,0.0,0.0,0.0,0.0,0.0,0.0,0.0,0.0,0.0,0.0,0.0,0.0,0.0,0.0,0.0,0.0,0.0,0.0,0.0,0.0,0.0,0.0,0.0,0.0,0.0,0.0,0.0,0.0,0.0,0.0,0.0,0.0,0.0,0.0,0.0,0.0,0.0,0.0,0.0,0.0,0.0,0.0,0.0,0.0,0.0,0.0,0.0,0.0,0.0,0.0,0.0,0.0,0.0,0.0,0.0,0.0,0.0,0.0,0.0,0.0,0.0,0.0,0.0,0.0,0.0,0.0,0.0,0.0,0.0,0.0,0.0,0.0,0.0,0.0,0.0,0.0,0.0,0.0,0.0,0.0,0.0,0.0,0.0,0.0,0.0,0.0,0.0,0.0,0.0,0.0,0.0,0.0,0.0,0.0,0.0,0.0,0.0,0.0,0.0,0.0,0.0,0.0,0.0,0.0,0.0,0.0,0.0,0.0,0.0,0.0,0.0,0.0,0.0,0.0,0.0,0.0,0.0,0.0,0.0,0.0,0.0,0.0,0.0,0.0,0.0,0.0,0.0,0.0,0.0,0.0,0.0,0.0,0.0,0.0,0.0,0.0,0.0,0.0,0.0,0.0,0.0,0.0,0.0,0.0,0.0,0.0,0.0,0.0,0.0,0.0,0.0,0.0,0.0,0.0,0.0,0.0,0.0,0.0,0.0,0.0,0.0,0.0,0.0,0.0,0.0,0.0,0.0,0.0,0.0,0.0,0.0,0.0,0.0,0.0,0.0,0.0,0.0,0.0,0.0,0.0,0.0,0.0,0.0,0.0,0.0,0.0,0.0,0.0,0.0,0.0,0.0,0.0,0.0,0.0,0.0,0.0,0.0,0.0,0.0,0.0,0.0,0.0,0.0,0.0,0.0,0.0,0.0,0.0,0.0,0.0,0.0,0.0,0.0,0.0,0.0,0.0,0.0,0.0,0.0,0.0,0.0,0.0,0.0,0.0,0.0,0.0,0.0,0.0,0.0,0.0,0.0,0.0,0.0,0.0,0.0,0.0,0.0,0.0,0.0,0.0,0.0,0.0,0.0,0.0,0.0,0.0,0.0,0.0,0.0,0.0,0.0,0.0,0.0,0.0,0.0,0.0,0.0,0.0,0.0,0.0,0.0,0.0,0.0,0.0,0.0,0.0,0.0,0.0,0.0,0.0,0.0,0.0,0.0,0.0,0.0,0.0,0.0,0.0,0.0,0.0,0.0,0.0,0.0,0.0,0.0,0.0,0.0,0.0,0.0,0.0,0.0,0.0,0.0,0.0,0.0,0.0,0.0,0.0,0.0,0.0,0.0,0.0,0.0,0.0,0.0,0.0,0.0,0.0,0.0,0.0,0.0,0.0,0.0,0.0,0.0,0.0,0.0,0.0,0.0,0.0,0.0,0.0,0.0,0.0,0.0,0.0,0.0,0.0,0.0,0.0,0.0,0.0,0.0,0.0,0.0,0.0,0.0,0.0,0.0,0.0,0.0,0.0,0.0,0.0,0.0,0.0,0.0,0.0,0.0,0.0,0.0,0.0,0.0,0.0,0.0,0.0,0.0,0.0,0.0,0.0,0.0,0.0,0.0,0.0,0.0,0.0,0.0,0.0,0.0,0.0,0.0,0.0,0.0,0.0,0.0,0.0,0.0,0.0,0.0,0.0,0.0,0.0,0.0,0.0,0.0,0.0,0.0,0.0,0.0,0.0,0.0,0.0,0.0,0.0,0.0,0.0,0.0,0.0,0.0,0.0,0.0,0.0,0.0,0.0,0.0,0.0,0.0,0.0,0.0,0.0,0.0,0.0,0.0,0.0,0.0,0.0,0.0,0.0,0.0,0.0,0.0,0.0,0.0,0.0,0.0,0.0,0.0,0.0,0.0,0.0,0.0,0.0,0.0,0.0,0.0,0.0,0.0,0.0,0.0,0.0,0.0,0.0,0.0,0.0,0.0,0.0,0.0,0.0,0.0,0.0,0.0,0.0,0.0,0.0,0.0,0.0,0.0,0.0,0.0,0.0,0.0,0.0,0.0,0.0,0.0,0.0,0.0,0.0,0.0,0.0,0.0,0.0,0.0,0.0,0.0,0.0,0.0,0.0,0.0,0.0,0.0,0.0,0.0,0.0,0.0,0.0,0.0,0.0,0.0,0.0,0.0,0.0,0.0,0.0,0.0,0.0,0.0,0.0,0.0,0.0,0.0,0.0,0.0,0.0,0.0,0.0,0.0,0.0,0.0,0.0,0.0,0.0,0.0,0.0,0.0,0.0,0.0,0.0,0.0,0.0,0.0,0.0,0.0,0.0,0.0,0.0,0.0,0.0,0.0,0.0,0.0,0.0,0.0,0.0,0.0,0.0,0.0,0.0,0.0,0.0,0.0,0.0,0.0,0.0,0.0,0.0,0.0,0.0,0.0,0.0,0.0,0.0,0.0,0.0,0.0,0.0,0.0,0.0,0.0,0.0,0.0,0.0,0.0,0.0,0.0,0.0,0.0,0.0,0.0,0.0,0.0,0.0,0.0,0.0,0.0,0.0,0.0,0.0,0.0,0.0,0.0,0.0,0.0,0.0,0.0,0.0,0.0,0.0,0.0,0.0,0.0,0.0,0.0,0.0,0.0,0.0,0.0,0.0,0.0,0.0,0.0,0.0,0.0,0.0,0.0,0.0,0.0,0.0,0.0,0.0,0.0,0.0,0.0,0.0,0.0,0.0,0.0,0.0,0.0,0.0,0.0,0.0,0.0,0.0,0.0,0.0,0.0,0.0,0.0,0.0,0.0,0.0,0.0,0.0,0.0,0.0,0.0,0.0,0.0,0.0,0.0,0.0,0.0,0.0,0.0,0.0,0.0,0.0,0.0,0.0,0.0,0.0,0.0,0.0,0.0,0.0,0.0,0.0,0.0,0.0,0.0,0.0,0.0,0.0,0.0,0.0,0.0,0.0,0.0,0.0,0.0,0.0,0.0,0.0,0.0,0.0,0.0,0.0,0.0,0.0,0.0,0.0,0.0,0.0,0.0,0.0,0.0,0.0,0.0,0.0,0.0,0.0,0.0,0.0,0.0,0.0,0.0,0.0,0.0,0.0,0.0,0.0,0.0,0.0,0.0,0.0,0.0,0.0,0.0,0.0,0.0,0.0,0.0,0.0,0.0,0.0,0.0,0.0,0.0,0.0,0.0,0.0,0.0,0.0,0.0,0.0,0.0,0.0,0.0,0.0,0.0,0.0,0.0,0.0,0.0,0.0,0.0,0.0,0.0,0.0,0.0,0.0,0.0,0.0,0.0,0.0,0.0,0.0,0.0,0.0,0.0,0.0,0.0,0.0,0.0,0.0,0.0,0.0,0.0,0.0,0.0,0.0,0.0,0.0,0.0,0.0,0.0,0.0,0.0,0.0,0.0,0.0,0.0,0.0,0.0,0.0,0.0,0.0,0.0,0.0,0.0,0.0,0.0,0.0,0.0,0.0,0.0,0.0,0.0,0.0,0.0,0.0,0.0,0.0,0.0,0.0,0.0,0.0,0.0,0.0,0.0,0.0,0.0,0.0,0.0,0.0,0.0,0.0,0.0,0.0,0.0,0.0,0.0,0.0,0.0,0.0,0.0,0.0,0.0,0.0,0.0,0.0,0.0,0.0,0.0,0.0,0.0,0.0,0.0,0.0,0.0,0.0,0.0,0.0,0.0,0.0,0.0,0.0,0.0,0.0,0.0,0.0,0.0,0.0,0.0,0.0,0.0,0.0,0.0,0.0,0.0,0.0,0.0,0.0,0.0,0.0,0.0,0.0,0.0,0.0,0.0,0.0,0.0,0.0,0.0,0.0,0.0,0.0,0.0,0.0,0.0,0.0,0.0,0.0,0.0,0.0,0.0,0.0,0.0,0.0,0.0,0.0,0.0,0.0,0.0,0.0,0.0,0.0,0.0,0.0,0.0,0.0,0.0,0.0,0.0,0.0,0.0,0.0,0.0,0.0,0.0,0.0,0.0,0.0,0.0,0.0,0.0,0.0,0.0,0.0,0.0,0.0,0.0,0.0,0.0,0.0,0.0,0.0,0.0,0.0,0.0,0.0,0.0,0.0,0.0,0.0,0.0,0.0,0.0,0.0,0.0,0.0,0.0,0.0,0.0,0.0,0.0,0.0,0.0,0.0,0.0,0.0,0.0,0.0,0.0,0.0,0.0,0.0,0.0,0.0,0.0,0.0,0.0,0.0,0.0,0.0,0.0,0.0,0.0,0.0,0.0,0.0,0.0,0.0,0.0,0.0,0.0,0.0,0.0,0.0,0.0,0.0,0.0,0.0,0.0,0.0,0.0,0.0,0.0,0.0,0.0,0.0,0.0,0.0,0.0,0.0,0.0,0.0,0.0,0.0,0.0,0.0,0.0,0.0,0.0,0.0,0.0,0.0,0.0,0.0,0.0,0.0,0.0,0.0,0.0,0.0,0.0,0.0,0.0,0.0,0.0,0.0,0.0,0.0,0.0,0.0,0.0,0.0,0.0,0.0,0.0,0.0,0.0,0.0,0.0,0.0,0.0,0.0,0.0,0.0,0.0,0.0,0.0,0.0,0.0,0.0,0.0,0.0,0.0,0.0,-4.8285,-4.822,0.0,0.0,0.0,0.0,0.0,0.0,0.0,0.0,0.0,0.0,0.0,0.0,0.0,0.0,0.0,0.0,0.0,0.0,0.0,0.0,0.0,0.0,0.0,0.0,0.0,0.0,0.0,0.0,0.0,0.0,0.0,0.0,0.0,0.0,0.0,0.0,0.0,0.0,0.0,0.0,0.0,0.0,0.0,0.0,0.0,0.0,0.0,0.0,0.0,0.0,0.0,0.0,0.0,0.0,0.0,0.0,0.0,0.0,0.0,0.0,0.0,0.0,0.0,0.0,0.0,0.0,0.0,0.0,0.0,0.0,0.0,0.0,0.0,0.0,0.0,0.0,0.0,0.0,0.0,0.0,0.0,0.0,0.0,0.0,0.0,0.0,0.0,0.0,0.0,0.0,0.0,0.0,0.0,0.0,0.0,0.0,0.0,0.0,0.0,0.0,0.0,0.0,0.0,0.0,0.0,0.0,0.0,0.0,0.0,0.0,0.0,0.0,0.0,0.0,-4.7475,-4.7475,0.0,0.0,0.0,0.0,0.0,0.0,0.0,0.0,0.0,0.0,0.0,0.0,0.0,0.0,0.0,0.0,0.0,0.0,0.0,0.0,0.0,0.0,0.0,0.0,0.0,0.0,0.0,0.0,0.0,0.0,0.0,0.0,0.0,0.0,0.0,0.0,0.0,0.0,0.0,0.0,0.0,0.0,0.0,0.0,0.0,0.0,0.0,0.0,0.0,0.0,0.0,0.0,0.0,0.0,0.0,0.0,0.0,0.0,0.0,0.0,0.0,0.0,0.0,0.0,0.0,0.0,0.0,0.0,0.0,0.0,0.0,0.0,0.0,0.0,0.0,0.0,0.0,0.0,0.0,0.0,0.0,0.0,0.0,0.0,0.0,0.0,0.0,0.0,0.0,0.0,0.0,0.0,0.0,0.0,0.0,0.0,0.0,0.0,0.0,0.0,0.0,0.0,0.0,0.0,0.0,0.0,0.0,0.0,-4.8722,-4.835,-4.7815,-4.7945,-4.767,-4.7087,-4.7216,-4.72,-4.7087,-4.7087,0.0,0.0,0.0,0.0,0.0,0.0,0.0,0.0,0.0,0.0,0.0,0.0,0.0,0.0,0.0,0.0,0.0,0.0,0.0,0.0,0.0,0.0,0.0,0.0,0.0,0.0,0.0,0.0,0.0,0.0,0.0,0.0,0.0,0.0,0.0,0.0,0.0,0.0,0.0,0.0,0.0,0.0,0.0,0.0,0.0,0.0,0.0,0.0,0.0,0.0,0.0,0.0,0.0,0.0,0.0,0.0,0.0,0.0,0.0,0.0,0.0,0.0,0.0,0.0,0.0,0.0,0.0,0.0,0.0,0.0,0.0,0.0,0.0,0.0,0.0,0.0,0.0,0.0,0.0,0.0,0.0,0.0,0.0,0.0,0.0,0.0,-4.5121,-4.431,0.0,0.0,0.0,0.0,0.0,0.0,0.0,0.0,0.0,0.0,0.0,0.0,0.0,-4.9189,-4.9452,-4.8911,-4.8458,-4.8139,-4.7475,-4.7119,-4.7054,-4.7718,-4.7961,-4.7896,-4.8479,0.0,-4.7864,-4.7864,0.0,0.0,0.0,0.0,0.0,0.0,0.0,0.0,0.0,0.0,0.0,0.0,0.0,0.0,0.0,0.0,0.0,0.0,0.0,0.0,0.0,0.0,0.0,0.0,0.0,0.0,0.0,0.0,0.0,0.0,0.0,0.0,0.0,0.0,0.0,0.0,0.0,0.0,0.0,0.0,0.0,0.0,0.0,-4.7959,-4.7977,-4.8115,0.0,0.0,0.0,0.0,0.0,0.0,0.0,0.0,0.0,0.0,0.0,0.0,0.0,0.0,0.0,0.0,0.0,0.0,0.0,0.0,0.0,0.0,0.0,0.0,0.0,0.0,0.0,0.0,0.0,0.0,0.0,0.0,0.0,0.0,0.0,0.0,0.0,0.0,0.0,-4.4912,-4.431,-4.3998,-4.3822,-4.3763,0.0,0.0,0.0,0.0,0.0,0.0,0.0,0.0,0.0,-4.7984,-4.8315,-4.843,-4.8404,-4.8144,-4.7844,-4.7533,-4.7582,-4.7598,-4.7631,-4.8307,-4.8576,-4.8592,-4.8884,-4.9078,-4.9159,-4.8738,-4.8754,-4.903,0.0,0.0,0.0,0.0,-5.0359,-5.1691,0.0,0.0,0.0,0.0,0.0,0.0,0.0,0.0,0.0,0.0,0.0,0.0,0.0,0.0,0.0,0.0,0.0,0.0,0.0,0.0,0.0,0.0,0.0,0.0,0.0,0.0,0.0,0.0,0.0,0.0,0.0,0.0,0.0,0.0,0.0,0.0,-4.7302,-4.7276,-4.7276,0.0,0.0,0.0,0.0,0.0,0.0,0.0,0.0,0.0,0.0,0.0,0.0,0.0,0.0,0.0,0.0,0.0,0.0,0.0,0.0,0.0,0.0,0.0,0.0,0.0,0.0,0.0,0.0,0.0,0.0,0.0,0.0,0.0,0.0,0.0,0.0,0.0,0.0,-4.4056,-4.3898,-4.3822,-4.3687,-4.3694,0.0,0.0,0.0,0.0,0.0,0.0,-4.6874,-4.7073,-4.7438,-4.7984,-4.8001,-4.7869,-4.7537,-4.7654,-4.767,-4.7528,-4.7965,-4.8307,-4.8572,-4.9037,-4.9289,-4.9377,-4.9499,-4.9888,-5.0325,-4.9596,-4.9402,-4.958,-4.958,-4.9909,-5.0319,-4.9782,-5.0529,-5.1676,0.0,0.0,0.0,0.0,0.0,0.0,0.0,0.0,0.0,0.0,0.0,0.0,0.0,0.0,0.0,0.0,0.0,0.0,0.0,0.0,0.0,0.0,0.0,0.0,0.0,0.0,0.0,0.0,0.0,0.0,0.0,0.0,0.0,0.0,0.0,0.0,0.0,-4.7205,-4.7196,-4.7178,0.0,0.0,0.0,0.0,0.0,0.0,0.0,0.0,0.0,0.0,0.0,0.0,0.0,0.0,0.0,0.0,0.0,0.0,0.0,0.0,0.0,0.0,0.0,0.0,0.0,0.0,0.0,0.0,0.0,0.0,0.0,0.0,0.0,0.0,0.0,0.0,0.0,0.0,0.0,-4.3628,-4.3628,0.0,0.0,0.0,0.0,-4.5682,-4.6427,-4.6858,-4.6891,-4.7554,-4.7968,-4.8001,-4.8001,-4.7935,-4.7704,-4.7704,-4.7916,-4.8453,-4.8262,-4.8637,-4.9567,-4.9872,-5.0107,-5.0359,-5.0853,-5.1086,-5.107,-5.0341,-5.0455,-5.107,-5.107,-5.141,-5.1816,-5.1278,-5.176,-5.2736,0.0,0.0,0.0,0.0,0.0,0.0,0.0,0.0,0.0,0.0,0.0,0.0,0.0,0.0,0.0,0.0,0.0,0.0,0.0,0.0,0.0,0.0,0.0,0.0,0.0,0.0,0.0,0.0,0.0,0.0,0.0,0.0,0.0,0.0,0.0,0.0,0.0,0.0,-4.7088,-4.7088,-4.7043,-4.7043,0.0,0.0,0.0,0.0,0.0,0.0,0.0,0.0,0.0,0.0,0.0,0.0,0.0,0.0,0.0,0.0,0.0,0.0,0.0,0.0,0.0,0.0,0.0,0.0,0.0,0.0,0.0,0.0,0.0,0.0,0.0,0.0,0.0,0.0,0.0,0.0,0.0,-4.3628,-4.4026,0.0,-4.4655,-4.5549,-4.6212,-4.6493,-4.7189,-4.7603,-4.7603,-4.7868,-4.8001,-4.8001,-4.8001,-4.7919,-4.7704,-4.8332,-4.8628,-4.8672,-4.9608,-5.0199,-5.0479,-5.0855,-5.1034,-5.1108,-5.1145,-5.1183,-5.1167,-5.0908,-5.0957,-5.1183,-5.1183,-5.1317,-5.145,-5.1258,-5.1655,-5.2345,0.0,0.0,0.0,0.0,0.0,0.0,0.0,0.0,0.0,0.0,0.0,0.0,0.0,0.0,0.0,0.0,0.0,0.0,0.0,0.0,0.0,0.0,0.0,0.0,0.0,0.0,0.0,0.0,0.0,0.0,0.0,0.0,0.0,0.0,0.0,0.0,0.0,0.0,0.0,0.0,-4.6998,-4.6998,-4.6998,0.0,0.0,0.0,0.0,0.0,0.0,0.0,0.0,0.0,0.0,0.0,0.0,0.0,0.0,0.0,0.0,0.0,0.0,0.0,0.0,0.0,0.0,0.0,0.0,0.0,0.0,0.0,0.0,0.0,0.0,0.0,0.0,0.0,0.0,-4.3687,-4.3711,-4.3959,-4.439,-4.4887,-4.5384,-4.6328,-4.7007,-4.7255,-4.7719,-4.8001,-4.8001,-4.8001,-4.8001,-4.8001,-4.8001,-4.8051,-4.815,-4.8795,-4.9275,-4.9618,-5.0537,-5.1201,-5.1465,-5.1565,-5.1647,-5.1647,-5.1483,-5.1333,-5.1275,-5.1275,-5.1258,-5.1183,-5.1183,-5.1183,-5.1183,-5.1183,-5.145,-5.1858,0.0,0.0,0.0,0.0,0.0,0.0,0.0,0.0,0.0,0.0,0.0,0.0,0.0,0.0,0.0,0.0,0.0,0.0,0.0,0.0,0.0,0.0,0.0,0.0,0.0,0.0,0.0,0.0,0.0,0.0,0.0,0.0,0.0,0.0,0.0,0.0,0.0,0.0,0.0,0.0,0.0,-4.6998,-4.6998,0.0,0.0,0.0,0.0,0.0,0.0,0.0,0.0,0.0,0.0,0.0,0.0,0.0,0.0,0.0,0.0,0.0,0.0,0.0,0.0,0.0,0.0,0.0,0.0,0.0,0.0,0.0,0.0,0.0,0.0,0.0,0.0,0.0,-4.3628,-4.3645,-4.391,-4.4605,-4.4721,-4.5317,-4.6758,-4.6924,-4.7222,-4.7951,-4.8001,-4.8001,-4.8001,-4.8001,-4.8001,-4.8001,-4.8017,-4.8382,-4.9094,-4.916,-4.9889,-5.128,-5.1102,-5.1553,-5.239,-5.2013,-5.1941,-5.2102,-5.1868,-5.1721,-5.1499,-5.1499,-5.135,-5.1183,-5.1183,-5.1183,-5.1183,-5.1183,-5.1258,-5.1392,0.0,0.0,0.0,0.0,0.0,0.0,0.0,0.0,0.0,0.0,0.0,0.0,0.0,0.0,0.0,0.0,0.0,0.0,0.0,0.0,0.0,0.0,0.0,0.0,0.0,0.0,0.0,0.0,0.0,0.0,0.0,0.0,0.0,0.0,0.0,0.0,0.0,0.0,0.0,0.0,0.0,0.0,-4.6998,0.0,0.0,0.0,0.0,0.0,0.0,0.0,0.0,0.0,0.0,0.0,0.0,0.0,0.0,0.0,0.0,0.0,0.0,0.0,0.0,0.0,0.0,0.0,0.0,0.0,0.0,0.0,0.0,0.0,0.0,0.0,-4.3628,-4.3628,-4.3628,-4.4075,-4.4473,-4.4671,-4.5632,-4.6444,-4.6858,-4.7388,-4.7785,-4.7984,-4.8001,-4.8001,-4.8001,-4.8001,-4.8001,-4.8001,-4.8531,-4.8895,-4.911,-5.0154,-5.0883,-5.128,-5.1827,-5.2175,-5.2373,-5.2158,-5.203,-5.2102,-5.1868,-5.1721,-5.1499,-5.1499,-5.135,-5.1183,-5.1183,-5.1183,-5.1183,-5.1183,-5.1655,-5.2416,0.0,0.0,0.0,0.0,0.0,0.0,0.0,0.0,0.0,0.0,0.0,0.0,0.0,0.0,0.0,0.0,0.0,0.0,0.0,0.0,0.0,0.0,0.0,0.0,0.0,0.0,0.0,0.0,0.0,0.0,0.0,0.0,0.0,0.0,0.0,0.0,0.0,0.0,0.0,0.0,0.0,0.0,-4.6998,-4.6998,-4.6998,-4.6998,-4.6998,-4.6998,-4.6998,-4.6998,0.0,0.0,0.0,0.0,0.0,0.0,0.0,0.0,0.0,0.0,0.0,0.0,0.0,0.0,0.0,0.0,0.0,0.0,0.0,0.0,0.0,0.0,0.0,0.0,-4.4075,-4.4175,-4.4489,-4.4622,-4.492,-4.5533,-4.6378,-4.7023,-4.7322,-4.7752,-4.8001,-4.8001,-4.8001,-4.8001,-4.8001,-4.8001,-4.815,-4.8465,-4.8895,-4.9409,-5.0005,-5.085,-5.1429,-5.1744,-5.2175,-5.2373,-5.239,-5.2318,-5.2247,-5.2247,-5.2086,-5.1941,-5.1721,-5.1721,-5.1573,-5.135,0.0,0.0,0.0,0.0,-5.2076,-5.2836,0.0,0.0,0.0,0.0,0.0,0.0,0.0,0.0,0.0,0.0,0.0,0.0,0.0,0.0,0.0,0.0,0.0,0.0,0.0,0.0,0.0,0.0,0.0,0.0,0.0,0.0,0.0,0.0,0.0,0.0,0.0,0.0,0.0,0.0,0.0,0.0,0.0,0.0,0.0,0.0,0.0,0.0,-4.7116,-4.707,-4.7088,-4.7025,-4.698,-4.6998,-4.6998,-4.6998,0.0,0.0,0.0,0.0,0.0,0.0,0.0,0.0,0.0,0.0,0.0,0.0,0.0,0.0,0.0,0.0,0.0,0.0,0.0,0.0,0.0,0.0,0.0,0.0,-4.4754,-4.5069,-4.5814,-4.5351,-4.5417,-4.6742,-4.6974,-4.7272,-4.7934,-4.8001,-4.8001,-4.8001,-4.8001,-4.8001,-4.8001,-4.8084,0.0,0.0,0.0,-4.9972,-5.1264,-5.1363,-5.1728,-5.2373,-5.2373,-5.2373,-5.2373,-5.2373,-5.2373,-5.2373,-5.2373,-5.2318,-5.2102,-5.2102,-5.1884,-5.1499,-5.1258,-5.1183,-5.1258,-5.1712,-5.2274,-5.2784,0.0,0.0,0.0,0.0,0.0,0.0,0.0,0.0,0.0,0.0,0.0,0.0,0.0,0.0,0.0,0.0,0.0,0.0,0.0,0.0,0.0,0.0,0.0,0.0,0.0,0.0,0.0,0.0,0.0,0.0,0.0,0.0,0.0,0.0,0.0,0.0,0.0,0.0,0.0,0.0,0.0,0.0,-4.7788,-4.7511,-4.7425,-4.7381,-4.7088,-4.6998,-4.6998,-4.6998,-4.6998,-4.6998,-4.6998,0.0,0.0,0.0,0.0,0.0,0.0,0.0,0.0,0.0,0.0,0.0,0.0,0.0,0.0,0.0,0.0,0.0,0.0,0.0,0.0,-4.4671,-4.5185,-4.5831,-4.6576,-4.656,-4.6576,-4.6874,-4.7421,-4.7835,-4.7984,-4.8001,-4.8001,-4.8001,-4.8001,-4.8001,-4.8001,-4.8564,-4.8961,-4.911,-5.0237,-5.0982,-5.128,-5.1877,-5.2241,-5.2373,-5.2373,0.0,-5.2373,-5.2373,-5.2373,-5.2373,-5.2373,-5.2318,-5.2102,-5.2102,-5.1957,-5.1721,-5.1333,-5.1183,-5.1183,-5.1317,-5.1729,-5.2357,0.0,0.0,0.0,0.0,0.0,0.0,0.0,0.0,0.0,0.0,0.0,0.0,0.0,0.0,0.0,0.0,0.0,0.0,0.0,0.0,0.0,0.0,0.0,0.0,0.0,0.0,0.0,0.0,0.0,0.0,0.0,0.0,0.0,0.0,0.0,0.0,0.0,0.0,0.0,0.0,0.0,0.0,-4.8172,-4.7663,-4.7511,-4.7468,-4.7116,-4.6998,-4.6998,-4.6998,-4.6998,-4.6998,-4.7088,-4.7043,-4.7025,0.0,0.0,0.0,0.0,0.0,0.0,0.0,0.0,0.0,0.0,0.0,0.0,0.0,0.0,-4.3727,-4.4092,0.0,-4.4532,-4.5603,-4.5746,-4.6175,-4.7274,-4.7454,-4.7454,-4.7454,-4.7785,-4.8001,-4.8001,-4.8001,-4.8001,-4.8001,-4.8001,-4.8166,-4.8531,-4.8912,-4.9442,-5.0171,-5.0899,-5.1446,-5.1827,-5.2191,-5.2373,-5.2373,-5.2373,-5.2373,-5.2373,-5.2373,-5.2373,-5.2373,-5.2373,-5.2318,-5.223,-5.2013,-5.1941,-5.1868,-5.1408,-5.1258,-5.1382,-5.1948,-5.249,-5.3152,0.0,0.0,0.0,0.0,0.0,0.0,0.0,0.0,0.0,0.0,0.0,0.0,0.0,0.0,0.0,0.0,0.0,0.0,0.0,0.0,0.0,0.0,0.0,0.0,0.0,0.0,0.0,0.0,0.0,0.0,0.0,0.0,0.0,0.0,0.0,0.0,0.0,0.0,0.0,0.0,0.0,0.0,-4.8421,-4.7811,-4.7554,-4.7468,-4.7116,-4.6998,-4.698,-4.7043,-4.7043,-4.7043,-4.7178,-4.707,-4.6916,-4.7214,-4.631,0.0,0.0,0.0,0.0,0.0,0.0,0.0,0.0,-4.3628,-4.3628,-4.3628,-4.3727,-4.4009,-4.4572,-4.447,-4.4836,-4.6628,-4.6504,-4.6584,-4.7852,-4.8001,-4.8001,-4.8001,-4.8001,-4.8001,-4.8001,-4.8001,-4.8001,-4.8001,-4.8001,-4.8315,-4.9061,-4.9243,-4.9922,-5.1231,-5.1413,-5.1777,-5.2373,-5.2373,-5.2373,-5.2373,-5.2373,-5.2373,-5.2373,-5.2373,-5.2373,-5.2373,-5.2373,-5.2373,-5.2373,-5.2069,-5.2013,-5.2119,-5.1704,-5.1694,-5.1925,-5.2704,-5.3353,-5.4078,0.0,0.0,0.0,0.0,0.0,0.0,0.0,0.0,0.0,0.0,0.0,0.0,0.0,0.0,0.0,0.0,0.0,0.0,0.0,0.0,0.0,0.0,0.0,0.0,0.0,0.0,0.0,0.0,0.0,0.0,0.0,0.0,0.0,0.0,0.0,0.0,0.0,0.0,0.0,0.0,0.0,0.0,-4.8785,-4.8172,-4.7747,-4.7468,-4.7116,-4.6998,-4.7043,-4.7151,-4.7196,-4.7178,-4.7294,-4.6863,-4.6519,-4.7107,0.0,-4.4855,-4.5355,-4.4563,-4.3628,-4.3628,-4.3628,-4.3628,0.0,-4.3628,-4.3628,-4.3628,-4.4125,-4.4589,-4.4671,-4.5686,-4.6628,-4.6874,-4.7373,-4.7836,-4.8001,-4.8001,-4.8001,-4.8001,-4.8001,-4.8001,-4.8001,-4.8001,-4.8001,-4.8001,-4.8001,-4.8315,-4.9061,-4.974,-5.0452,-5.1247,-5.191,-5.2307,-5.2373,-5.2373,-5.2373,-5.2373,-5.2373,-5.2373,-5.2373,-5.2373,-5.2373,-5.2373,-5.2373,-5.2373,-5.239,-5.2373,-5.2373,-5.2368,-5.2745,-5.2935,-5.2967,-5.2768,-5.3041,-5.3815,0.0,0.0,0.0,0.0,0.0,0.0,0.0,0.0,0.0,0.0,0.0,0.0,0.0,0.0,0.0,0.0,0.0,0.0,0.0,0.0,0.0,0.0,0.0,0.0,0.0,0.0,0.0,0.0,0.0,0.0,0.0,0.0,0.0,0.0,0.0,0.0,0.0,0.0,0.0,0.0,0.0,0.0,-4.8885,-4.8621,-4.8176,-4.7669,-4.7232,-4.7133,0.0,0.0,-4.7249,-4.7294,-4.7363,-4.7151,-4.6908,-4.7017,-4.6213,0.0,-4.4708,-4.4179,-4.3763,-4.3628,-4.3628,-4.3628,-4.3628,-4.3628,-4.3744,-4.4158,-4.4473,-4.4953,-4.5814,-4.6124,-4.6536,-4.7389,-4.744,-4.7488,-4.7935,-4.8001,-4.8001,-4.8001,-4.8001,-4.8001,-4.8001,-4.8001,-4.8001,-4.8001,-4.8398,-4.8961,-4.9707,-5.0436,-5.1164,-5.1893,-5.2224,-5.2373,-5.2373,-5.2373,-5.2373,-5.2373,-5.2373,-5.2373,-5.2373,-5.2373,-5.2373,-5.2373,-5.2373,-5.2373,-5.239,-5.223,-5.2318,-5.2456,-5.286,-5.3387,-5.3981,-5.3957,-5.4284,-5.4936,0.0,0.0,0.0,0.0,0.0,0.0,0.0,0.0,0.0,0.0,0.0,0.0,0.0,0.0,0.0,0.0,0.0,0.0,0.0,0.0,0.0,0.0,0.0,0.0,0.0,0.0,0.0,0.0,0.0,0.0,0.0,0.0,0.0,0.0,0.0,0.0,0.0,0.0,0.0,0.0,0.0,0.0,-4.9034,-4.8949,-4.8549,-4.7999,-4.756,-4.7338,0.0,0.0,-4.7363,-4.7363,-4.7511,-4.7363,-4.7107,-4.6954,-4.6262,-4.5303,-4.4253,-4.3956,-4.3839,-4.3628,-4.3628,-4.3628,-4.3628,-4.3777,-4.4059,-4.4572,-4.5003,-4.5616,-4.6692,-4.6553,-4.6716,-4.7836,-4.7488,-4.7337,-4.7935,-4.8001,-4.8001,-4.8001,-4.8001,-4.8001,-4.8001,-4.8001,-4.8084,-4.8299,-4.8812,-4.9508,-5.0452,-5.0999,-5.1612,-5.2357,-5.2373,-5.2373,-5.2373,-5.2373,-5.2373,-5.2373,-5.2373,-5.2373,-5.2373,-5.2373,-5.2373,-5.2373,-5.2373,-5.2373,-5.239,-5.2247,-5.2247,-5.2473,-5.3091,-5.3857,-5.4551,-5.5249,-5.5595,-5.5815,0.0,0.0,0.0,0.0,0.0,0.0,0.0,0.0,0.0,0.0,0.0,0.0,0.0,0.0,0.0,0.0,0.0,0.0,0.0,0.0,0.0,0.0,0.0,0.0,0.0,0.0,0.0,0.0,0.0,0.0,0.0,0.0,0.0,0.0,0.0,0.0,0.0,0.0,0.0,0.0,0.0,0.0,-4.9365,-4.9015,-4.8674,-4.8346,-4.798,0.0,0.0,0.0,-4.7511,-4.7511,-4.7657,-4.7258,0.0,-4.6863,-4.6049,-4.4947,-4.431,-4.3998,-4.3839,-4.3628,-4.3628,-4.3628,-4.3628,-4.4158,-4.4655,-4.4688,-4.5831,-4.6841,-4.6891,-4.7487,-4.7968,-4.8001,-4.8001,-4.8001,-4.8001,-4.8001,-4.8001,-4.8001,-4.8001,-4.8001,-4.8001,-4.8001,-4.8299,-4.9011,-4.9094,-4.974,-5.1164,-5.1264,-5.1612,-5.2357,-5.2373,-5.2373,-5.2373,-5.2373,-5.2373,-5.2373,-5.2373,-5.2373,-5.2373,-5.2373,-5.2373,-5.2373,-5.2373,-5.2373,-5.2373,-5.2373,-5.2373,-5.2523,-5.393,-5.4494,-5.4692,-5.6133,-5.643,-5.6211,0.0,0.0,0.0,0.0,0.0,0.0,0.0,0.0,0.0,0.0,0.0,0.0,0.0,0.0,0.0,0.0,0.0,0.0,0.0,0.0,0.0,0.0,0.0,0.0,0.0,0.0,0.0,0.0,0.0,0.0,0.0,0.0,0.0,0.0,0.0,0.0,0.0,0.0,0.0,0.0,0.0,0.0,-4.9712,-4.9617,-4.9358,-4.9005,0.0,0.0,0.0,0.0,0.0,0.0,-4.7675,-4.7302,-4.6707,-4.6049,-4.5337,-4.4703,-4.431,-4.4155,-4.3998,-4.3822,-4.4052,-4.4324,-4.4324,-4.4887,-4.5566,-4.6046,-4.6543,-4.7057,-4.7537,-4.7835,-4.8001,-4.8001,-4.8001,-4.8001,-4.8001,-4.8001,-4.8001,-4.8001,-4.8001,-4.8001,-4.8001,-4.8001,-4.8315,-4.9044,-4.9558,-5.027,-5.1231,-5.1744,-5.2125,-5.2373,-5.2373,-5.2373,-5.2373,-5.2373,-5.2373,-5.2373,-5.2373,-5.2373,-5.2373,-5.2373,-5.2373,-5.2373,-5.2373,-5.2373,-5.2373,-5.2373,-5.2373,-5.2523,-5.3964,-5.4527,-5.4692,-5.615,-5.6541,-5.6385,0.0,0.0,0.0,0.0,0.0,0.0,0.0,0.0,0.0,0.0,0.0,0.0,0.0,0.0,0.0,0.0,0.0,0.0,0.0,0.0,0.0,0.0,0.0,0.0,0.0,0.0,0.0,0.0,0.0,0.0,0.0,0.0,0.0,0.0,0.0,0.0,0.0,0.0,0.0,0.0,0.0,0.0,-4.9898,-4.9898,-4.9683,0.0,0.0,0.0,0.0,0.0,0.0,-4.7717,-4.7717,-4.7214,-4.6454,-4.5563,-4.4998,-4.457,-4.4367,-4.4253,-4.4222,-4.4256,-4.4537,-4.4815,-4.5019,-4.5649,-4.6328,-4.6792,-4.7106,-4.7438,-4.7918,-4.8001,-4.8001,-4.8001,-4.8001,-4.8001,-4.8001,-4.8001,-4.8001,-4.8001,-4.8001,-4.81,-4.8365,-4.8398,-4.8696,-4.9442,-5.0187,-5.0899,-5.1628,-5.2125,-5.2373,-5.2373,-5.2373,-5.2373,-5.2373,-5.2373,-5.2373,-5.2373,-5.2373,-5.2373,-5.2373,-5.2373,-5.2373,-5.2373,-5.2373,-5.2373,-5.2373,-5.2373,-5.2523,-5.287,-5.4046,-5.4676,-5.5057,-5.6249,-5.6619,-5.6541,0.0,0.0,0.0,0.0,0.0,0.0,0.0,0.0,0.0,0.0,0.0,0.0,0.0,0.0,0.0,0.0,0.0,0.0,0.0,0.0,0.0,0.0,0.0,0.0,0.0,0.0,0.0,0.0,0.0,0.0,0.0,0.0,0.0,0.0,0.0,0.0,0.0,0.0,0.0,0.0,0.0,0.0,-4.9898,-4.9898,0.0,0.0,0.0,0.0,0.0,0.0,-4.7717,-4.7699,-4.7615,-4.6908,-4.6,-4.5407,-4.4944,-4.4587,-4.4417,-4.436,-4.4488,-4.4873,-4.503,-4.5169,-4.5744,-4.6427,-4.6957,-4.6957,-4.7504,-4.8001,-4.8001,-4.8001,-4.8001,-4.8001,-4.8001,-4.8001,-4.8001,-4.8001,-4.8001,-4.8001,-4.8034,-4.8332,-4.9044,-4.9177,-4.9508,-5.022,-5.0883,-5.1595,-5.234,-5.2373,-5.2373,-5.2373,-5.2373,-5.2373,-5.2373,-5.2373,-5.2373,-5.2373,-5.2373,-5.2373,-5.2373,-5.2373,-5.2373,-5.2373,-5.2373,-5.2373,-5.2373,-5.2373,-5.2788,-5.3483,-5.4229,-5.4974,-5.5719,-5.6432,-5.668,-5.6757,0.0,0.0,0.0,0.0,0.0,0.0,0.0,0.0,0.0,0.0,0.0,0.0,0.0,0.0,0.0,0.0,0.0,0.0,0.0,0.0,0.0,0.0,0.0,0.0,0.0,0.0,0.0,0.0,0.0,0.0,0.0,0.0,0.0,0.0,0.0,0.0,0.0,0.0,0.0,0.0,0.0,0.0,-4.9898,0.0,0.0,0.0,0.0,0.0,0.0,0.0,-4.7717,-4.7554,-4.6753,-4.631,-4.5918,-4.5052,-4.4665,-4.4705,-4.5206,-4.525,-4.5286,-4.5924,-4.6363,-4.6662,-4.6782,-4.7334,-4.7719,-4.7719,-4.7868,-4.8001,-4.8001,-4.8001,-4.8001,-4.8001,-4.8001,-4.8001,-4.8001,-4.8001,-4.8001,-4.8001,-4.8498,-4.8895,-4.9094,-5.0088,-5.08,-5.0999,-5.1164,-5.1595,-5.234,-5.2373,-5.2373,-5.2373,-5.2373,-5.2373,-5.2373,-5.2373,-5.2373,-5.2373,-5.2373,-5.2373,-5.2373,-5.2373,-5.2373,-5.2373,-5.2373,-5.2373,-5.2373,-5.2373,-5.2788,-5.3483,-5.4229,-5.4974,-5.5719,-5.6432,-5.668,-5.6757,0.0,0.0,0.0,0.0,0.0,0.0,0.0,0.0,0.0,0.0,0.0,0.0,0.0,0.0,0.0,0.0,0.0,0.0,0.0,0.0,0.0,0.0,0.0,0.0,0.0,0.0,0.0,0.0,0.0,0.0,0.0,0.0,0.0,0.0,0.0,0.0,0.0,0.0,0.0,0.0,0.0,0.0,0.0,0.0,0.0,0.0,0.0,0.0,0.0,0.0,-4.8007,-4.7554,-4.6707,-4.6539,-4.6407,-4.5657,-4.5507,-4.5652,-4.6058,-4.6101,-4.6195,-4.6817,-4.7155,-4.7325,-4.7578,-4.7832,-4.8001,-4.8001,-4.8001,-4.8001,-4.8001,-4.8001,-4.8001,-4.8001,-4.8001,-4.8001,-4.8001,-4.8001,-4.8117,-4.8448,-4.8862,-4.9359,-4.9988,-5.08,-5.1413,-5.1744,-5.1761,-5.1943,-5.2357,-5.2373,-5.2373,-5.2373,-5.2373,-5.2373,-5.2373,-5.2373,-5.2373,-5.2373,-5.2373,-5.2373,-5.2373,-5.2373,-5.2373,-5.2373,-5.2373,-5.2373,-5.2373,-5.2373,-5.2986,-5.393,-5.4361,-5.5156,-5.6133,-5.6547,-5.6894,-5.7331,0.0,0.0,0.0,0.0,0.0,0.0,0.0,0.0,0.0,0.0,0.0,0.0,0.0,0.0,0.0,0.0,0.0,0.0,0.0,0.0,0.0,0.0,0.0,0.0,0.0,0.0,0.0,0.0,0.0,0.0,0.0,0.0,0.0,0.0,0.0,0.0,0.0,0.0,0.0,0.0,0.0,0.0,0.0,0.0,0.0,0.0,0.0,0.0,0.0,0.0,-4.8489,-4.7777,-4.733,-4.7262,-4.7245,-4.6809,-4.6703,-4.6802,-4.6921,-4.6938,-4.7047,-4.7652,-4.7653,-4.7651,-4.8142,-4.8115,-4.8001,-4.8001,-4.8001,-4.8001,-4.8001,-4.8001,-4.8001,-4.8001,-4.8001,-4.8001,-4.8001,-4.8084,-4.8382,-4.9028,-4.9276,-4.9889,-5.1164,-5.1363,-5.1694,-5.2324,-5.2373,-5.2373,-5.2373,-5.2373,-5.2373,-5.2373,-5.2373,-5.2373,-5.2373,-5.2373,-5.2373,-5.2373,-5.2373,-5.2373,-5.2373,-5.2373,-5.2373,-5.2373,-5.2373,-5.2373,-5.2373,-5.2373,-5.3218,-5.4527,-5.4527,-5.548,-5.6834,-5.6834,-5.7314,-5.8014,0.0,0.0,0.0,0.0,0.0,0.0,0.0,0.0,0.0,0.0,-5.5744,-5.4797,0.0,0.0,0.0,0.0,0.0,0.0,0.0,0.0,0.0,0.0,0.0,0.0,0.0,0.0,0.0,0.0,0.0,0.0,0.0,0.0,0.0,0.0,0.0,0.0,0.0,0.0,0.0,0.0,0.0,0.0,0.0,0.0,0.0,0.0,0.0,0.0,0.0,0.0,-4.9278,-4.8717,-4.8844,-4.8568,-4.8102,-4.7573,-4.7136,-4.6921,-4.7547,-4.7733,-4.7902,-4.8568,-4.8551,-4.8333,-4.845,-4.8244,-4.8001,-4.8001,-4.8001,-4.8001,-4.8001,-4.8001,-4.8001,-4.8001,-4.8001,-4.8001,-4.8001,-4.8531,-4.8961,-4.9094,-5.0171,-5.0999,-5.1264,-5.1827,-5.2241,-5.2373,-5.2373,-5.2373,-5.2373,-5.2373,-5.2373,-5.2373,-5.2373,-5.2373,-5.2373,-5.2373,-5.2373,-5.2373,-5.2373,-5.2373,-5.2373,-5.2373,-5.2373,-5.2373,-5.2373,-5.2373,-5.2373,-5.2373,-5.3218,-5.4527,-5.4527,-5.5746,-5.7611,-5.7611,-5.8086,-5.8772,0.0,0.0,0.0,0.0,0.0,0.0,0.0,-5.8382,-5.8122,-5.8122,-5.7063,-5.6153,-5.5726,-5.5336,-5.5113,0.0,0.0,0.0,0.0,0.0,0.0,0.0,0.0,0.0,0.0,0.0,-5.4787,-5.5275,0.0,0.0,0.0,-5.5154,-5.5068,-5.521,0.0,0.0,0.0,0.0,0.0,0.0,0.0,0.0,0.0,0.0,0.0,0.0,0.0,0.0,0.0,0.0,-5.0226,-4.9902,-4.96,-4.9171,-4.8731,-4.8479,-4.8077,-4.776,-4.813,-4.8231,-4.8315,-4.8652,-4.8547,-4.8356,-4.8356,-4.8179,-4.8001,-4.8001,-4.8001,-4.8001,-4.8001,-4.8001,-4.8001,-4.8001,-4.8315,-4.858,-4.858,-4.9226,-4.9823,-5.0187,-5.085,-5.1429,-5.181,-5.2175,-5.2373,-5.2373,-5.2373,-5.2373,-5.2373,-5.2373,-5.2373,-5.2373,-5.2373,-5.2373,-5.2373,-5.2373,-5.2373,-5.2373,-5.2373,-5.2373,-5.2373,-5.2373,-5.2373,-5.2373,-5.2373,-5.2373,-5.2373,-5.2373,-5.3363,-5.4805,-5.4805,-5.6057,-5.7848,-5.7848,-5.8334,-5.8961,0.0,0.0,0.0,0.0,0.0,0.0,0.0,-5.8716,-5.8716,-5.8716,-5.8159,-5.7528,-5.6878,-5.6506,-5.6302,0.0,0.0,0.0,0.0,0.0,0.0,0.0,0.0,0.0,0.0,0.0,0.0,-5.5887,-5.5758,0.0,0.0,0.0,0.0,0.0,-5.5826,-5.548,-5.4844,0.0,0.0,0.0,0.0,-5.2874,0.0,0.0,0.0,0.0,0.0,0.0,0.0,0.0,-5.1102,-5.0994,-5.0318,-4.9776,-4.9388,-4.9388,-4.8983,-4.8483,-4.8483,-4.8483,-4.8483,-4.8483,-4.8356,-4.8227,-4.8227,-4.8115,-4.8001,-4.8001,-4.8001,-4.8001,-4.8001,-4.8133,-4.8249,-4.8249,-4.8862,-4.9342,-4.9342,-4.9972,-5.0651,-5.1214,-5.1413,-5.1744,-5.2324,-5.2373,-5.2373,-5.2373,-5.2373,-5.2373,-5.2373,-5.2373,-5.2373,-5.2373,-5.2373,-5.2373,-5.2373,-5.2373,-5.2373,-5.2373,-5.2373,-5.2373,-5.2373,-5.2373,-5.2516,-5.264,-5.2499,-5.257,-5.2711,-5.2624,-5.3632,-5.524,-5.524,-5.6419,-5.8171,-5.8171,-5.858,-5.9217,0.0,0.0,0.0,0.0,0.0,0.0,0.0,-5.8716,-5.8716,-5.8716,-5.8642,-5.8568,-5.8494,-5.7175,-5.6302,0.0,0.0,0.0,0.0,0.0,0.0,0.0,0.0,0.0,0.0,0.0,0.0,-5.6441,-5.5938,0.0,0.0,0.0,0.0,0.0,0.0,-5.5667,-5.5609,-5.5609,0.0,0.0,0.0,0.0,0.0,0.0,0.0,0.0,0.0,-5.2804,-5.2693,0.0,-5.1799,-5.1782,-5.1611,-5.0876,-5.0189,-5.0189,-4.9393,-4.8483,-4.8483,-4.8483,-4.8483,-4.8483,-4.8356,-4.8227,-4.8227,-4.8115,-4.8001,-4.8001,-4.8001,-4.8001,-4.8001,-4.8547,-4.9011,-4.9011,-4.9624,-5.0121,-5.0121,-5.0734,-5.1197,-5.1264,-5.1877,-5.2307,-5.2373,-5.2373,-5.2373,-5.2373,-5.2373,-5.2373,-5.2373,-5.2373,-5.2373,-5.2373,-5.2373,-5.2373,-5.2373,-5.2373,-5.2373,-5.2373,-5.2373,-5.2373,-5.2373,-5.2373,-5.2764,-5.3264,-5.2956,-5.3213,-5.3715,-5.3449,-5.4227,-5.5666,-5.5666,-5.6985,-5.8875,-5.8875,-5.9351,-5.9961,0.0,0.0,0.0,0.0,0.0,0.0,-5.8716,-5.8716,-5.8716,-5.8716,-5.8716,-5.8716,-5.8716,-5.8141,-5.7751,-5.7751,0.0,0.0,0.0,0.0,0.0,0.0,0.0,0.0,0.0,0.0,-5.6696,-5.721,-5.699,0.0,0.0,0.0,0.0,0.0,0.0,-5.6184,-5.5703,-5.5703,0.0,0.0,0.0,0.0,0.0,0.0,0.0,0.0,0.0,0.0,-5.2806,-5.2286,-5.1969,-5.1758,-5.169,-5.0929,-4.9993,-4.9993,-4.9428,-4.8685,-4.8292,-4.8179,-4.8179,-4.8179,-4.8447,-4.8713,-4.8713,-4.9061,-4.9326,-4.9326,-4.9326,-4.9326,-4.9326,-4.9574,-4.9773,-4.9773,-5.0386,-5.085,-5.085,-5.1479,-5.1943,-5.1943,-5.2208,-5.2373,-5.2373,-5.2373,-5.2373,-5.2373,-5.2373,-5.2373,-5.2373,-5.2373,-5.2373,-5.2373,-5.2373,-5.2373,-5.2373,-5.2373,-5.2373,-5.2373,-5.2318,-5.2247,-5.2247,-5.2412,-5.2677,-5.2922,-5.3145,-5.3332,-5.3583,-5.3449,-5.4161,-5.5366,-5.5826,-5.6987,-5.8392,-5.8857,-5.9217,-5.9418,0.0,0.0,0.0,0.0,0.0,-5.8716,-5.8716,-5.8716,-5.8716,-5.8716,-5.8716,-5.8716,-5.8716,-5.8716,-5.8716,-5.8716,-5.8196,0.0,0.0,0.0,0.0,0.0,0.0,0.0,0.0,0.0,-5.7303,-5.7783,-5.7625,-5.7753,0.0,0.0,-5.7866,-5.7376,0.0,0.0,0.0,0.0,0.0,0.0,0.0,0.0,0.0,0.0,0.0,0.0,0.0,0.0,0.0,0.0,0.0,-5.2386,0.0,0.0,0.0,0.0,-4.9572,-4.8929,-4.8712,-4.8647,-4.8647,-4.8647,-4.9044,-4.9442,-4.9442,-4.9839,-5.022,-5.022,-5.022,-5.022,-5.022,-5.0386,-5.0535,-5.0535,-5.1131,-5.1612,-5.1612,-5.2042,-5.2373,-5.2373,-5.2373,-5.2373,-5.2373,-5.2373,-5.2373,-5.2373,-5.2373,-5.2373,-5.2373,-5.2373,-5.2373,-5.2373,-5.2373,-5.2373,-5.2373,-5.2373,-5.2373,-5.2318,-5.2175,-5.2102,-5.2013,-5.2395,-5.2714,-5.2905,-5.3399,-5.3666,-5.3864,-5.3732,-5.4324,-5.5341,-5.5788,-5.6812,-5.7961,-5.8495,-5.8823,-5.9012,0.0,0.0,0.0,0.0,0.0,0.0,-5.8716,-5.8716,-5.8716,-5.8716,-5.8716,-5.8716,-5.8716,-5.8716,-5.8716,-5.8716,-5.8698,0.0,0.0,0.0,0.0,0.0,0.0,0.0,0.0,0.0,-5.7996,-5.7996,-5.7461,-5.7373,-5.7707,-5.7707,-5.7902,-5.83,0.0,0.0,0.0,0.0,0.0,0.0,0.0,0.0,0.0,0.0,0.0,0.0,0.0,0.0,0.0,0.0,0.0,0.0,0.0,0.0,0.0,0.0,-5.0016,-4.926,-4.9988,-5.0187,-5.0187,-5.0187,-5.0187,-5.0204,-5.0204,-5.0204,-5.022,-5.022,-5.022,-5.022,-5.022,-5.08,-5.1264,-5.1264,-5.1893,-5.2373,-5.2373,-5.2373,-5.2373,-5.2373,-5.2373,-5.2373,-5.2373,-5.2373,-5.2373,-5.2373,-5.2373,-5.2373,-5.2373,-5.2373,-5.2373,-5.2373,-5.2373,-5.2373,-5.2373,-5.2373,-5.2318,-5.2102,-5.2102,-5.203,-5.1851,-5.2395,-5.2957,-5.3581,-5.3881,-5.4367,-5.493,-5.4637,-5.4943,-5.5615,-5.5615,-5.6564,-5.7909,-5.7909,-5.8374,-5.9012,0.0,0.0,0.0,0.0,0.0,0.0,0.0,-5.8716,-5.8716,-5.8716,-5.8716,-5.8716,-5.8716,-5.8716,-5.8716,-5.8716,-5.8716,0.0,0.0,0.0,0.0,0.0,0.0,0.0,0.0,0.0,-5.8592,-5.8803,-5.8667,-5.8759,-5.9152,-5.9359,-5.9213,-5.8783,-5.9038,-5.8669,0.0,0.0,0.0,0.0,0.0,0.0,-5.5893,0.0,0.0,0.0,0.0,0.0,0.0,0.0,0.0,0.0,0.0,0.0,0.0,0.0,0.0,-5.1036,-5.0392,-5.022,-5.022,-5.022,-5.0585,-5.0932,-5.0932,-5.133,-5.1694,-5.1694,-5.1694,-5.1694,-5.1694,-5.1877,-5.2026,-5.2026,-5.2224,-5.2373,-5.2373,-5.2373,-5.2373,-5.2373,-5.2318,-5.2175,-5.2175,-5.2086,-5.2013,-5.2013,-5.2013,-5.2013,-5.2013,-5.2013,-5.2086,-5.2373,-5.2373,-5.2302,-5.2175,-5.2175,-5.2086,-5.1868,-5.2142,-5.2181,-5.2181,-5.3008,-5.3483,-5.3666,-5.4175,-5.4431,-5.462,-5.4557,-5.4649,-5.4908,-5.5408,-5.5908,-5.6477,-5.7512,-5.8064,-5.8323,0.0,0.0,0.0,0.0,0.0,0.0,0.0,-5.8656,-5.8716,-5.8716,-5.8716,-5.8716,-5.8716,-5.8716,-5.8716,-5.8716,-5.8716,0.0,0.0,0.0,0.0,0.0,0.0,0.0,0.0,-5.8716,-5.8803,-5.9025,-5.9025,-5.9197,-5.9571,-5.9804,-5.9676,-5.932,-5.9519,-5.9205,0.0,0.0,0.0,0.0,0.0,0.0,-5.6747,0.0,0.0,0.0,0.0,0.0,0.0,0.0,0.0,0.0,0.0,0.0,0.0,0.0,-5.3197,-5.2396,-5.1327,-5.1032,-5.1032,-5.1032,-5.1363,-5.1694,-5.1694,-5.2042,0.0,0.0,0.0,0.0,-5.2373,-5.2373,-5.2373,-5.2373,-5.2373,-5.2373,-5.2318,-5.2318,-5.2247,-5.2158,-5.2086,-5.2013,-5.2013,-5.1851,-5.1778,-5.1778,-5.1778,-5.1778,-5.1778,-5.1778,-5.1924,-5.2158,-5.2158,-5.2086,-5.2013,-5.2013,-5.2013,-5.198,-5.2181,-5.2378,-5.2503,-5.3349,-5.37,-5.3717,-5.4239,-5.4512,0.0,-5.4512,-5.4512,-5.4563,-5.5029,-5.5374,-5.5736,-5.6684,-5.7219,-5.7598,0.0,0.0,0.0,0.0,0.0,0.0,0.0,-5.8614,-5.8716,-5.8716,-5.8716,-5.8716,-5.8716,-5.8716,-5.8716,-5.8716,0.0,0.0,0.0,0.0,0.0,0.0,0.0,0.0,0.0,-5.8716,-5.8716,-5.8716,-5.8716,-5.8865,-5.9178,-5.9178,-5.9397,-5.9758,-5.9791,-5.9758,0.0,0.0,0.0,0.0,0.0,0.0,0.0,0.0,0.0,0.0,0.0,0.0,0.0,0.0,0.0,0.0,0.0,0.0,0.0,0.0,0.0,0.0,0.0,-5.2373,-5.239,-5.239,-5.239,-5.2373,-5.2373,0.0,0.0,0.0,0.0,0.0,-5.2373,-5.239,-5.239,-5.239,-5.2373,-5.2302,-5.2102,-5.2102,-5.203,-5.1851,-5.1778,-5.1778,-5.1778,-5.1778,-5.1778,-5.1778,-5.1778,-5.1778,-5.1778,-5.1778,-5.1778,-5.1778,-5.1778,-5.1778,-5.1778,-5.1851,-5.198,-5.2307,-5.2378,-5.2574,-5.2905,-5.3483,-5.3783,-5.3766,-5.4303,-5.4512,-5.4512,-5.4512,-5.4512,-5.4512,-5.4512,-5.4925,-5.5546,-5.5598,-5.6081,-5.6822,0.0,0.0,0.0,0.0,0.0,0.0,0.0,0.0,0.0,0.0,-5.8716,-5.8716,-5.8716,-5.8716,-5.8716,0.0,0.0,0.0,0.0,0.0,0.0,0.0,0.0,0.0,0.0,-5.8716,-5.8716,-5.8716,-5.8716,-5.8739,-5.8825,-5.9083,-5.9233,-5.9361,-5.9553,-5.9484,0.0,0.0,0.0,0.0,0.0,0.0,0.0,0.0,0.0,0.0,-5.8406,-5.7802,0.0,0.0,0.0,0.0,0.0,0.0,0.0,0.0,-5.399,-5.3465,-5.2714,0.0,-5.2175,-5.2175,-5.2318,-5.2373,0.0,0.0,0.0,0.0,0.0,0.0,0.0,-5.223,-5.2175,-5.2175,-5.2013,-5.1924,-5.1868,-5.1868,-5.1851,-5.1778,-5.1647,-5.1573,-5.1573,-5.1408,-5.1333,-5.1333,-5.1333,-5.1333,-5.1333,-5.1333,-5.1333,-5.1333,-5.1333,-5.1408,-5.1573,-5.198,-5.2164,-5.2059,-5.2922,-5.3416,-5.35,-5.4045,-5.4303,-5.4303,-5.4448,-5.4512,-5.4512,-5.4512,-5.4512,-5.4512,-5.4512,-5.4615,-5.4839,-5.5408,-5.5736,-5.5995,0.0,0.0,0.0,0.0,0.0,0.0,0.0,0.0,0.0,0.0,0.0,0.0,0.0,0.0,0.0,0.0,0.0,0.0,0.0,0.0,0.0,0.0,0.0,0.0,-5.8716,-5.8716,-5.8656,-5.8614,-5.8614,-5.8572,-5.8548,-5.8743,-5.8828,-5.8828,-5.9006,-5.9192,0.0,0.0,0.0,0.0,-5.8843,0.0,0.0,0.0,0.0,0.0,-5.9154,-5.8269,0.0,-5.6885,-5.6016,-5.5053,0.0,0.0,0.0,0.0,-5.3895,-5.3146,-5.2767,-5.2324,-5.1941,-5.1941,-5.2013,-5.2142,0.0,0.0,0.0,0.0,0.0,0.0,0.0,-5.2013,-5.1941,-5.1941,-5.1868,-5.1778,-5.1647,-5.1557,-5.1557,-5.1557,-5.1408,-5.135,-5.135,-5.1258,-5.1183,-5.1183,-5.1183,-5.1183,-5.1183,-5.1183,-5.1183,-5.1183,-5.1183,-5.1258,-5.135,-5.1875,-5.2219,-5.2416,-5.3264,-5.3832,-5.411,-5.4385,-5.4512,-5.4512,-5.4512,-5.4512,-5.4512,-5.4512,-5.4512,-5.4512,-5.4512,-5.4512,-5.4563,-5.496,-5.5115,-5.5219,0.0,0.0,0.0,0.0,0.0,0.0,0.0,0.0,0.0,0.0,0.0,0.0,0.0,0.0,0.0,0.0,0.0,0.0,0.0,0.0,0.0,0.0,0.0,-5.8656,-5.8656,-5.8656,-5.8614,-5.8468,-5.8468,-5.8443,-5.8393,-5.8522,-5.8652,-5.8718,-5.8762,-5.9194,0.0,0.0,-5.8718,-5.8773,-5.9456,0.0,0.0,0.0,0.0,0.0,0.0,0.0,0.0,-5.7023,-5.5995,-5.4856,-5.4856,0.0,0.0,0.0,0.0,0.0,-5.2864,-5.2329,-5.1835,-5.1811,-5.1778,-5.1778,0.0,0.0,0.0,0.0,0.0,0.0,0.0,-5.1778,-5.1778,-5.1778,-5.1704,-5.1647,-5.1499,-5.135,-5.1183,-5.1183,-5.1183,-5.1183,-5.1183,-5.1183,-5.1183,-5.1183,-5.1183,-5.1183,-5.1183,-5.1183,-5.1258,-5.1317,-5.1317,-5.1392,-5.1466,-5.1931,-5.2416,-5.2974,-5.355,-5.4045,-5.4512,-5.4512,-5.4512,-5.4512,-5.4512,-5.4512,-5.4512,-5.4512,-5.4512,-5.4512,-5.4512,-5.4512,-5.4512,-5.4512,-5.4512,-5.4615,0.0,0.0,0.0,0.0,0.0,0.0,0.0,0.0,0.0,0.0,0.0,0.0,0.0,0.0,0.0,0.0,0.0,0.0,0.0,0.0,0.0,0.0,-5.9176,-5.8437,-5.8437,-5.8437,-5.8437,-5.8437,-5.8437,-5.8393,-5.8411,-5.9095,-5.9733,-6.0241,-6.0397,-6.0471,-6.0471,-6.0342,-6.0241,-6.0259,-6.0276,0.0,0.0,0.0,0.0,0.0,0.0,0.0,0.0,-5.7587,-5.7056,-5.646,-5.646,0.0,0.0,0.0,0.0,0.0,-5.3162,-5.2571,-5.2048,-5.1645,-5.1647,-5.1778,-5.1778,0.0,0.0,0.0,0.0,0.0,0.0,-5.1647,-5.1573,-5.1573,-5.1408,-5.1258,-5.1258,-5.1183,-5.1183,-5.1183,-5.1183,-5.1183,-5.1183,-5.1183,-5.1183,-5.1183,-5.1183,-5.1183,-5.1183,-5.1183,-5.1392,-5.1858,-5.1858,-5.2076,-5.2557,-5.2627,-5.2974,-5.3567,-5.411,-5.4448,-5.4512,-5.4512,-5.4512,-5.4512,-5.4512,-5.4512,-5.4512,-5.4512,-5.4512,-5.4512,-5.4512,-5.4512,-5.4512,-5.4512,-5.4512,-5.4615,0.0,0.0,0.0,0.0,0.0,0.0,0.0,0.0,0.0,0.0,0.0,0.0,0.0,0.0,0.0,0.0,0.0,0.0,0.0,0.0,0.0,-6.0562,-5.9909,-5.955,-5.9704,-5.9704,-5.9659,-5.9614,-5.9614,-5.955,-5.9504,-5.9872,-6.048,-6.1235,-6.0793,-6.0848,-6.1235,-6.0698,-6.0515,-6.0551,0.0,0.0,0.0,0.0,0.0,0.0,0.0,0.0,0.0,0.0,-5.7361,-5.6805,-5.6805,0.0,0.0,0.0,0.0,0.0,-5.3832,-5.3248,-5.2721,-5.2507,-5.2579,-5.2639,-5.2639,0.0,0.0,0.0,0.0,0.0,0.0,-5.1652,-5.135,-5.135,-5.1258,-5.1183,-5.1183,-5.1183,-5.1183,-5.1183,-5.1183,-5.1183,-5.1183,-5.1183,-5.1183,-5.1183,-5.1183,-5.1183,-5.1183,-5.1183,-5.145,-5.1987,-5.1987,-5.2416,-5.3281,-5.3281,-5.3416,-5.3717,-5.4239,-5.4512,-5.4512,-5.4512,-5.4512,-5.4512,-5.4512,-5.4512,-5.4512,-5.4512,-5.4512,-5.4512,-5.4512,-5.4512,-5.4557,-5.4834,-5.5164,-5.5496,0.0,0.0,0.0,0.0,0.0,0.0,0.0,0.0,0.0,0.0,0.0,0.0,0.0,0.0,0.0,0.0,0.0,0.0,0.0,0.0,-6.097,-6.097,-6.097,-6.0901,-6.072,-6.072,-6.0674,-6.0562,-6.0562,-6.0606,-6.0676,-6.0676,-6.1165,-6.2015,-6.1294,-6.1367,-6.1997,-6.1275,-6.097,-6.1025,0.0,0.0,0.0,0.0,0.0,0.0,0.0,0.0,0.0,0.0,0.0,0.0,0.0,0.0,0.0,-5.6163,-5.553,-5.4931,-5.4349,-5.386,-5.3612,-5.3774,-5.3563,-5.3321,-5.3321,-5.2867,0.0,0.0,0.0,0.0,-5.2365,-5.1896,-5.141,-5.141,-5.128,-5.1183,-5.1183,-5.1183,-5.1183,-5.1183,-5.1183,-5.1183,-5.1183,-5.1183,-5.1183,-5.1183,-5.1183,-5.1242,-5.1392,-5.1392,-5.1729,-5.2345,-5.2416,-5.2853,-5.3915,-5.3915,-5.3915,-5.3898,-5.4303,-5.4512,-5.4512,-5.4512,-5.4512,-5.4512,-5.4512,-5.4512,-5.4512,-5.4512,-5.4512,-5.4512,-5.4512,-5.4557,-5.479,-5.5402,-5.5999,-5.6492,0.0,0.0,0.0,0.0,0.0,0.0,0.0,0.0,0.0,0.0,0.0,0.0,0.0,0.0,0.0,0.0,0.0,0.0,0.0,0.0,-6.264,-6.264,-6.264,-6.1942,-6.0438,-6.0401,-6.0401,-6.0401,-6.0401,-6.0786,-6.1502,-6.1502,-6.1942,-6.2732,-6.2677,-6.2677,-6.2713,-6.2677,-6.264,-6.264,-6.2695,0.0,0.0,0.0,0.0,0.0,0.0,0.0,0.0,0.0,0.0,0.0,0.0,0.0,-5.7759,-5.6505,-5.5713,-5.5139,-5.4547,-5.4325,-5.447,-5.5102,-5.4292,0.0,-5.3321,-5.3288,0.0,-5.3304,0.0,-5.3175,-5.324,-5.2624,-5.2122,-5.2122,-5.1588,-5.1183,-5.1183,-5.1183,-5.1183,-5.1183,-5.1183,-5.1183,-5.1183,-5.1183,-5.1183,-5.1183,-5.1183,-5.1392,-5.1931,-5.1915,-5.2416,-5.3567,-5.3567,-5.3832,-5.4448,-5.4448,-5.4448,-5.4448,-5.4512,-5.4512,-5.4512,-5.4512,-5.4512,-5.4512,-5.4512,-5.4512,-5.4512,-5.4512,-5.4512,-5.4512,-5.4512,-5.4834,-5.5385,-5.5999,-5.6581,-5.6964,0.0,0.0,0.0,0.0,0.0,0.0,0.0,0.0,0.0,0.0,0.0,0.0,0.0,0.0,0.0,0.0,0.0,0.0,0.0,0.0,-6.1622,-6.1622,-6.1622,-6.1333,-6.0738,-6.15,-6.1739,-6.1345,-6.1739,-6.2053,-6.2346,-6.2346,-6.2292,-6.2237,-6.2237,-6.1987,-6.1622,-6.1622,-6.1622,-6.1622,-6.1622,-6.1283,0.0,0.0,0.0,0.0,0.0,0.0,0.0,0.0,-5.8719,-5.8405,0.0,0.0,-5.7379,-5.6528,-5.6079,-5.5768,-5.5182,-5.5037,-5.5086,-5.5361,0.0,0.0,0.0,-5.4292,-5.4114,-5.4535,-5.3936,-5.3321,-5.3321,-5.3078,-5.29,-5.29,-5.2284,-5.1815,-5.1815,-5.1442,-5.1183,-5.1183,-5.1183,-5.1183,-5.1183,-5.094,-5.0771,-5.0771,-5.1,-5.121,-5.1401,-5.2059,-5.2714,-5.3466,-5.3634,-5.398,-5.4512,-5.4512,-5.4512,-5.4512,-5.4512,-5.4512,-5.4512,-5.4512,-5.4512,-5.4512,-5.4512,-5.4512,-5.4512,-5.4512,-5.4728,-5.5087,-5.5232,-5.5532,-5.6009,-5.6471,-5.7043,-5.7613,0.0,0.0,0.0,0.0,0.0,0.0,0.0,0.0,0.0,0.0,0.0,0.0,0.0,0.0,0.0,0.0,0.0,0.0,-6.0897,-6.0897,-6.0897,-6.0897,-6.0897,-6.0778,-6.0615,-6.1677,-6.1987,-6.1584,-6.1987,-6.2219,-6.2219,-6.2219,-6.1987,-6.1584,-6.1584,-6.134,-6.0897,-6.0897,-6.0897,-6.0897,-6.0897,-6.0572,0.0,0.0,0.0,0.0,0.0,0.0,0.0,0.0,-5.8405,0.0,0.0,0.0,0.0,0.0,-5.6162,-5.5941,-5.5491,-5.5409,-5.5409,0.0,0.0,0.0,-5.5409,-5.5053,-5.4859,-5.5328,-5.4648,-5.3984,-5.3984,-5.3806,-5.3661,-5.3661,-5.3045,-5.256,-5.256,-5.1868,-5.1355,-5.1355,-5.1009,-5.0788,-5.0788,-5.0755,-5.0663,-5.0663,-5.1194,-5.1565,-5.1786,-5.2449,-5.3008,-5.3533,-5.37,-5.398,-5.4321,-5.4367,-5.4385,-5.4385,-5.4448,-5.4512,-5.4512,-5.4512,-5.4512,-5.4512,-5.4512,-5.4512,-5.4494,-5.451,-5.4982,-5.568,-5.5865,-5.6041,-5.6364,-5.6975,-5.7521,-5.7997,0.0,0.0,0.0,0.0,0.0,0.0,0.0,0.0,0.0,0.0,0.0,0.0,0.0,0.0,0.0,0.0,0.0,0.0,-6.0838,-6.0897,-6.0897,-6.0897,-6.0897,-6.0615,-6.0001,-6.0555,-6.0897,-6.0897,-6.0897,-6.0897,-6.0897,-6.0897,-6.0897,-6.0897,-6.0897,-6.0897,-6.0897,-6.0897,-6.0897,-6.0897,-6.0897,-6.0511,-6.0019,0.0,0.0,0.0,0.0,0.0,0.0,0.0,-5.812,0.0,0.0,0.0,0.0,0.0,-5.5861,-5.5409,-5.5409,-5.5409,-5.5409,0.0,0.0,0.0,-5.5409,-5.5409,-5.5409,-5.5409,-5.5409,-5.5409,-5.5409,-5.4875,-5.4422,-5.4422,-5.3806,-5.3337,-5.3321,-5.2298,-5.1597,-5.1597,-5.0581,-4.9931,-4.9931,-5.0663,-5.1118,-5.1118,-5.1858,-5.252,-5.3179,-5.3179,-5.345,-5.398,-5.398,-5.398,-5.398,-5.411,-5.4222,-5.4222,-5.4367,-5.4512,-5.4512,-5.4512,-5.4512,-5.4512,-5.4512,-5.4512,-5.4523,-5.452,-5.5199,-5.6277,-5.6305,-5.6328,-5.6432,-5.7609,-5.7997,-5.7997,0.0,0.0,0.0,0.0,0.0,0.0,0.0,0.0,0.0,0.0,0.0,0.0,0.0,0.0,0.0,0.0,0.0,0.0,-5.953,-5.953,-5.953,-5.953,-5.9482,-5.9317,-5.9166,-5.9165,-5.9756,-6.0897,-6.0897,-6.0838,-6.0796,-6.0838,-6.0598,-6.0076,-6.0219,-5.9984,-5.953,-5.953,-5.953,-5.953,-5.953,-5.9433,-5.9334,0.0,0.0,0.0,0.0,0.0,0.0,0.0,0.0,0.0,0.0,0.0,0.0,-5.5637,-5.5572,-5.5409,-5.5409,-5.5409,0.0,-5.5409,0.0,0.0,0.0,-5.5409,0.0,0.0,-5.5409,-5.5409,-5.5409,-5.5247,-5.5118,-5.5118,-5.4535,-5.3986,-5.3648,-5.2861,-5.2397,-5.2681,-5.1975,-5.171,-5.23,-5.1843,-5.1492,-5.1492,-5.202,-5.2378,-5.2537,-5.3162,-5.3634,-5.3766,-5.3915,-5.398,-5.398,-5.4045,-5.4045,-5.4045,-5.411,-5.4239,-5.4512,-5.4512,-5.4512,-5.4512,-5.4957,-5.4912,-5.4598,-5.5452,-5.5488,-5.5179,-5.6837,-5.7507,-5.7543,-5.7895,-5.7997,-5.8107,0.0,0.0,0.0,0.0,0.0,0.0,0.0,0.0,0.0,0.0,0.0,0.0,0.0,0.0,0.0,0.0,0.0,0.0,0.0,-5.8823,-5.8823,-5.8823,-5.8701,-5.8718,-5.8718,-5.8561,-5.8978,-5.9931,-5.9931,-5.9885,-5.9821,-5.9949,-5.9709,-5.9232,-5.9366,-5.9199,-5.8823,-5.8823,-5.8823,-5.8823,-5.8597,-5.858,-5.8509,0.0,0.0,0.0,0.0,0.0,0.0,0.0,0.0,0.0,0.0,0.0,0.0,-5.5409,-5.5409,-5.5409,-5.5409,-5.5409,0.0,-5.5409,-5.5409,-5.5409,-5.5409,0.0,-5.5409,-5.5409,-5.5409,-5.5409,-5.5409,-5.5409,-5.5344,-5.518,-5.4825,-5.4404,-5.3959,-5.3419,-5.3118,-5.3406,-5.2935,-5.279,-5.332,-5.277,-5.2359,-5.2359,-5.2615,-5.2764,-5.2764,-5.3315,-5.3601,-5.3601,-5.3734,-5.38,-5.38,-5.3849,-5.3849,-5.3849,-5.398,-5.4127,-5.4303,-5.4385,-5.4431,-5.4512,-5.5122,-5.5407,-5.5486,-5.6217,-5.6283,-5.6031,-5.7426,-5.7997,-5.7997,-5.7997,-5.7997,-5.8143,0.0,0.0,0.0,0.0,0.0,0.0,0.0,0.0,0.0,0.0,0.0,0.0,0.0,0.0,0.0,0.0,0.0,0.0,0.0,0.0,-5.849,-5.849,-5.8558,-5.8593,-5.8522,-5.859,-5.859,-5.8573,-5.8541,-5.849,-5.849,-5.849,-5.849,-5.849,-5.8473,-5.8524,-5.8593,-5.8593,-5.8627,-5.8535,-5.8157,-5.8011,-5.783,-5.7423,0.0,0.0,0.0,0.0,0.0,0.0,0.0,0.0,0.0,0.0,0.0,-5.5392,-5.536,-5.5442,-5.5426,0.0,0.0,-5.5409,-5.5409,0.0,-5.5409,-5.5409,-5.5409,-5.5409,-5.5409,-5.5409,-5.5409,-5.5409,-5.5262,-5.4848,-5.4848,-5.4765,-5.4258,-5.4007,-5.3904,-5.3986,-5.3646,-5.3506,-5.36,-5.3585,-5.3595,-5.3529,-5.3597,-5.3568,-5.3501,-5.3501,-5.3501,-5.3501,-5.3501,-5.3501,-5.3501,-5.3601,-5.3651,-5.3717,-5.3898,-5.4045,-5.4045,-5.4222,-5.4477,-5.4728,-5.5325,-5.6041,-5.6899,-5.688,-5.7352,-5.7997,-5.7997,-5.7997,-5.7997,-5.7997,-5.7997,-5.8162,0.0,0.0,0.0,0.0,0.0,0.0,0.0,0.0,0.0,0.0,0.0,0.0,0.0,0.0,0.0,0.0,0.0,0.0,0.0,0.0,-5.849,-5.849,-5.891,-5.9072,-5.8925,-5.9485,-5.958,-5.9218,-5.8702,-5.8419,-5.826,-5.8558,-5.8487,-5.826,-5.8334,-5.8746,-5.9378,-5.9378,-5.9304,-5.9161,-5.9007,-5.8586,-5.7917,-5.7756,-5.7691,0.0,0.0,0.0,0.0,0.0,0.0,0.0,0.0,-5.6626,-5.6424,-5.5631,-5.5422,-5.5389,0.0,-5.5409,0.0,0.0,-5.5409,-5.5409,-5.5409,-5.5409,-5.5409,-5.5409,-5.5409,-5.5409,-5.5409,-5.5409,-5.5262,-5.4848,-5.5344,-5.5491,-5.4717,-5.515,-5.56,-5.5899,-5.5413,-5.5289,-5.6007,-5.5513,-5.4999,-5.4409,-5.4379,-5.411,-5.3534,-5.3501,-5.3501,-5.3501,-5.3501,-5.3501,-5.3501,-5.3501,-5.3551,-5.3551,-5.4059,-5.4425,-5.4586,-5.4782,-5.5467,-5.6421,-5.649,-5.6975,-5.7752,-5.7755,-5.7849,-5.7997,-5.7997,-5.7997,-5.7997,-5.7997,-5.7997,-5.8253,0.0,0.0,0.0,0.0,0.0,0.0,0.0,0.0,0.0,0.0,0.0,0.0,0.0,0.0,0.0,0.0,0.0,0.0,0.0,0.0,-5.9259,-5.9259,-5.9542,-5.9529,-5.9211,-5.9582,-5.9768,-5.9751,-5.9661,-5.9101,-5.8096,-5.822,-5.8174,-5.7859,-5.7884,-5.81,-5.8519,-5.8519,-5.8482,-5.8314,-5.815,-5.7753,-5.7333,-5.7093,-5.7023,-5.6899,-5.6638,0.0,0.0,0.0,0.0,0.0,0.0,0.0,-5.7387,-5.6905,-5.6285,-5.5751,0.0,0.0,0.0,-5.5425,0.0,-5.5409,-5.5409,-5.5409,-5.5409,-5.5409,-5.5409,-5.5409,-5.5409,-5.5246,-5.5097,-5.5081,-5.5328,-5.5295,-5.5001,-5.5749,-5.6397,-5.6614,-5.6587,-5.6835,-5.7306,-5.6664,-5.6072,-5.5683,-5.5327,-5.4803,-5.4059,-5.4025,-5.3856,-5.3518,-5.3501,-5.3618,-5.3946,-5.3946,-5.4076,-5.4379,-5.4703,-5.5112,-5.556,-5.5502,-5.5943,-5.6809,-5.6822,-5.7247,-5.793,-5.7969,-5.7997,-5.7997,-5.7997,-5.7997,-5.7997,-5.7997,-5.8327,-5.8933,0.0,0.0,0.0,0.0,0.0,0.0,0.0,0.0,0.0,0.0,0.0,0.0,0.0,0.0,0.0,0.0,0.0,0.0,0.0,0.0,0.0,-6.0097,-6.0199,-6.0055,-5.9726,-5.9844,-6.0123,-6.0503,-6.0901,-6.0131,-5.8174,-5.827,-5.808,-5.7719,-5.7475,-5.7413,-5.7527,-5.751,-5.7506,-5.7447,-5.6917,-5.679,-5.6636,-5.6183,-5.614,-5.6341,-5.625,-5.625,-5.6356,-5.6345,0.0,0.0,0.0,0.0,-5.8186,-5.8058,-5.7217,-5.6204,0.0,0.0,-5.5693,-5.5274,-5.518,0.0,-5.518,-5.518,-5.518,-5.518,-5.5246,-5.5344,-5.5344,-5.5097,-5.5014,-5.5246,-5.5213,-5.5263,-5.5474,-5.6286,-5.6844,-5.6844,-5.748,-5.7881,-5.7881,-5.734,-5.6934,-5.6816,-5.6241,-5.5581,-5.482,-5.4668,-5.4313,-5.3704,-5.3686,-5.3949,-5.4581,-5.4707,-5.5087,-5.5788,-5.5854,-5.6315,-5.703,-5.6684,-5.6634,-5.6879,-5.6982,-5.7351,-5.7792,-5.795,-5.7997,-5.7997,-5.7997,-5.7997,-5.7969,-5.8097,-5.8702,-5.9612,0.0,0.0,0.0,0.0,0.0,0.0,0.0,0.0,0.0,0.0,0.0,0.0,0.0,0.0,0.0,0.0,0.0,0.0,-5.9945,0.0,0.0,-6.0097,-6.0528,-6.0866,-6.1061,-6.1687,-6.2042,-6.2076,-6.2127,-6.1233,-5.9367,-5.9644,-5.9342,-5.8521,-5.7425,-5.7412,-5.8373,-5.8238,-5.8189,-5.8046,-5.7322,-5.6916,-5.6695,-5.5981,-5.6403,-5.7215,-5.6852,-5.6947,-5.7215,-5.6867,-5.6962,0.0,0.0,0.0,-5.8098,-5.7528,-5.7184,-5.6931,0.0,0.0,-5.5059,0.0,-5.4258,-5.4258,-5.4258,-5.4258,-5.4258,-5.4258,-5.4597,-5.4848,-5.4848,-5.5097,-5.523,-5.4883,-5.6004,-5.6801,-5.6459,-5.7164,-5.7735,-5.7735,-5.7808,-5.7881,-5.7881,-5.7797,-5.7492,-5.685,-5.6714,-5.6342,-5.5598,-5.4955,-5.4549,-5.4448,-5.4336,-5.4655,-5.5438,-5.5968,-5.6606,-5.7412,-5.7965,-5.857,-5.9166,-5.9113,-5.851,-5.7486,-5.7631,-5.7745,-5.7792,-5.795,-5.7997,-5.7997,-5.7997,-5.795,-5.793,-5.8597,-5.8944,-5.9274,0.0,0.0,0.0,0.0,0.0,0.0,0.0,0.0,0.0,0.0,0.0,0.0,0.0,0.0,0.0,-5.959,-6.0334,-6.0943,-6.1349,-6.1383,-6.1383,-6.1383,-6.1637,-6.1823,-6.1907,-6.2229,-6.1845,-6.0865,-6.1196,-6.0572,-5.9036,-5.9184,-5.8703,-5.7563,-5.7021,-5.7099,-5.7522,-5.7081,-5.7072,-5.7323,-5.6607,-5.648,-5.673,-5.6407,-5.6676,-5.7035,-5.6842,-5.6939,-5.7035,-5.6858,-5.6939,-5.7131,-5.7131,0.0,0.0,0.0,-5.6965,-5.6903,-5.6385,-5.5967,-5.5453,0.0,-5.4672,-5.4577,-5.4182,-5.4103,-5.4258,-5.4765,-5.4733,-5.4816,-5.5081,-5.5475,-5.5861,-5.6083,-5.6553,-5.703,-5.7256,-5.7645,-5.7881,-5.7881,-5.7881,-5.7881,-5.7881,-5.7881,-5.7763,-5.7442,-5.7408,-5.7087,-5.6376,-5.6004,-5.5824,-5.5773,-5.5727,-5.6206,-5.7339,-5.7577,-5.8103,-5.8744,-5.9059,-5.9366,-5.9615,-5.9615,-5.9269,-5.8751,-5.8851,-5.8901,-5.895,-5.9067,-5.9115,-5.9115,-5.9115,-5.9049,-5.9103,-5.9499,-5.9969,-6.0463,0.0,0.0,0.0,0.0,0.0,0.0,0.0,0.0,0.0,0.0,0.0,0.0,0.0,0.0,0.0,0.0,-6.1129,-6.1806,-6.2347,-6.2206,-6.2127,-6.2398,-6.2035,-6.1857,-6.1934,-6.1428,-6.0572,-5.9373,-5.9853,-5.9491,-5.8275,-5.8275,-5.7686,-5.6606,-5.673,-5.6825,-5.673,-5.6192,-5.6269,-5.67,-5.5992,-5.6115,-5.6746,-5.6561,-5.6607,-5.6761,-5.6761,-5.6761,-5.6761,-5.6761,-5.6761,-5.6761,-5.6761,-5.6761,0.0,0.0,0.0,-5.6704,0.0,0.0,-5.5803,-5.5129,-5.4904,-5.4637,-5.4364,-5.4198,-5.4311,-5.5213,-5.5279,-5.5279,-5.562,-5.5941,-5.6414,-5.7046,-5.7013,-5.7164,-5.7808,-5.7881,-5.7881,-5.7881,-5.7881,-5.7881,-5.7881,-5.7881,-5.7881,-5.7881,-5.7881,-5.77,-5.7355,-5.7151,-5.7107,-5.7222,-5.7208,-5.7754,-5.9009,-5.9337,-5.9725,-6.0212,-6.0212,-6.0212,-6.0212,-6.0212,-6.0212,-6.0194,-5.9935,-5.9823,-5.9874,-5.9976,-6.0026,-6.0026,-6.0026,-6.0026,-6.0044,-6.0327,-6.0834,-6.1432,0.0,0.0,0.0,0.0,0.0,0.0,0.0,0.0,0.0,0.0,0.0,0.0,-5.9015,-6.0317,-6.1197,-6.1231,-6.1907,-6.2347,-6.2381,-6.1595,-6.1432,-6.2381,-6.0965,0.0,-6.0703,-5.8846,-5.8195,-5.8854,-5.887,-5.8435,-5.7434,-5.7434,-5.6896,-5.61,-5.6543,-5.6825,-5.6761,-5.673,-5.673,-5.67,-5.5992,-5.6115,-5.6684,-5.6007,-5.6176,-5.6761,-5.6761,-5.6761,-5.6761,-5.6761,-5.6761,-5.6761,-5.6761,-5.6761,-5.6761,0.0,0.0,0.0,0.0,-5.5763,0.0,-5.4931,-5.4283,-5.3956,-5.4725,-5.4466,-5.4232,-5.5149,-5.5955,-5.6536,-5.6536,-5.6536,-5.6614,-5.6614,-5.7331,-5.7881,-5.7881,-5.7881,-5.7881,-5.7881,-5.7881,-5.7881,-5.7881,-5.7881,-5.7881,-5.7881,-5.7881,-5.8192,-5.8772,-5.8117,-5.8019,-5.8657,-5.8657,-5.9006,-5.9831,-6.1132,-6.1824,-6.1897,-6.1897,-6.1897,-6.1897,-6.1897,-6.1897,-6.1806,-6.0425,-5.9874,-5.9976,-5.9976,-6.0026,-6.0026,-6.0026,-6.0008,-6.0081,-6.0847,-6.1259,-6.1487,0.0,0.0,0.0,0.0,0.0,0.0,0.0,0.0,0.0,0.0,0.0,0.0,0.0,-6.0655,-6.1484,-6.1958,-6.1525,-6.097,-6.0365,-6.0315,-6.0163,-5.9679,-5.8864,-5.8518,-5.8654,-5.8444,-5.826,-5.7916,-5.7916,-5.7386,-5.6506,-5.6506,-5.6326,-5.5963,-5.6225,-5.6337,-5.6537,-5.5883,-5.6041,-5.67,-5.5785,-5.6019,-5.673,-5.6484,-5.653,-5.6761,-5.6761,-5.6761,-5.6761,-5.6761,-5.6761,-5.6761,-5.6761,-5.6761,-5.6761,-5.6761,-5.6761,-5.67,-5.6453,0.0,0.0,-5.6232,-5.6041,-5.5999,-5.6461,-5.6059,-5.5795,-5.6627,-5.6678,-5.6768,-5.7331,-5.7406,-5.7406,-5.7406,-5.7718,-5.7881,-5.7881,-5.7881,-5.7881,-5.7881,-5.7881,-5.7881,-5.7881,-5.7881,-5.8082,-5.8511,-5.8511,-5.8841,-5.9578,-5.9382,-5.9545,-6.0164,-6.0214,-6.054,-6.1222,-6.1751,-6.2023,-6.2023,-6.2023,-6.2023,-6.2023,-6.2023,-6.2023,-6.1987,-6.1462,-6.1261,-6.1261,-6.1261,-6.1349,-6.1402,-6.1315,-6.1402,-6.1576,-6.1764,-6.1925,-6.2065,0.0,0.0,0.0,0.0,0.0,0.0,0.0,0.0,-5.7881,-5.7881,0.0,0.0,0.0,0.0,-6.1856,-6.2234,-6.1561,-6.0787,-6.0092,-6.007,-5.9742,-5.8864,-5.7915,-5.738,-5.738,-5.7542,-5.7276,-5.6654,-5.6654,-5.6296,-5.5681,-5.5681,-5.5681,-5.5681,-5.5681,-5.5979,-5.6244,-5.5576,-5.5749,-5.6521,-5.5852,-5.6041,-5.6567,-5.6664,-5.6664,-5.6664,-5.6664,-5.6761,-5.6761,-5.6761,-5.6761,-5.6761,-5.6664,-5.6664,-5.6664,-5.6761,-5.6761,-5.6858,-5.7211,-5.7306,-5.7371,-5.7852,-5.7714,-5.7676,-5.8157,-5.774,-5.7379,-5.7975,-5.7713,-5.7541,-5.7859,-5.7881,-5.7881,-5.7881,-5.7881,-5.7881,-5.7881,-5.7881,-5.7881,-5.7881,-5.7881,-5.8027,-5.8192,-5.8209,-5.8528,-5.923,-5.9297,-5.9561,-6.0282,-6.0362,-6.0669,-6.1297,-6.1372,-6.1561,-6.2023,-6.2023,-6.2023,-6.2023,-6.2023,-6.2023,-6.2023,-6.2023,-6.2023,-6.2023,-6.2023,-6.2023,-6.2023,-6.2023,-6.206,-6.2096,-6.2005,-6.2114,-6.231,-6.2257,-6.231,-6.2415,0.0,0.0,0.0,0.0,0.0,0.0,0.0,0.0,-5.7881,-5.7881,0.0,0.0,0.0,0.0,0.0,-6.1997,-6.198,-6.1837,-6.1628,-6.0752,-6.0194,-6.0112,-5.8085,-5.7007,-5.6991,-5.5819,-5.5194,-5.5194,-5.5194,-5.5194,-5.5194,-5.5194,-5.5194,-5.5194,-5.5194,-5.5481,-5.5979,-5.5979,-5.5979,-5.5979,-5.6274,-5.6274,-5.6077,-5.6274,-5.6372,-5.6372,-5.6372,-5.6567,-5.6761,-5.6761,-5.6761,-5.6761,-5.647,-5.6372,-5.647,-5.6664,-5.6761,-5.6939,0.0,0.0,0.0,-5.9339,-5.9053,-5.8775,-5.9779,-5.9363,-5.8873,-5.9068,-5.9066,-5.8812,-5.8068,-5.7915,-5.7915,-5.7881,-5.7881,-5.7881,-5.7881,-5.7881,-5.7881,-5.7881,-5.7881,-5.8137,-5.8823,-5.8892,-5.923,-5.9966,-6.0048,-6.0344,-6.0968,-6.1045,-6.1297,-6.195,-6.2023,-6.2023,-6.2023,-6.2023,-6.2023,-6.2023,-6.2023,-6.2023,-6.2023,-6.2023,-6.2023,-6.2023,-6.2023,-6.2023,-6.2023,-6.2023,-6.2005,-6.2023,-6.2023,-6.206,-6.2203,-6.2203,-6.2257,-6.2362,0.0,0.0,0.0,0.0,0.0,-5.7881,-5.7881,-5.7881,-5.7881,0.0,0.0,0.0,-6.0097,-6.1467,-6.203,-6.1036,-6.0837,-6.0315,-5.9467,-5.8918,-5.8738,-5.8706,-5.7449,-5.6735,-5.6719,-5.5735,-5.5194,-5.5194,0.0,0.0,0.0,-5.5194,-5.5194,-5.5194,-5.5194,-5.5295,-5.5381,-5.5381,-5.5681,-5.5979,-5.588,-5.588,-5.5979,-5.6077,-5.6274,-5.6372,-5.6372,-5.647,-5.647,-5.647,-5.6372,-5.6176,-5.6176,-5.6077,-5.6176,-5.6176,-5.6274,-5.6454,-5.7354,0.0,0.0,0.0,0.0,0.0,-6.0968,-6.0645,-6.014,-6.0348,-5.997,-5.9363,-5.8771,-5.871,-5.8524,-5.7983,-5.7881,-5.7881,-5.7881,-5.7881,-5.7881,-5.7881,-5.7881,-5.8137,-5.8823,-5.8892,-5.9412,-6.0651,-6.0729,-6.0986,-6.1692,-6.1692,-6.1822,-6.2005,-6.2023,-6.2023,-6.2023,-6.2023,-6.2023,-6.2023,-6.2023,-6.2023,-6.2023,-6.2023,-6.2023,-6.2023,-6.2023,-6.2023,-6.2023,-6.2023,-6.206,-6.2168,-6.2005,-6.2168,-6.231,-6.2114,-6.2168,-6.2257,0.0,0.0,0.0,0.0,0.0,-5.7881,-5.7881,-5.7881,-5.7881,0.0,0.0,0.0,-6.0537,-6.1576,-6.1934,-6.1152,-6.087,-6.0161,-5.904,-5.8844,-5.8376,-5.7543,-5.6911,-5.646,-5.6001,-5.5466,-5.5194,-5.5194,-5.5194,0.0,0.0,-5.5194,-5.5194,-5.5194,-5.5194,-5.5194,-5.5194,-5.5194,-5.5381,-5.5681,-5.5581,-5.5581,-5.5681,-5.578,-5.5979,-5.6077,-5.6077,-5.6176,-5.6274,-5.6274,-5.6077,-5.588,-5.5979,-5.588,-5.5963,-5.6424,-5.6618,-5.6877,-5.824,-5.8605,-5.895,-6.0482,0.0,0.0,-6.1692,-6.1455,-6.1052,-6.0892,-6.0488,-5.9967,-5.9321,-5.9262,-5.9085,-5.8326,-5.8281,-5.8254,-5.7932,-5.7881,-5.801,-5.8263,-5.8334,-5.872,-5.9674,-5.9803,-6.0264,-6.1297,-6.143,-6.1561,-6.195,-6.2023,-6.2023,-6.2023,-6.2023,-6.2023,-6.2023,-6.2023,-6.2023,-6.2023,-6.2023,-6.2023,-6.2023,-6.2023,-6.2023,-6.2023,-6.2023,-6.2023,-6.2023,-6.2023,-6.206,-6.2114,-6.2005,-6.2114,-6.2203,-6.206,-6.206,-6.2114,0.0,0.0,-5.7881,-5.7881,-5.7881,-5.7881,-5.7881,-5.7881,-5.7881,0.0,-5.8609,-5.9691,-6.1146,-6.1751,-6.1917,-6.1709,-6.1547,-6.0953,-5.9881,-5.9691,-5.877,-5.7007,-5.6735,-5.6183,-5.5365,-5.528,-5.5194,-5.5194,-5.5194,-5.5194,-5.5194,-5.5194,-5.5194,-5.5194,0.0,0.0,-5.5194,-5.5194,-5.5194,-5.5194,-5.5496,-5.5381,-5.5194,-5.5481,-5.5581,-5.5581,-5.5581,-5.578,-5.5979,-5.588,-5.5765,-5.5765,-5.588,-5.5864,-5.6032,-5.7053,-5.7417,-5.787,-5.9691,-6.0226,-6.0482,-6.1367,-6.1628,0.0,-6.1854,-6.1773,-6.1525,-6.1014,-6.0801,-6.0504,-5.9767,-5.9789,-5.9631,-5.8875,-5.8908,-5.8771,-5.8,-5.7881,-5.8137,-5.8703,-5.8823,-5.9412,-6.0789,-6.0986,-6.1297,-6.195,-6.2023,-6.2023,-6.2023,-6.2023,-6.2023,-6.2023,-6.2023,-6.2023,-6.2023,-6.2023,-6.2023,-6.2023,-6.2023,-6.2023,-6.2023,-6.2023,-6.2023,-6.2023,-6.2023,-6.2023,-6.2023,-6.2023,-6.2023,-6.2023,-6.2023,-6.2023,-6.2023,-6.2023,-6.2023,-6.2023,-5.7881,-5.7881,-5.7881,-5.7881,-5.7881,-5.7881,-5.7881,-5.7881,-5.7881,-5.7881,-5.9049,-6.025,-6.1197,-6.1751,-6.1917,-6.1709,-6.1547,-6.1219,-6.0818,-6.0071,-5.9411,-5.904,-5.7465,-5.6541,-5.6363,-5.5551,-5.5194,-5.5194,-5.5194,-5.5194,-5.5194,-5.5194,-5.5194,-5.5194,-5.5194,-5.5194,-5.5194,-5.5194,-5.5194,-5.5179,-5.5295,-5.5295,-5.5194,-5.5295,-5.5381,-5.5581,-5.5581,-5.5581,-5.5681,-5.5381,-5.5834,-5.628,-5.5566,-5.6378,-5.7465,-5.6911,-5.7276,-5.8193,-5.9411,-5.9778,-5.9968,-6.0986,-6.1186,0.0,-6.1252,-6.1268,-6.1219,-6.1282,-6.1248,-6.1113,-6.0521,-6.0387,-6.0231,-5.9493,-5.9376,-5.906,-5.8011,-5.7881,-5.7954,-5.8082,-5.8581,-5.923,-6.0093,-6.0669,-6.1297,-6.195,-6.2023,-6.2023,-6.2023,-6.2023,-6.2023,-6.2023,-6.2023,-6.2023,-6.2023,-6.2023,-6.2023,-6.2023,-6.2023,-6.2023,-6.2023,-6.2023,-6.2023,-6.2023,-6.2023,-6.2023,-6.2023,-6.2023,-6.2023,-6.2023,-6.2023,-6.2023,-6.2023,-6.2023,-6.2023,-6.2023,-5.7881,-5.7881,-5.7881,-5.7881,-5.7881,-5.7881,-5.7881,-5.7881,-5.7881,-5.7881,-5.8863,-5.986,-6.0622,-6.1021,-6.1371,-6.1676,-6.14,-6.0986,-6.0361,-5.9881,-5.9411,-5.8844,-5.7371,-5.6638,-5.6638,-5.5635,-5.5194,-5.5194,-5.5194,-5.5194,-5.5194,-5.5194,-5.5466,-5.5918,-5.5365,-5.5466,-5.5819,-5.5365,-5.5194,-5.5194,-5.5194,-5.5194,-5.528,-5.5735,-5.6017,-5.6198,-5.6669,-5.6846,-5.6846,-5.6638,-5.6654,-5.6638,-5.6638,-5.7007,-5.7465,-5.7932,-5.8483,-5.904,-6.0071,-6.0361,-6.0447,-6.1002,-6.1102,0.0,0.0,-6.1186,-6.1186,-6.14,-6.1318,-6.1136,-6.0917,-6.0915,-6.0762,-6.0044,-6.0069,-5.9688,-5.8362,-5.8218,-5.844,-5.8931,-5.8961,-5.9279,-6.0406,-6.0789,-6.1297,-6.195,-6.2023,-6.2023,-6.2023,-6.2023,-6.2023,-6.2023,-6.2023,-6.2023,-6.2023,-6.2023,-6.2023,-6.2023,-6.2023,-6.2023,-6.2023,-6.2023,-6.2023,-6.2023,-6.2023,-6.2023,-6.2023,-6.2023,-6.2023,-6.2023,-6.2023,-6.2023,-6.2023,-6.2023,-6.2023,-6.2023,-5.7865,-5.7881,-5.7881,-5.7881,-5.7881,-5.7881,-5.7881,-5.7881,-5.7881,-5.7881,-5.8541,-5.9235,-5.9827,-6.0247,-6.0767,-6.1505,-6.12,-6.0737,-5.9952,-5.9778,-5.9306,-5.8467,-5.7465,-5.6911,-5.6911,-5.6198,-5.5635,-5.5466,-5.5496,-5.5496,-5.5466,-5.5496,-5.5963,-5.6541,-5.6001,-5.61,-5.6541,-5.6017,-5.5735,-5.5735,-5.5735,-5.5551,-5.528,-5.628,-5.6638,-5.6735,-5.773,-5.8101,-5.8101,-5.8101,-5.773,-5.7292,-5.7916,-5.7839,-5.7746,-5.9145,-5.9707,-6.0071,-6.0919,-6.1102,-6.1102,-6.1102,-6.1102,-6.1186,0.0,0.0,0.0,-6.1318,-6.1252,-6.1102,-6.1102,-6.1252,-6.1135,-6.0553,-6.0759,-6.0561,-5.9215,-5.895,-5.9099,-5.9575,-5.9305,-5.9586,-6.0669,-6.1045,-6.143,-6.195,-6.2023,-6.2023,-6.2023,-6.2023,-6.2023,-6.2023,-6.2023,-6.2023,-6.2023,-6.2023,-6.2023,-6.2023,-6.2023,-6.2023,-6.2023,-6.2023,-6.2023,-6.2023,-6.2023,-6.2023,-6.2023,-6.2023,-6.2023,-6.2023,-6.2023,-6.2023,-6.2023,-6.2023,-6.2114,-6.2241,-5.7763,-5.7881,-5.7881,-5.7881,-5.7881,-5.7881,-5.7881,-5.7881,-5.7881,-5.7881,-5.8541,-5.9049,-5.9133,-5.9582,-6.0169,-6.0892,-6.0801,-6.0846,-6.1169,-6.0381,-5.9762,-5.9411,-5.8483,-5.7916,-5.7916,-5.7823,-5.7371,-5.646,-5.6741,-5.6741,-5.646,-5.6741,-5.6823,-5.6638,-5.7449,-5.7371,-5.6638,-5.7465,-5.773,-5.773,-5.773,-5.6735,-5.528,-5.628,-5.6638,-5.6735,-5.773,-5.8101,-5.8101,-5.8101,-5.8664,-5.9129,-5.8376,-5.9234,-6.0463,-5.9778,-6.0259,-6.0919,-6.1102,-6.1102,-6.1102,-6.1102,-6.1102,-6.1119,-6.1102,0.0,-6.1119,-6.1102,0.0,-6.1102,-6.1102,0.0,0.0,-6.0986,-6.1201,-6.1363,-6.1358,-6.0377,-5.9203,-5.8022,-5.9125,-6.0028,-6.01,-6.118,-6.1895,-6.2005,-6.2023,-6.2023,-6.2023,-6.2023,-6.2023,-6.2023,-6.2023,-6.2023,-6.2023,-6.2023,-6.2023,-6.2023,-6.2023,-6.2023,-6.2023,-6.2023,-6.2023,-6.2023,-6.2023,-6.2023,-6.2023,-6.2023,-6.2023,-6.2023,-6.2023,-6.2023,-6.2023,-6.2023,-6.2458,-6.3056,-5.7746,-5.7881,-5.7881,-5.7881,-5.7881,-5.7881,-5.7881,-5.7881,-5.7881,-5.7881,-5.8169,-5.845,-5.8815,-5.8908,-5.9504,-6.0645,-6.0461,-6.0617,-6.135,-6.0869,-6.0532,-6.0447,-5.9499,-5.8934,-5.8934,-5.8376,-5.7916,-5.7449,-5.7637,-5.7637,-5.7449,-5.7637,-5.7917,-5.83,-5.8193,-5.8193,-5.83,-5.8193,-5.8101,-5.8101,-5.8101,-5.7637,-5.7007,-5.7932,-5.868,-5.925,-5.9691,-5.9881,-5.9881,-5.9881,-5.9691,-5.9603,-5.9794,-5.9984,-6.0259,-6.0447,-6.0734,-6.1102,-6.1102,-6.1102,-6.1102,-6.1102,-6.1102,-6.1102,-6.1102,-6.1102,-6.1102,-6.1102,0.0,0.0,0.0,0.0,0.0,0.0,-6.1334,-6.1397,-6.0962,-6.0791,-6.0249,-5.9152,-5.9279,-5.9544,-5.9937,-6.0867,-6.143,-6.143,-6.1766,-6.2023,-6.2023,-6.2023,-6.2023,-6.2023,-6.2023,-6.2023,-6.2023,-6.2023,-6.2023,-6.2023,-6.2023,-6.2023,-6.2023,-6.2023,-6.2023,-6.2023,-6.2023,-6.2023,-6.2023,-6.2023,-6.2023,-6.2023,-6.2023,-6.2023,-6.2078,-6.253,-6.2911,-6.3255,-5.7408,-5.7746,-5.7881,-5.7881,-5.7881,-5.7881,-5.7881,-5.7881,-5.7881,-5.7881,-5.7881,-5.8028,-5.8345,-5.832,-5.8765,-5.9963,-5.9964,-6.0317,-6.1115,-6.1218,-6.1186,-6.1102,-6.0447,-5.9984,-5.9984,-5.9323,-5.8754,-5.8467,-5.8749,-5.8733,-5.8483,-5.8749,-5.92,-5.9603,-5.9129,-5.9097,-5.9418,-5.9113,-5.8934,-5.8934,-5.8934,-5.8934,-5.8934,-5.9411,-6.0259,-6.1102,-6.1102,-6.1102,-6.1102,-6.1102,-6.0633,-6.0157,-6.0835,-6.0633,-6.0157,-6.0919,-6.1102,-6.1102,-6.1102,-6.1102,-6.1102,-6.1102,-6.1102,-6.1102,-6.1102,-6.1102,-6.1102,-6.1102,-6.1102,0.0,0.0,0.0,-6.1102,-6.1102,0.0,-6.1363,-6.0731,-6.0993,-6.0832,-5.9836,-5.9245,-5.9163,-5.9902,-6.0608,-6.1104,-6.1239,-6.1692,-6.2023,-6.2023,-6.2023,-6.2023,-6.2023,-6.2023,-6.2023,-6.2023,-6.2023,-6.2023,-6.2023,-6.2023,-6.2023,-6.2023,-6.2023,-6.2023,-6.2023,-6.2023,-6.2023,-6.2023,-6.2023,-6.2023,-6.2023,-6.2023,-6.215,-6.2404,-6.2983,-6.3327,-6.3635,-5.6545,-5.7408,-5.7881,-5.7881,-5.7881,-5.7881,-5.7881,-5.7881,-5.7881,-5.7881,-5.7881,-5.7825,-5.7621,-5.7769,-5.8163,-5.8715,-5.9362,-6.0024,-6.0588,-6.1065,-6.1318,-6.1102,-6.1102,-6.1019,-6.1019,-6.1019,-6.0548,-5.9587,-6.0532,-6.0516,-5.9603,-6.0548,-6.0499,-5.9603,-6.0548,-6.0332,-5.9208,-6.045,-6.1019,-6.1019,-6.1019,-6.1019,-6.0919,-5.9968,-6.0259,-6.1102,-6.1102,-6.1102,-6.1102,-6.1102,-6.1102,-6.1019,-6.1102,-6.1102,-6.1019,-6.1102,-6.1102,-6.1102,-6.1102,-6.1102,-6.1102,-6.1102,-6.1102,-6.1102,-6.1102,-6.1102,-6.1102,-6.1102,-6.1102,-6.1102,-6.1102,-6.1102,-6.1102,-6.1102,-6.1235,0.0,0.0,-6.1216,-6.0381,-5.8917,-5.8849,-5.9163,-5.9902,-6.0608,-6.1297,-6.1895,-6.2023,-6.2023,-6.2023,-6.2023,-6.2023,-6.2023,-6.2023,-6.2023,-6.2023,-6.2023,-6.2023,-6.2023,-6.2023,-6.2023,-6.2023,-6.2023,-6.2023,-6.2023,-6.2023,-6.2023,-6.2023,-6.2023,-6.2023,-6.2023,-6.2023,-6.2494,-6.3146,-6.3182,-6.3689,-6.4468,-5.5243,-5.6325,-5.7323,-5.7797,-5.7881,-5.7881,-5.7881,-5.7881,-5.7881,-5.7881,-5.7881,-5.7808,-5.7588,-5.7514,-5.7741,-5.8421,-5.8491,-5.8985,-6.0361,-6.0453,-6.0671,-6.1086,-6.1102,-6.1102,-6.1102,-6.1102,-6.0919,-6.0548,-6.0965,-6.0965,-6.0633,-6.0965,-6.0948,-6.0633,-6.0919,-6.0869,-6.0433,-6.0886,-6.1102,-6.1102,-6.1102,-6.1102,-6.1019,-6.0734,-6.0818,-6.1102,-6.1102,-6.1102,-6.1102,-6.1102,-6.1102,-6.1102,-6.1102,-6.1102,-6.1102,-6.1102,-6.1102,-6.1102,-6.1102,-6.1102,-6.1102,-6.1102,-6.1102,-6.1102,-6.1102,-6.1102,-6.1102,-6.1102,-6.1102,-6.1102,-6.1102,-6.1102,-6.1102,-6.1102,-6.1252,-6.1465,0.0,-6.0953,-6.0038,-5.8984,-5.854,-5.872,-5.992,-5.9756,-5.9885,-6.0608,-6.1122,-6.1372,-6.1372,-6.1766,-6.2023,-6.2023,-6.2023,-6.2023,-6.2023,-6.2023,-6.2023,-6.2023,-6.2023,-6.2023,-6.2023,-6.2023,-6.2023,-6.2023,-6.2023,-6.1766,-6.1372,-6.1822,-6.1748,-6.1372,-6.1822,-6.2494,-6.3255,-6.3798,-6.4486,-6.5301,-5.4532,-5.5581,-5.6647,-5.7374,-5.7712,-5.7881,-5.7881,-5.7881,-5.7881,-5.7881,-5.7881,-5.7808,-5.7588,-5.7514,-5.7715,-5.8035,-5.809,-5.868,-5.9898,-6.0087,-6.0406,-6.1069,-6.1102,-6.1102,-6.1102,-6.1102,-6.1102,-6.1102,-6.1102,-6.1102,-6.1102,-6.1102,-6.1102,-6.1102,-6.1102,-6.1102,-6.1102,-6.1102,-6.1102,-6.1102,-6.1102,-6.1102,-6.1102,-6.1102,-6.1102,-6.1102,-6.1102,-6.1102,-6.1102,-6.1102,-6.1102,-6.1102,-6.1102,-6.1102,-6.1102,-6.1102,-6.1102,-6.1102,-6.1102,-6.1102,-6.1102,-6.1102,-6.1102,-6.1102,-6.1102,-6.1102,-6.1102,-6.1102,-6.1102,-6.1102,-6.1102,-6.1102,-6.1102,-6.1102,-6.1169,-6.14,0.0,-6.0987,-6.0351,-5.9877,-5.8676,-5.8334,-5.9513,-5.9429,-5.9495,-5.9966,-6.0608,-6.0986,-6.0986,-6.143,-6.1748,-6.2023,-6.2023,-6.2023,-6.2023,-6.2023,-6.2023,-6.2023,-6.2023,-6.2023,-6.2023,-6.2023,-6.2023,-6.2023,-6.2023,-6.1748,-6.1372,-6.1561,-6.1372,-6.1063,-6.181,-6.2537,-6.3351,-6.4122,-6.5084,-6.6098,-5.4515,-5.526,-5.6004,-5.6731,-5.7425,-5.7881,-5.7881,-5.7881,-5.7881,-5.7881,-5.7881,-5.7808,-5.7662,-5.7808,-5.7808,-5.7588,-5.8244,-5.8892,-5.9416,-5.9898,-6.0486,-6.102,-6.1053,-6.1069,-6.1102,-6.1102,-6.1102,-6.1102,-6.1102,-6.1102,-6.1102,-6.1102,-6.1102,-6.1102,-6.1102,-6.1102,-6.1102,-6.1102,-6.1102,-6.1102,-6.1102,-6.1102,-6.1102,-6.1102,-6.1102,-6.1102,-6.1102,-6.1102,-6.1102,-6.1102,-6.1102,-6.1102,-6.1102,-6.1102,-6.1102,-6.1102,-6.1102,-6.1102,-6.1102,-6.1102,-6.1102,-6.1102,-6.1102,-6.1102,-6.1102,-6.1102,-6.1102,-6.1102,-6.1102,-6.1102,-6.1102,-6.1102,-6.1102,-6.1102,-6.1102,-6.1252,-6.1628,-6.152,-6.1298,-6.1298,-5.9336,-5.8311,-5.8961,-5.953,-5.992,-5.9966,-6.0608,-6.0909,-6.0909,-6.0968,-6.1315,-6.195,-6.195,-6.2023,-6.2023,-6.2023,-6.2023,-6.2023,-6.2023,-6.2023,-6.2023,-6.2023,-6.2023,-6.2023,-6.2023,-6.195,-6.1822,-6.1239,-6.1004,-6.1111,-6.186,-6.2742,-6.3535,-6.422,-6.5482,-6.6804,-5.5395,-5.6021,-5.6748,-5.7492,-5.7763,-5.7881,-5.7881,-5.7881,-5.7881,-5.7881,-5.7881,-5.7881,-5.7808,-5.7735,-5.7662,-5.7588,-5.7624,-5.7968,-5.8646,-5.8786,-5.9471,-6.0679,-6.0729,-6.0996,-6.1547,-6.14,-6.1318,-6.1318,-6.1169,-6.1102,-6.1102,-6.1102,-6.1102,-6.1102,-6.1102,-6.1102,-6.1102,-6.1102,-6.1102,-6.1102,-6.1102,-6.1102,-6.1102,-6.1102,-6.1102,-6.1102,-6.1102,-6.1102,-6.1102,-6.1102,-6.1102,-6.1102,-6.1102,-6.1102,-6.1102,-6.1102,-6.1102,-6.1102,-6.1102,-6.1102,-6.1102,-6.1102,-6.1102,-6.1102,-6.1102,-6.1102,-6.1102,-6.1102,-6.1102,-6.1102,-6.1102,-6.1102,-6.1102,-6.1102,-6.1334,-6.1628,-6.1934,-6.1565,-6.1298,-6.1298,-6.0266,-5.9784,-6.0485,-5.9254,-5.8858,-5.9902,-6.0174,-6.003,-5.9478,-6.0909,-6.1561,-6.1239,-6.1748,-6.2023,-6.2023,-6.2023,-6.2023,-6.2023,-6.2023,-6.2023,-6.2023,-6.2023,-6.2023,-6.2023,-6.2023,-6.1448,-6.0547,-6.0867,-6.1067,-6.1245,-6.1892,-6.302,-6.4305,-6.5064,-6.5952,-6.6727,-5.5716,-5.6292,-5.7036,-5.7763,-5.7881,-5.7881,-5.7881,-5.7881,-5.7881,-5.7881,-5.7881,-5.7881,-5.7881,-5.7808,-5.7735,-5.7735,-5.7662,-5.7833,-5.8513,-5.8564,-5.9141,-6.0537,-6.0588,-6.0956,-6.1692,-6.1628,-6.1465,-6.1383,-6.1334,-6.1186,-6.1102,-6.1102,-6.1102,-6.1102,-6.1102,-6.1102,-6.1119,-6.1169,-6.1268,-6.1268,-6.1119,-6.1235,0.0,-6.1219,-6.1102,-6.1102,-6.1102,-6.1102,-6.1102,-6.1102,-6.1102,-6.1102,-6.1102,-6.1102,-6.1102,-6.1102,-6.1102,-6.1102,-6.1102,-6.1102,-6.1102,-6.1102,-6.1102,-6.1102,-6.1102,-6.1102,-6.1102,-6.1102,-6.1102,-6.1102,-6.1252,-6.1186,-6.1102,-6.1252,-6.1482,-6.179,-6.1997,-6.1835,-6.1772,-6.1772,-6.1367,-6.1404,-6.2045,-6.0151,-5.9185,-5.9937,-5.9966,-5.9966,-5.9803,-6.0669,-6.1239,-6.143,-6.1505,-6.1692,-6.2023,-6.2023,-6.2023,-6.2023,-6.2023,-6.2023,-6.2023,-6.2023,-6.2023,-6.195,-6.1692,-6.1104,-6.0441,-6.0526,-6.0867,-6.1342,-6.2728,-6.3948,-6.509,-6.5518,-6.5949,-6.6251,-5.6004,-5.6511,-5.7154,-5.778,-5.7881,-5.7881,-5.7881,-5.7881,-5.7881,-5.7881,-5.7881,-5.7881,-5.7881,-5.7881,-5.7932,-5.8034,-5.8034,-5.8281,-5.8875,-5.885,-5.9396,-6.0617,-6.0583,-6.0918,-6.1773,-6.1689,-6.1528,-6.1465,-6.1383,-6.1334,-6.1102,-6.1102,0.0,0.0,0.0,0.0,0.0,-6.14,-6.1499,-6.1532,-6.1283,-6.1449,-6.1665,-6.1318,-6.1102,-6.1102,-6.1102,-6.1102,-6.1102,-6.1102,-6.1102,-6.1102,-6.1102,-6.1102,-6.1102,-6.1102,-6.1102,-6.1102,-6.1102,-6.1102,-6.1102,-6.1102,-6.1102,-6.1102,-6.1102,-6.1102,-6.1102,-6.1102,-6.1102,-6.1169,-6.14,-6.1252,-6.1252,-6.1383,-6.1628,-6.1773,-6.1997,-6.2268,-6.2381,-6.2381,-6.2518,0.0,-6.3374,-6.1449,-6.0284,-6.0304,-6.0227,-6.0282,-6.0711,-6.0406,-6.0747,-6.171,-6.1372,-6.143,-6.2005,-6.2023,-6.2023,-6.2023,-6.2023,-6.2023,-6.2023,-6.2023,-6.195,-6.1822,-6.1239,-6.098,-6.0864,-6.0284,-6.0616,-6.1581,-6.3776,-6.4963,-6.5403,-6.5551,-6.5551,-6.5551,-5.7509,-5.7611,-5.7746,-5.7865,-5.7881,-5.7881,-5.7881,-5.7881,-5.7881,-5.7881,-5.7881,-5.7881,-5.7881,-5.7881,-5.8135,-5.8761,-5.8829,-5.9133,-5.9785,-5.9836,-6.0241,-6.117,-6.0579,-6.0866,-6.2268,-6.1425,-6.1249,-6.1628,-6.1465,-6.1334,-6.1102,-6.1102,-6.1169,0.0,0.0,0.0,-6.1564,-6.1628,-6.1678,-6.1843,-6.181,-6.1826,-6.186,-6.1565,-6.1433,-6.1318,-6.1186,-6.1102,-6.1102,-6.1102,-6.1102,-6.1102,-6.1102,-6.1102,-6.1102,-6.1102,-6.1102,-6.1102,-6.1102,-6.1102,-6.1102,-6.1102,-6.1102,-6.1102,-6.1102,-6.1102,-6.1102,-6.1102,-6.1252,-6.14,-6.1383,-6.1482,-6.1645,-6.1628,-6.1854,-6.2014,-6.2285,-6.2381,-6.2381,-6.2381,-6.2905,-6.3338,-6.3427,-6.1989,-6.1202,-6.1768,-6.1223,-6.0388,-5.9346,-6.0789,-6.1257,-6.0362,-6.1315,-6.1895,-6.2023,-6.2023,-6.2023,-6.2023,-6.2023,-6.2023,-6.2023,-6.2023,-6.1692,-6.1163,-6.1045,-6.0715,-6.0253,-6.0117,-6.0911,-6.2333,-6.3971,-6.4271,-6.3987,-6.4601,-6.4806,-6.4873,-5.7881,-5.7881,-5.7881,-5.7881,-5.7881,-5.7881,-5.7881,-5.7881,-5.7881,-5.7881,-5.7881,-5.8034,-5.844,-5.8473,-5.8778,-5.9522,-5.9573,-5.9725,-6.008,-6.0097,-6.0469,-6.1264,-6.0926,-6.1247,-6.2364,-6.1947,-6.1756,-6.1854,-6.1773,-6.1628,-6.1417,-6.1417,-6.1482,-6.1547,0.0,-6.1628,0.0,0.0,-6.187,-6.1921,-6.1921,-6.2068,-6.2152,-6.1712,-6.1597,-6.1614,-6.1334,-6.1252,-6.1252,-6.1102,-6.1102,-6.1102,-6.1102,-6.1102,-6.1102,-6.1102,-6.1102,-6.1102,-6.1102,-6.1102,-6.1102,-6.1102,-6.1102,-6.1102,-6.1102,-6.1102,-6.1102,-6.1102,-6.1252,-6.1465,-6.1547,-6.1692,-6.1854,-6.1854,-6.1917,-6.2093,-6.2381,-6.2381,-6.2381,-6.2381,-6.3025,-6.3632,-6.4006,-6.3335,-6.2888,-6.2806,-6.1664,-6.0706,-6.0088,-6.0636,-6.0807,-6.0547,-6.0807,-6.1315,-6.2005,0.0,-6.2023,-6.2023,-6.2023,-6.2023,-6.2023,-6.1636,-6.1315,-6.0986,-6.066,-6.0349,-6.0185,-6.0961,-6.1944,-6.3069,-6.4183,-6.4393,-6.42,-6.4873,-6.5141,-6.5207,-5.7881,-5.7881,-5.7881,-5.7881,-5.7881,-5.7881,-5.7881,-5.8017,-5.8068,-5.7898,-5.8034,-5.8355,-5.8947,-5.915,-5.9556,-6.0283,-6.0368,-6.0419,-6.0571,-6.0588,-6.0875,-6.1501,-6.1383,-6.1653,-6.2364,-6.2245,-6.2133,-6.1997,-6.1997,-6.1934,-6.1709,-6.1709,-6.1709,-6.179,0.0,0.0,0.0,0.0,-6.2093,-6.2093,-6.2093,-6.2177,-6.2392,-6.1921,-6.1823,-6.1891,-6.158,-6.1465,-6.1465,-6.1252,-6.1102,-6.1102,-6.1102,-6.1102,-6.1102,-6.1102,-6.1102,-6.1102,-6.1102,-6.1102,-6.1102,-6.1102,-6.1102,-6.1102,-6.1102,-6.1102,-6.1169,-6.1169,-6.1318,-6.1547,-6.1692,-6.1934,-6.2093,-6.1997,-6.2076,-6.2189,-6.2381,-6.2381,-6.2381,-6.2381,-6.3025,-6.3716,-6.4323,-6.445,-6.4278,-6.3608,-6.2317,-6.1432,-6.1353,-6.0779,-6.0591,0.0,-6.0635,-6.0927,-6.2023,0.0,-6.2023,-6.2023,-6.2023,-6.195,-6.1766,-6.1239,-6.0938,-6.0769,-6.0302,-6.0165,-6.0436,-6.1848,-6.2758,-6.3291,-6.3915,-6.4253,-6.4463,-6.5207,-6.5551,-6.5742,-5.7881,-5.7881,-5.7881,-5.7881,-5.7881,-5.7881,-5.7881,-5.8473,-5.866,-5.7983,-5.849,-5.893,-5.9015,-5.9607,-6.0317,-6.1129,-6.1197,-6.1467,-6.2127,-6.2178,-6.2212,-6.2279,-6.1653,-6.1653,-6.2364,-6.1738,-6.1643,-6.203,-6.1997,-6.1934,-6.1709,-6.1709,-6.179,-6.1997,0.0,0.0,0.0,-6.2381,-6.2381,-6.2381,-6.2381,-6.2398,-6.2398,-6.2093,-6.1997,-6.1934,-6.179,-6.1628,-6.1628,-6.1465,-6.1252,-6.1102,-6.1102,-6.1102,-6.1102,-6.1102,-6.1102,-6.1102,-6.1102,-6.1102,-6.1102,-6.1102,-6.1102,-6.1102,-6.1102,-6.1252,-6.14,-6.14,-6.1692,-6.1917,-6.1997,-6.2189,-6.2285,-6.2076,-6.2189,-6.2381,-6.2381,-6.2381,-6.2381,-6.2381,-6.3025,-6.3513,-6.3587,-6.4186,-6.4515,-6.4474,-6.3605,-6.2835,-6.2196,-6.2035,0.0,-6.1102,-6.1556,-6.1895,-6.2023,-6.2023,-6.2023,-6.2023,-6.2023,-6.1692,-6.1104,-6.1045,-6.067,-6.0203,-6.0151,-6.0497,-6.1223,-6.2096,-6.2469,-6.2537,-6.2598,-6.3007,-6.3716,-6.4463,-6.5141,-6.5824,-5.7881,-5.7881,-5.7881,-5.7881,-5.7881,-5.8034,-5.849,-5.8829,-5.9066,-5.9201,-5.9471,-5.9844,-6.0334,-6.0639,-6.1129,-6.189,-6.1958,-6.2076,-6.2364,-6.2381,-6.2381,-6.2381,-6.211,-6.2093,-6.2381,-6.2093,-6.2015,-6.2223,-6.2206,-6.2206,-6.2127,-6.2127,-6.2127,-6.2268,0.0,-6.2381,-6.2381,-6.2381,-6.2381,-6.2381,-6.2381,-6.2381,-6.2381,-6.2285,-6.2268,-6.2189,-6.1934,-6.1854,-6.1854,-6.1628,-6.1482,-6.1252,-6.1102,-6.1102,-6.1102,-6.1102,-6.1102,-6.1102,-6.1102,-6.1102,-6.1119,-6.1285,-6.1368,-6.1368,-6.1417,-6.1564,-6.1547,-6.1547,-6.1756,-6.2076,-6.2189,-6.2302,-6.2381,-6.2285,-6.2302,-6.2381,-6.2381,-6.2381,-6.2381,-6.2381,-6.2676,-6.3025,-6.344,-6.4113,-6.4738,-6.5237,-6.4419,-6.3482,-6.2367,-6.2665,0.0,-6.1104,0.0,-6.2825,-6.273,-6.2712,-6.2712,-6.2712,-6.2241,-6.213,-6.232,-6.144,-6.0956,-6.0819,-6.0819,-6.1265,-6.1975,-6.2262,-6.2381,-6.2381,-6.2381,-6.3158,-6.42,-6.4463,-6.5356,-6.6391,-5.7881,-5.7881,-5.7881,-5.7881,-5.8068,-5.8406,-5.893,-5.9404,-5.986,-6.0385,-6.0639,-6.0909,-6.1264,-6.1501,-6.1823,-6.2347,-6.2381,-6.2381,-6.2381,-6.2381,-6.2381,-6.2381,-6.2381,-6.2381,-6.2381,-6.2381,-6.2381,-6.2381,-6.2381,-6.2381,-6.2381,-6.2381,-6.2381,-6.2381,-6.2381,-6.2381,-6.2381,-6.2381,-6.2381,-6.2381,-6.2381,-6.2381,-6.2381,-6.2381,-6.2381,-6.2381,-6.2189,-6.2093,-6.2093,-6.1854,-6.1692,-6.1547,-6.1334,-6.1268,-6.1268,-6.1268,-6.1268,-6.1252,-6.1219,-6.1219,-6.1301,-6.1515,-6.163,-6.163,-6.1759,-6.1807,-6.179,-6.1887,-6.203,-6.2189,-6.2381,-6.2381,-6.2381,-6.2381,-6.2381,-6.2381,-6.2381,-6.2381,-6.2381,-6.2381,-6.2381,-6.2598,-6.31,-6.3843,-6.4548,-6.5095,-6.4864,-6.4291,-6.3382,-6.3555,0.0,0.0,0.0,0.0,-6.3545,-6.3545,-6.3545,-6.3526,-6.2779,-6.2569,-6.2898,-6.1704,-6.1232,-6.1315,-6.1535,-6.2046,-6.2736,-6.2736,-6.2872,-6.3007,-6.2813,-6.3626,-6.4873,-6.4669,-6.5551,-6.6804,-5.7881,-5.7881,-5.7881,-5.7881,-5.8507,-5.8998,-5.9015,-6.03,-6.1281,-6.1281,-6.1924,-6.2093,-6.1383,-6.1941,-6.2381,-6.2381,-6.2381,-6.2381,-6.2381,-6.2381,-6.2381,-6.2381,-6.2381,-6.2381,-6.2381,-6.2381,-6.2381,-6.2381,-6.2381,-6.2381,-6.2381,0.0,-6.2381,-6.2381,-6.2381,-6.2381,-6.2381,-6.2381,-6.2381,-6.2381,-6.2381,-6.2381,-6.2381,-6.2381,-6.2381,-6.2381,-6.2381,-6.2398,-6.2381,-6.2093,-6.198,-6.1997,-6.179,-6.1709,-6.1709,-6.1709,-6.1709,-6.1692,-6.1511,-6.1494,-6.1511,-6.1692,-6.1793,-6.1941,-6.1941,-6.1921,-6.2076,-6.2381,-6.2381,-6.2381,-6.2381,-6.2381,-6.2381,-6.2381,-6.2381,-6.2381,-6.2381,-6.2381,-6.2381,-6.2381,-6.2381,-6.2381,-6.2381,-6.31,-6.3615,-6.3798,-6.4746,-6.5429,-6.5643,-6.4929,-6.4519,-6.4483,-6.441,0.0,-6.4378,-6.4378,-6.4378,-6.4378,-6.3645,-6.2931,-6.2319,-6.161,-6.1281,-6.1349,-6.2059,-6.2813,-6.3513,-6.3513,-6.3915,-6.4532,-6.3788,-6.4393,-6.5615,-6.4873,-6.5551,-6.6804,-5.7881,-5.7881,-5.7881,-5.7881,-5.8507,-5.9184,-5.9674,-6.0639,-6.1484,-6.1975,-6.2245,-6.2296,-6.2076,-6.2245,-6.2381,-6.2381,-6.2381,-6.2381,-6.2381,-6.2381,-6.2381,-6.2381,-6.2381,-6.2381,-6.2381,-6.2381,-6.2381,-6.2381,-6.2381,-6.2381,-6.2381,-6.2381,-6.2381,-6.2381,-6.2381,-6.2381,-6.2381,-6.2381,-6.2381,-6.2381,-6.2381,-6.2381,-6.2381,-6.2381,-6.2381,-6.2381,-6.2381,-6.2381,-6.2398,-6.2285,-6.2285,-6.2285,-6.2223,-6.1967,-6.1709,-6.1709,-6.1709,-6.1709,-6.1676,-6.1676,-6.1659,-6.1837,-6.1951,-6.1984,-6.2177,-6.224,-6.2285,-6.2381,-6.2381,-6.2381,-6.2381,-6.2381,-6.2381,-6.2381,-6.2381,-6.2381,-6.2381,-6.2381,-6.2381,-6.2381,-6.2381,-6.2381,-6.2381,-6.31,-6.3736,-6.4339,-6.5131,-6.5842,-6.6386,-6.6241,-6.5713,-6.4996,-6.5696,0.0,-6.4918,-6.5667,-6.6032,-6.6014,-6.4311,-6.3109,-6.2311,-6.281,-6.2633,-6.2059,-6.2279,-6.2813,-6.3513,-6.3513,-6.3915,-6.4601,-6.4323,-6.4856,-6.5679,-6.5421,-6.5967,-6.6804,-5.7881,-5.7881,-5.7881,-5.7881,-5.8744,-5.9573,-6.003,-6.1028,-6.1873,-6.233,-6.2381,-6.2381,-6.2381,-6.2381,-6.2381,-6.2381,-6.2381,-6.2381,-6.2381,-6.2381,-6.2381,-6.2381,-6.2381,-6.2381,-6.2381,-6.2381,0.0,-6.2381,-6.2381,-6.2381,-6.2381,-6.2381,-6.2381,-6.2381,-6.2381,-6.2381,-6.2381,-6.2381,-6.2381,-6.2381,-6.2381,-6.2381,-6.2381,-6.2381,-6.2381,-6.2381,-6.2381,-6.2381,-6.2381,-6.2381,-6.2381,-6.2381,-6.2381,-6.2223,-6.1967,-6.1967,-6.1967,-6.1967,-6.1967,-6.1967,-6.1967,-6.211,-6.2172,-6.2189,-6.2381,-6.2381,-6.2381,-6.2381,-6.2381,-6.2381,-6.2381,-6.2381,-6.2381,-6.2381,-6.2381,-6.2381,-6.2381,-6.2381,-6.2381,-6.2381,-6.2381,-6.2381,-6.2381,-6.2813,-6.3279,-6.3745,-6.453,-6.5308,-6.5922,-6.6476,-6.6288,-6.5262,-6.6234,-6.6496,-6.5786,-6.6464,-6.6812,-6.6794,-6.5448,-6.3919,-6.2327,-6.3016,-6.2975,-6.2381,-6.2381,-6.2949,-6.3915,-6.3915,-6.4532,-6.5421,-6.5141,-6.5486,-6.6092,-6.5824,-6.6172,-6.6804,-5.7881,-5.7881,-5.7881,-5.7881,-5.9116,-6.0097,-6.0097,-6.14,-6.2381,-6.2381,-6.2381,-6.2381,-6.2381,-6.2381,-6.2381,-6.2381,-6.2381,-6.2381,-6.2381,-6.2381,-6.2381,-6.2381,-6.2381,-6.2381,-6.2381,-6.2381,-6.2381,-6.2381,-6.2381,-6.2381,-6.2381,-6.2381,-6.2381,-6.2381,-6.2381,-6.2381,-6.2381,-6.2381,-6.2381,-6.2381,-6.2381,-6.2381,-6.2381,-6.2381,-6.2381,-6.2381,-6.2381,-6.2381,-6.2381,-6.2381,-6.2381,-6.2381,-6.2381,-6.2381,-6.2381,-6.2381,-6.2381,-6.2381,-6.2381,-6.2381,-6.2381,-6.2381,-6.2381,-6.2381,-6.2381,-6.2381,-6.2381,-6.2381,-6.2381,-6.2381,-6.2381,-6.2381,-6.2381,-6.2381,-6.2381,-6.2381,-6.2381,-6.2381,-6.2381,-6.2381,-6.2381,-6.2381,-6.2381,-6.2381,-6.2455,-6.2461,-6.3285,-6.4017,0.0,0.0,-6.6186,-6.5312,-6.6294,-6.6776,-6.6799,-6.6799,-6.6781,-6.6822,-6.6589,-6.514,-6.2581,-6.2459,-6.2459,-6.2459,-6.2459,-6.3291,-6.4601,-6.4669,-6.5504,-6.6727,-6.603,-6.6172,-6.6727,-6.603,-6.6233,-6.6804,0.0,0.0,-5.7881,-5.7881,-5.9116,-6.0097,-6.0097,-6.14,-6.2381,-6.2381,-6.2381,-6.2381,-6.2381,-6.2381,-6.2381,-6.2381,-6.2381,-6.2381,-6.2381,-6.2381,-6.2381,-6.2381,-6.2381,-6.2381,-6.2381,-6.2381,-6.2381,-6.2381,-6.2381,-6.2381,-6.2381,-6.2381,-6.2381,-6.2381,-6.2381,-6.2381,-6.2381,-6.2381,-6.2381,-6.2381,-6.2381,-6.2381,-6.2381,-6.2381,-6.2381,-6.2381,-6.2381,-6.2381,-6.2381,-6.2381,-6.2381,-6.2381,-6.2381,-6.2381,-6.2381,-6.2381,-6.2381,-6.2381,-6.2381,-6.2381,-6.2381,-6.2381,-6.2381,-6.2381,-6.2381,-6.2381,-6.2381,-6.2381,-6.2381,-6.2381,-6.2381,-6.2381,-6.2381,-6.2381,-6.2381,-6.2381,-6.2381,-6.2381,-6.2381,-6.2381,-6.2381,-6.2381,-6.2381,-6.2381,-6.2608,-6.3176,-6.3479,-6.3621,-6.3716,-6.4216,-6.457,-6.4785,-6.6075,-6.6791,-6.6792,-6.6792,-6.678,-6.6804,-6.4511,-6.3868,-6.4541,-6.3073,-6.2676,-6.3233,-6.3233,-6.3788,-6.4669,-6.5207,-6.5967,-6.6804,-6.659,-6.6668,-6.6804,-6.659,-6.6668,-6.6804,-5.7881,-5.7881,-5.7881,-5.7881,-5.9116,-6.0097,-6.0097,-6.14,-6.2381,-6.2381,-6.2381,-6.2381,-6.2381,-6.2381,-6.2381,-6.2381,-6.2381,-6.2381,-6.2381,-6.2381,-6.2381,-6.2381,-6.2381,-6.2381,-6.2381,-6.2381,-6.2381,-6.2381,-6.2381,-6.2381,-6.2381,-6.2381,-6.2381,-6.2381,-6.2381,-6.2381,-6.2381,-6.2381,-6.2381,-6.2381,-6.2381,-6.2381,-6.2381,-6.2381,-6.2381,-6.2381,-6.2381,-6.2381,-6.2381,-6.2381,-6.2381,-6.2381,-6.2381,-6.2381,-6.2381,-6.2381,-6.2381,-6.2381,-6.2381,-6.2381,-6.2381,-6.2381,-6.2381,-6.2381,-6.2381,-6.2381,-6.2381,-6.2381,-6.2381,-6.2381,-6.2381,-6.2381,-6.2381,-6.2381,-6.2381,-6.2381,-6.2381,-6.2381,-6.2381,-6.2381,-6.2381,-6.2381,-6.2381,-6.2381,-6.2615,-6.2949,-6.3025,-6.3025,-6.3025,-6.3068,-6.3263,-6.3587,-6.4358,-6.4806,-6.4804,-6.5485,-6.5468,-6.4751,-6.4568,-6.4269,-6.3938,-6.382,-6.3703,-6.3617,-6.3878,-6.4393,-6.5141,-6.5533,-6.6092,-6.6804,-6.6804,-6.6804,-6.6804,-6.6804,-6.6804,-6.6804,-5.7881,-5.7881,-5.7881,-5.7881,-5.9116,-6.0097,-6.0097,-6.14,-6.2381,-6.2381,-6.2381,-6.2381,-6.2381,-6.2381,-6.2381,-6.2381,-6.2381,-6.2381,-6.2381,-6.2381,-6.2381,-6.2381,-6.2381,-6.2381,-6.2381,-6.2381,-6.2381,-6.2381,-6.2381,-6.2381,-6.2381,-6.2381,-6.2381,-6.2381,-6.2381,-6.2381,-6.2381,-6.2381,-6.2381,-6.2381,-6.2381,-6.2381,-6.2381,-6.2381,-6.2381,-6.2381,-6.2381,-6.2381,-6.2381,-6.2381,-6.2381,-6.2381,-6.2381,-6.2381,-6.2381,-6.2381,-6.2381,-6.2381,-6.2381,-6.2381,-6.2381,-6.2381,-6.2381,-6.2381,-6.2381,-6.2381,-6.2381,-6.2381,-6.2381,-6.2381,-6.2381,-6.2381,-6.2381,-6.2381,-6.2381,-6.2381,-6.2381,-6.2381,-6.2381,-6.2381,-6.2381,-6.2381,-6.2381,-6.2381,-6.2381,-6.2381,-6.2381,-6.2381,-6.2381,-6.2381,-6.2377,-6.2381,-6.2416,-6.237,-6.2423,-6.3781,-6.3833,-6.263,-6.5004,-6.4943,-6.2813,-6.4317,-6.4637,-6.3979,-6.4515,-6.5141,-6.5679,-6.5824,-6.6251,-6.6804,-6.6804,-6.6804,-6.6804,-6.6804,-6.6804,-6.6804,-5.7881,-5.7881,-5.7881,-5.7881,-5.9116,-6.0097,-6.0097,-6.14,-6.2381,-6.2381,-6.2381,-6.2381,-6.2381,-6.2381,-6.2381,-6.2381,-6.2381,-6.2381,-6.2381,-6.2381,-6.2381,-6.2381,-6.2381,-6.2381,-6.2381,-6.2381,-6.2381,-6.2381,-6.2381,-6.2381,-6.2381,-6.2381,-6.2381,-6.2381,-6.2381,-6.2381,-6.2381,-6.2381,-6.2381,-6.2381,-6.2381,-6.2381,-6.2381,-6.2381,-6.2381,-6.2381,-6.2381,-6.2381,-6.2381,-6.2381,-6.2381,-6.2381,-6.2381,-6.2381,-6.2381,-6.2381,-6.2381,-6.2381,-6.2381,-6.2381,-6.2381,-6.2381,-6.2381,-6.2381,-6.2381,-6.2381,-6.2381,-6.2381,-6.2381,-6.2381,-6.2381,-6.2381,-6.2381,-6.2381,-6.2381,-6.2381,-6.2381,-6.2381,-6.2381,-6.2381,-6.2381,-6.2381,-6.2381,-6.2381,-6.2381,-6.2381,-6.2381,-6.2381,-6.2381,-6.2381,-6.2425,-6.2402,-6.2377,-6.2377,-6.2368,-6.3242,-6.3618,-6.359,-6.3257,-6.3463,-6.4253,-6.3913,-6.4057,-6.4498,-6.5225,-6.5615,-6.5742,-6.6373,-6.6668,-6.6804,-6.6804,-6.6804,-6.6804,-6.6804,-6.6804,-6.6804,-5.7881,-5.7881,-5.7881,-5.7881,-5.8795,-5.9641,-6.0047,-6.1078,-6.1941,-6.233,-6.2381,-6.2381,-6.2381,-6.2381,-6.2381,-6.2381,-6.2381,-6.2381,-6.2381,-6.2381,-6.2381,-6.2381,-6.2381,-6.2381,-6.2381,-6.2381,-6.2381,-6.2381,-6.2381,-6.2381,-6.2381,-6.2381,-6.2381,-6.2381,-6.2381,-6.2381,-6.2381,-6.2381,-6.2381,-6.2381,-6.2381,-6.2381,-6.2381,-6.2381,-6.2381,-6.2381,-6.2381,-6.2381,-6.2381,-6.2381,-6.2381,-6.2381,-6.2381,-6.2381,-6.2381,-6.2381,-6.2381,-6.2381,-6.2381,-6.2381,-6.2381,-6.2381,-6.2381,-6.2381,-6.2381,-6.2381,-6.2381,-6.2381,-6.2381,-6.2381,-6.2381,-6.2381,-6.2381,-6.2381,-6.2381,-6.2381,-6.2381,-6.2381,-6.2381,-6.2381,-6.2381,-6.2381,-6.2381,-6.2381,-6.2381,-6.2381,-6.2381,-6.2381,-6.2381,-6.2381,-6.2381,-6.2381,-6.2381,-6.2402,-6.2421,-6.2753,-6.2922,-6.3073,-6.2997,-6.3365,-6.3987,-6.4463,-6.4873,-6.5207,-6.5967,-6.6312,-6.6312,-6.6668,-6.6804,-6.6804,-6.6804,-6.6804,-6.6804,-6.6804,-6.6804,-6.6804,-5.7881,-5.7881,-5.7881,-5.7881,-5.8507,-5.9201,-5.9759,-6.0672,-6.1501,-6.2059,-6.2279,-6.2381,-6.2381,-6.2381,-6.2381,-6.2381,-6.2381,-6.2381,-6.2381,-6.2381,-6.2381,-6.2381,-6.2381,-6.2381,-6.2381,-6.2381,-6.2381,-6.2381,-6.2381,-6.2381,-6.2381,-6.2381,-6.2381,-6.2381,-6.2381,-6.2381,-6.2381,-6.2381,-6.2381,-6.2381,-6.2381,-6.2381,-6.2381,-6.2381,-6.2381,-6.2381,-6.2381,-6.2381,-6.2381,-6.2381,-6.2381,-6.2381,-6.2381,-6.2381,-6.2381,-6.2381,-6.2381,-6.2381,-6.2381,-6.2381,-6.2381,-6.2381,-6.2381,-6.2381,-6.2381,-6.2381,-6.2381,-6.2381,-6.2381,-6.2381,-6.2381,-6.2381,-6.2381,-6.2381,-6.2381,-6.2381,-6.2381,-6.2381,-6.2381,-6.2381,-6.2381,-6.2381,-6.2381,-6.2381,-6.2381,-6.2381,-6.2381,-6.2381,-6.2381,-6.2381,-6.2381,-6.2381,-6.2381,-6.2381,-6.2381,-6.2381,-6.2381,-6.2381,-6.3158,-6.3513,-6.3587,-6.5008,-6.5679,-6.5742,-6.6452,-6.6804,-6.6804,-6.6804,-6.6804,-6.6804,-6.6804,-6.6804,-6.6804,-6.6804,-6.6804,-6.6804,-5.7881,-5.7881,-5.7881,-5.7881,-5.8507,-5.9032,-5.9082,-6.0351,-6.1315,-6.1366,-6.1975,-6.2381,-6.2381,-6.2381,-6.2381,-6.2381,-6.2381,-6.2381,-6.2381,-6.2381,-6.2381,-6.2381,-6.2381,-6.2381,-6.2381,-6.2381,-6.2381,-6.2381,-6.2381,-6.2381,-6.2381,-6.2381,-6.2381,-6.2381,-6.2381,-6.2381,-6.2381,-6.2381,-6.2381,-6.2381,-6.2381,-6.2381,-6.2381,-6.2381,-6.2381,-6.2381,-6.2381,-6.2381,-6.2381,-6.2381,-6.2381,-6.2381,-6.2381,-6.2381,-6.2381,-6.2381,-6.2381,-6.2381,-6.2381,-6.2381,-6.2381,-6.2381,-6.2381,-6.2381,-6.2381,-6.2381,-6.2381,-6.2381,-6.2381,-6.2381,-6.2381,-6.2381,-6.2381,-6.2381,-6.2381,-6.2381,-6.2381,-6.2381,-6.2381,-6.2381,-6.2381,-6.2381,-6.2381,-6.2381,-6.2381,-6.2381,-6.2381,-6.2381,-6.2381,-6.2381,-6.2381,-6.2381,-6.2381,-6.2381,-6.2381,-6.2381,-6.2381,-6.2381,-6.3158,-6.3513,-6.3587,-6.5008,-6.5679,-6.5742,-6.6452,-6.6804,-6.6804,-6.6804,-6.6804,-6.6804,-6.6804,-6.6804,-6.6804,-6.6804,-6.6804,-6.6804,-5.7881,-5.7881,-5.7881,-5.7881,-5.8118,-5.8473,-5.8947,-5.9505,-6.0047,-6.0503,-6.1231,-6.1721,-6.1721,-6.2127,-6.2381,-6.2381,-6.2381,-6.2381,-6.2381,-6.2381,-6.2381,-6.2381,-6.2381,-6.2381,-6.2381,-6.2381,-6.2381,-6.2381,-6.2381,-6.2381,-6.2381,-6.2381,-6.2381,-6.2381,-6.2381,-6.2381,-6.2381,-6.2381,-6.2381,-6.2381,-6.2381,-6.2381,-6.2381,-6.2381,-6.2381,-6.2381,-6.2381,-6.2381,-6.2381,-6.2381,-6.2381,-6.2381,-6.2381,-6.2381,-6.2381,-6.2381,-6.2381,-6.2381,-6.2381,-6.2381,-6.2381,-6.2381,-6.2381,-6.2381,-6.2381,-6.2381,-6.2381,-6.2381,-6.2381,-6.2381,-6.2381,-6.2381,-6.2381,-6.2381,-6.2381,-6.2381,-6.2381,-6.2381,-6.2381,-6.2381,-6.2381,-6.2381,-6.2381,-6.2381,-6.2381,-6.2381,-6.2381,-6.2381,-6.2381,-6.2381,-6.2381,-6.2381,-6.2381,-6.2381,-6.2381,-6.2381,-6.2381,-6.2381,-6.3158,-6.3716,-6.42,-6.5207,-6.5967,-6.6391,-6.6668,-6.6804,-6.6804,-6.6804,-6.6804,-6.6804,-6.6804,-6.6804,-6.6804,-6.6804,-6.6804,-6.6804,-5.7881,-5.7881,-5.7881,-5.7881,-5.7881,-5.8068,-5.8592,-5.8863,-5.9201,-5.9691,-6.0436,-6.1028,-6.1264,-6.1755,-6.2144,-6.2364,-6.2381,-6.2381,-6.2381,-6.2381,-6.2381,-6.2381,-6.2381,-6.2381,-6.2381,-6.2381,-6.2381,-6.2381,-6.2381,-6.2381,-6.2381,-6.2381,-6.2381,-6.2381,-6.2381,-6.2381,-6.2381,-6.2381,-6.2381,-6.2381,-6.2381,-6.2381,-6.2381,-6.2381,-6.2381,-6.2381,-6.2381,-6.2381,-6.2381,-6.2381,-6.2381,-6.2381,-6.2381,-6.2381,-6.2381,-6.2381,-6.2381,-6.2381,-6.2381,-6.2381,-6.2381,-6.2381,-6.2381,-6.2381,-6.2381,-6.2381,-6.2381,-6.2381,-6.2381,-6.2381,-6.2381,-6.2381,-6.2381,-6.2381,-6.2381,-6.2381,-6.2381,-6.2381,-6.2381,-6.2381,-6.2381,-6.2381,-6.2381,-6.2381,-6.2381,-6.2381,-6.2381,-6.2381,-6.2381,-6.2381,-6.2381,-6.2381,-6.2381,-6.2381,-6.2381,-6.2381,-6.2381,-6.2381,-6.3158,-6.3933,-6.4601,-6.5338,-6.6092,-6.6804,-6.6804,-6.6804,-6.6804,-6.6804,-6.6804,-6.6804,-6.6804,-6.6804,-6.6804,-6.6804,-6.6804,-6.6804,-5.7881,-5.7881,-5.7881,-5.7881,-5.7881,-5.7881,-5.7881,-5.8524,-5.8998,-5.8998,-5.9641,-6.0402,-6.1197,-6.1298,-6.1586,-6.2313,-6.2381,-6.2381,-6.2381,-6.2381,-6.2381,-6.2381,-6.2381,-6.2381,-6.2381,-6.2381,-6.2381,-6.2381,-6.2381,-6.2381,-6.2381,-6.2381,-6.2381,-6.2381,-6.2381,-6.2381,-6.2381,-6.2381,-6.2381,-6.2381,-6.2381,-6.2381,-6.2381,-6.2381,-6.2381,-6.2381,-6.2381,-6.2381,-6.2381,-6.2381,-6.2381,-6.2381,-6.2381,-6.2381,-6.2381,-6.2381,-6.2381,-6.2381,-6.2381,-6.2381,-6.2381,-6.2381,-6.2381,-6.2381,-6.2381,-6.2381,-6.2381,-6.2381,-6.2381,-6.2381,-6.2381,-6.2381,-6.2381,-6.2381,-6.2381,-6.2381,-6.2381,-6.2381,-6.2381,-6.2381,-6.2381,-6.2381,-6.2381,-6.2381,-6.2381,-6.2381,-6.2381,-6.2381,-6.2381,-6.2381,-6.2381,-6.2381,-6.2381,-6.2381,-6.2381,-6.2381,-6.2381,-6.2381,-6.3158,-6.3915,-6.4601,-6.5338,-6.611,-6.6804,-6.6804,-6.6804,-6.6804,-6.6804,-6.6804,-6.6804,-6.6804,-6.6804,-6.6804,-6.6804,-6.6804,-6.6804,-5.7881,-5.7881,-5.7881,-5.7881,-5.7881,-5.7881,-5.7881,-5.8084,-5.822,-5.822,-5.8879,-5.9438,-5.9674,-6.0655,-6.14,-6.1603,-6.2093,-6.2381,-6.2381,-6.2381,-6.2381,-6.2381,-6.2381,-6.2381,-6.2381,-6.2381,-6.2381,-6.2381,-6.2381,-6.2381,-6.2381,-6.2381,-6.2381,-6.2381,-6.2381,-6.2381,-6.2381,-6.2381,-6.2381,-6.2381,-6.2381,-6.2381,-6.2381,-6.2381,-6.2381,-6.2381,-6.2381,-6.2381,-6.2381,-6.2381,-6.2381,-6.2381,-6.2381,-6.2381,-6.2381,-6.2381,-6.2381,-6.2381,-6.2381,-6.2381,-6.2381,-6.2381,-6.2381,-6.2381,-6.2381,-6.2381,-6.2381,-6.2381,-6.2381,-6.2381,-6.2381,-6.2381,-6.2381,-6.2381,-6.2381,-6.2381,-6.2381,-6.2381,-6.2381,-6.2381,-6.2381,-6.2381,-6.2381,-6.2381,-6.2381,-6.2381,-6.2381,-6.2381,-6.2381,-6.2381,-6.2381,-6.2381,-6.2381,-6.2381,-6.2381,-6.2381,-6.2381,-6.2398,-6.3626,-6.4393,-6.4669,-6.5905,-6.659,-6.6804,-6.6804,-6.6804,-6.6804,-6.6804,-6.6804,-6.6804,-6.6804,-6.6804,-6.6804,-6.6804,-6.6804,-6.6804,-5.7881,-5.7881,-5.7881,-5.7881,-5.7881,-5.7881,-5.7881,-5.7881,-5.7881,-5.7881,-5.8287,-5.8676,-5.8981,-5.9844,-6.0639,-6.1247,-6.1958,-6.2381,-6.2381,-6.2381,-6.2381,-6.2381,-6.2381,-6.2381,-6.2381,-6.2381,-6.2381,-6.2381,-6.2381,-6.2381,-6.2381,-6.2381,-6.2381,-6.2381,-6.2381,-6.2381,-6.2381,-6.2381,-6.2381,-6.2381,-6.2381,-6.2381,-6.2381,-6.2381,-6.2381,-6.2381,-6.2381,-6.2381,-6.2381,-6.2381,-6.2381,-6.2381,-6.2381,-6.2381,-6.2381,-6.2381,-6.2381,-6.2381,-6.2381,-6.2381,-6.2381,-6.2381,-6.2381,-6.2381,-6.2381,-6.2381,-6.2381,-6.2381,-6.2381,-6.2381,-6.2381,-6.2381,-6.2381,-6.2381,-6.2381,-6.2381,-6.2381,-6.2381,-6.2381,-6.2381,-6.2381,-6.2381,-6.2381,-6.2381,-6.2381,-6.2381,-6.2381,-6.2381,-6.2381,-6.2381,-6.2381,-6.2381,-6.2381,-6.2381,-6.2381,-6.2381,-6.2381,-6.2381,-6.3291,-6.4041,-6.4601,-6.5486,-6.6251,-6.6804,-6.6804,-6.6804,-6.6804,-6.6804,-6.6804,-6.6804,-6.6804,-6.6804,-6.6804,-6.6804,-6.6804,-6.6804,-5.7881,-5.7881,-5.7881,-5.7881,-5.7881,-5.7881,-5.7881,-5.7881,-5.7881,-5.7881,-5.7881,-5.8152,-5.8846,-5.8981,-5.959,-6.0977,-6.1823,-6.2296,-6.2296,-6.2347,-6.2381,-6.2381,-6.2381,-6.2381,-6.2381,-6.2381,-6.2381,-6.2381,-6.2381,-6.2381,-6.2381,-6.2381,-6.2381,-6.2381,-6.2381,-6.2381,-6.2381,-6.2381,-6.2381,-6.2381,-6.2381,-6.2381,-6.2381,-6.2381,-6.2381,-6.2381,-6.2381,-6.2381,-6.2381,-6.2381,-6.2381,-6.2381,-6.2381,-6.2381,-6.2381,-6.2381,-6.2381,-6.2381,-6.2381,-6.2381,-6.2381,-6.2381,-6.2381,-6.2381,-6.2381,-6.2381,-6.2381,-6.2381,-6.2381,-6.2381,-6.2381,-6.2381,-6.2381,-6.2381,-6.2381,-6.2381,-6.2381,-6.2381,-6.2381,-6.2381,-6.2381,-6.2381,-6.2381,-6.2381,-6.2381,-6.2381,-6.2381,-6.2381,-6.2381,-6.2381,-6.2381,-6.2381,-6.2381,-6.2381,-6.2381,-6.2381,-6.2381,-6.2381,-6.2459,-6.3216,-6.4532,-6.4669,-6.5421,-6.6727,-6.6804,-6.6804,-6.6804,-6.6804,-6.6804,-6.6804,-6.6804,-6.6804,-6.6804,-6.6804,-6.6804,-6.6804,-5.7881,-5.7881,-5.7881,-5.7881,-5.7881,-5.7881,-5.7881,-5.7881,-5.7881,-5.7881,-5.7881,-5.7949,-5.8118,-5.866,-5.915,-5.9488,-6.0757,-6.1535,-6.1535,-6.2076,-6.2381,-6.2381,-6.2381,-6.2381,-6.2381,-6.2381,-6.2381,-6.2381,-6.2381,-6.2381,-6.2381,-6.2381,-6.2381,-6.2381,-6.2381,-6.2381,-6.2381,-6.2381,-6.2381,-6.2381,-6.2381,-6.2381,-6.2381,-6.2381,-6.2381,-6.2381,-6.2381,-6.2381,-6.2381,-6.2381,-6.2381,-6.2381,-6.2381,-6.2381,-6.2381,-6.2381,-6.2381,-6.2381,-6.2381,-6.2381,-6.2381,-6.2381,-6.2381,-6.2381,-6.2381,-6.2381,-6.2381,-6.2381,-6.2381,-6.2381,-6.2381,-6.2381,-6.2381,-6.2381,-6.2381,-6.2381,-6.2381,-6.2381,-6.2381,-6.2381,-6.2381,-6.2381,-6.2381,-6.2381,-6.2381,-6.2381,-6.2381,-6.2381,-6.2381,-6.2381,-6.2381,-6.2381,-6.2381,-6.2381,-6.2381,-6.2381,-6.2381,-6.2398,-6.2949,-6.344,-6.3788,-6.4923,-6.5615,-6.5967,-6.653,-6.6804,-6.6804,-6.6804,-6.6804,-6.6804,-6.6804,-6.6804,-6.6804,-6.6804,-6.6804,-6.6804,-5.7881,-5.7881,-5.7881,-5.7881,-5.7881,-5.7881,-5.7881,-5.7881,-5.7881,-5.7881,-5.7881,-5.7881,-5.7881,-5.8237,-5.8626,-5.8981,-6.0063,-6.074,-6.074,-6.1078,-6.1298,-6.1298,-6.1298,-6.1467,-6.1873,-6.1873,-6.2042,-6.2381,-6.2381,-6.2381,-6.2381,-6.2381,-6.2381,-6.2381,-6.2381,-6.2381,-6.2381,-6.2381,-6.2381,-6.2381,-6.2381,-6.2381,-6.2381,-6.2381,-6.2381,-6.2381,-6.2381,-6.2381,-6.2381,-6.2381,-6.2381,-6.2381,-6.2381,-6.2381,-6.2381,-6.2381,-6.2381,-6.2381,-6.2381,-6.2381,-6.2381,-6.2381,-6.2381,-6.2381,-6.2381,-6.2381,-6.2381,-6.2381,-6.2381,-6.2381,-6.2381,-6.2381,-6.2381,-6.2381,-6.2381,-6.2381,-6.2381,-6.2381,-6.2381,-6.2381,-6.2381,-6.2381,-6.2381,-6.2381,-6.2381,-6.2381,-6.2381,-6.2381,-6.2381,-6.2381,-6.2381,-6.2381,-6.2381,-6.2381,-6.2381,-6.2381,-6.2381,-6.2381,-6.2813,-6.3158,-6.3513,-6.4669,-6.5338,-6.5742,-6.6452,-6.6804,-6.6804,-6.6804,-6.6804,-6.6804,-6.6804,-6.6804,-6.6804,-6.6804,-6.6804,-6.6804,-5.7881,-5.7881,-5.7881,-5.7881,-5.7881,-5.7881,-5.7881,-5.7881,-5.7881,-5.7881,-5.7881,-5.7881,-5.7881,-5.7881,-5.8152,-5.8778,-5.9488,-5.9911,-5.9911,-6.003,-6.0097,-6.0097,-6.0097,-6.0419,-6.1078,-6.1095,-6.1518,-6.2381,-6.2381,-6.2381,-6.2381,-6.2262,-6.2195,-6.2195,-6.2059,-6.2009,-6.2009,-6.2009,-6.2009,-6.2009,-6.2009,-6.2009,-6.2009,-6.2009,-6.2009,-6.2009,-6.2009,-6.2093,-6.2229,-6.2347,-6.2381,-6.2381,-6.2381,-6.2381,-6.2381,-6.2381,-6.2381,-6.2381,-6.2381,-6.2381,-6.2381,-6.2381,-6.2381,-6.2381,-6.2381,-6.2381,-6.2381,-6.2381,-6.2381,-6.2381,-6.2381,-6.2381,-6.2381,-6.2381,-6.2381,-6.2381,-6.2381,-6.2381,-6.2381,-6.2381,-6.2381,-6.2381,-6.2381,-6.2381,-6.2381,-6.2381,-6.2381,-6.2381,-6.2381,-6.2381,-6.2381,-6.2381,-6.2381,-6.2381,-6.2381,-6.2381,-6.2381,-6.2381,-6.2381,-6.2736,-6.3383,-6.4058,-6.4788,-6.5551,-6.6312,-6.6668,-6.6804,-6.6804,-6.6804,-6.6804,-6.6804,-6.6804,-6.6804,-6.6804,-6.6804,-6.6804,-5.7881,-5.7881,-5.7881,-5.7881,-5.7881,-5.7881,-5.7881,-5.7881,-5.7881,-5.7881,-5.7881,-5.7881,-5.7881,-5.7881,-5.7932,-5.8034,-5.8727,-5.9167,-5.9167,-5.9759,-6.0097,-6.0097,-6.0097,-6.0148,-6.0266,-6.0266,-6.096,-6.2381,-6.2381,-6.2381,-6.2381,-6.1738,-6.145,-6.1417,-6.0723,-6.0419,-6.0419,-6.0419,-6.0419,-6.0419,-6.0419,-6.0419,-6.0419,-6.0419,-6.0419,-6.0419,-6.0419,-6.0858,-6.1552,-6.2178,-6.2381,-6.2381,-6.2381,-6.2381,-6.2381,-6.2381,-6.2381,-6.2381,-6.2381,-6.2381,-6.2381,-6.2381,-6.2381,-6.2381,-6.2381,-6.2381,-6.2381,-6.2381,-6.2381,-6.2381,-6.2381,-6.2381,-6.2381,-6.2381,-6.2381,-6.2381,-6.2381,-6.2381,-6.2381,-6.2381,-6.2381,-6.2381,-6.2381,-6.2381,-6.2381,-6.2381,-6.2381,-6.2381,-6.2381,-6.2381,-6.2381,-6.2381,-6.2381,-6.2381,-6.2381,-6.2381,-6.2381,-6.2381,-6.2381,-6.2459,-6.2598,-6.3291,-6.4058,-6.4806,-6.5551,-6.6233,-6.6804,-6.6804,-6.6804,-6.6804,-6.6804,-6.6804,-6.6804,-6.6804,-6.6804,-6.6804,-5.7881,-5.7881,-5.7881,-5.7881,-5.7881,-5.7881,-5.7881,-5.7881,-5.7881,-5.7881,-5.7881,-5.7881,-5.7881,-5.7881,-5.7881,-5.7881,-5.8203,-5.8389,-5.8389,-5.8693,-5.8863,-5.8863,-5.8863,-5.9066,-5.9488,-5.9488,-6.003,-6.1112,-6.1112,-6.1112,-6.1112,-6.0774,-6.0639,-6.0605,-6.0266,-6.0097,-6.0097,-6.0097,-6.0097,-6.0097,-6.0097,-6.0097,-6.0097,-6.0097,-6.0097,-6.0165,-6.0605,-6.0994,-6.1417,-6.2144,-6.2381,-6.2381,-6.2381,-6.2381,-6.2381,-6.2381,-6.2093,-6.1789,-6.1789,-6.1789,-6.1789,-6.1789,-6.2093,-6.2381,-6.2381,-6.2381,-6.2381,-6.2381,-6.2381,-6.2381,-6.2381,-6.2381,-6.2381,-6.2381,-6.2381,-6.2381,-6.2381,-6.2381,-6.2381,-6.2381,-6.2381,-6.2381,-6.2381,-6.2381,-6.2381,-6.2381,-6.2381,-6.2381,-6.2381,-6.2381,-6.2381,-6.2381,-6.2381,-6.2381,-6.2381,-6.2381,-6.2381,-6.2381,-6.2381,-6.2381,-6.2459,-6.3158,-6.3915,-6.4669,-6.5403,-6.611,-6.6804,-6.6804,-6.6804,-6.6804,-6.6804,-6.6804,-6.6804,-6.6804,-6.6804,-6.6804]}]]